GFSNE_850_dewp_000.txt.gz
Dewpoint
-12 -10 -9 -9 -8 -7 -7 -8 -8 -4 -5 -6 -8 -11 -12 -11 -8 -3 -4 -6 -5 -5 -2 -11 -15 -7 -3 0 0 2 3 3 4 4 4 5 6 6
-12 -11 -9 -10 -9 -10 -11 -12 -10 -8 -7 -8 -9 -8 -8 -6 -5 -6 -7 -6 -4 -3 -4 -9 1 -1 -5 -4 -2 -1 2 4 4 4 5 3 4 5
-12 -12 -11 -10 -10 -11 -12 -11 -10 -10 -8 -8 -7 -8 -9 -9 -8 -8 -7 -7 -6 -7 -5 -1 -2 -10 -13 -13 -8 -2 1 5 5 6 5 5 6 5
-13 -12 -12 -12 -11 -11 -11 -11 -10 -9 -8 -7 -8 -8 -8 -8 -7 -7 -8 -8 -8 -7 -7 -6 -4 -7 -6 -10 -2 -3 -1 3 4 5 4 5 6 7
-12 -11 -11 -11 -11 -11 -11 -10 -9 -9 -8 -8 -7 -7 -7 -7 -7 -8 -7 -8 -8 -7 -6 -6 -4 -2 -3 -0 -2 -1 -0 1 3 4 3 4 4 7
-11 -10 -10 -10 -11 -10 -10 -10 -9 -8 -8 -8 -7 -7 -7 -9 -8 -8 -8 -7 -6 -6 -6 -3 -3 -2 -3 -3 -2 -3 -0 2 2 2 3 4 5 5
-10 -10 -10 -10 -9 -9 -9 -8 -8 -9 -7 -6 -7 -8 -9 -9 -8 -8 -8 -8 -8 -7 -4 -4 -4 -3 -5 -9 -11 -10 -4 -1 2 3 4 3 2 2
-10 -10 -11 -11 -10 -9 -8 -7 -8 -7 -7 -6 -7 -8 -9 -9 -9 -9 -7 -6 -6 -7 -5 -5 -8 -6 -5 -5 -4 -2 -2 -1 -1 -0 0 2 1 -1
-10 -11 -11 -11 -9 -8 -9 -9 -8 -7 -8 -8 -8 -10 -9 -9 -9 -7 -7 -6 -6 -6 -6 -7 -6 -5 -6 -6 -3 -6 -1 -1 0 1 1 -1 -2 -1
-11 -11 -11 -9 -8 -10 -9 -8 -7 -9 -10 -11 -10 -9 -8 -8 -8 -8 -8 -8 -7 -7 -5 -5 -6 -6 -7 -5 -3 -2 -2 -0 -0 -2 -1 -0 1 2
-11 -10 -8 -8 -9 -9 -8 -8 -9 -10 -12 -10 -9 -9 -10 -9 -8 -8 -8 -7 -7 -6 -7 -6 -7 -6 -5 -7 -7 -5 -2 -2 -1 -0 0 1 1 1
-10 -9 -9 -10 -9 -7 -9 -10 -9 -12 -9 -10 -10 -11 -9 -9 -8 -9 -9 -8 -8 -7 -8 -6 -8 -7 -6 -5 -3 -4 -3 -1 1 2 2 2 2 4
-9 -9 -10 -8 -8 -11 -11 -10 -10 -10 -10 -11 -11 -11 -11 -10 -10 -10 -10 -9 -9 -8 -9 -7 -8 -8 -7 -7 -8 -7 -5 -1 1 3 3 3 3 4
-9 -9 -8 -9 -11 -12 -11 -11 -11 -11 -12 -12 -11 -11 -10 -11 -11 -11 -10 -10 -9 -9 -9 -8 -8 -8 -8 -8 -8 -8 -5 -2 -0 1 1 1 2 2
-10 -9 -10 -12 -12 -12 -11 -12 -12 -12 -12 -11 -11 -11 -11 -11 -11 -11 -10 -10 -9 -9 -8 -8 -9 -9 -9 -9 -8 -7 -6 -3 -2 -0 -1 -1 -1 -0
-9 -10 -12 -13 -13 -12 -12 -13 -13 -12 -11 -11 -11 -12 -12 -11 -10 -10 -10 -9 -8 -9 -8 -9 -9 -10 -9 -9 -8 -6 -6 -4 -3 -2 -1 -2 -1 -0
-9 -12 -13 -13 -12 -13 -13 -13 -13 -12 -12 -12 -12 -12 -12 -11 -11 -10 -9 -9 -9 -9 -9 -9 -9 -10 -9 -8 -7 -7 -6 -4 -3 -3 -2 -3 -3 -2
-12 -13 -13 -12 -12 -12 -12 -13 -13 -12 -12 -12 -12 -12 -11 -11 -10 -10 -9 -9 -9 -10 -10 -10 -9 -9 -9 -9 -8 -7 -6 -5 -4 -3 -3 -4 -4 -3
-12 -12 -12 -12 -13 -13 -13 -13 -12 -12 -12 -12 -12 -12 -11 -11 -10 -9 -9 -9 -9 -10 -11 -10 -12 -9 -8 -9 -9 -7 -6 -5 -4 -4 -4 -5 -5 -5
-13 -13 -13 -13 -13 -13 -13 -13 -13 -13 -12 -12 -12 -11 -11 -10 -10 -9 -9 -9 -10 -12 -15 -12 -15 -9 -8 -9 -10 -8 -7 -6 -5 -5 -5 -5 -5 -5
-13 -13 -13 -13 -13 -13 -13 -13 -13 -13 -12 -12 -12 -11 -10 -10 -10 -12 -14 -13 -13 -18 -15 -11 -13 -13 -12 -12 -10 -8 -7 -6 -5 -5 -6 -6 -6 -6
-13 -13 -13 -13 -13 -13 -13 -13 -13 -12 -12 -11 -10 -10 -10 -10 -10 -16 -19 -15 -10 -9 -11 -8 -9 -13 -12 -12 -11 -12 -15 -17 -15 -12 -13 -12 -11 -11
-13 -13 -13 -13 -13 -13 -13 -13 -12 -11 -10 -10 -10 -9 -10 -11 -15 -19 -12 -9 -9 -9 -8 -8 -8 -11 -11 -10 -10 -11 -12 -12 -12 -12 -10 -11 -12 -11

GFSNE_850_dewp_006.txt.gz
Dewpoint
-17 -16 -15 -16 -14 -12 -11 -11 -10 -9 -9 -10 -11 -10 -9 -10 -10 -8 -9 -8 -7 -7 -7 -6 -7 -5 -5 -6 -6 -5 -5 -3 -3 -2 2 1 3 4
-16 -17 -17 -15 -13 -12 -12 -11 -11 -10 -10 -11 -9 -10 -10 -9 -9 -9 -9 -8 -7 -7 -8 -8 -7 -7 -6 -6 -5 -5 -3 -3 -3 -3 -2 1 2 4
-17 -18 -16 -14 -13 -11 -11 -11 -10 -10 -9 -10 -10 -11 -9 -9 -10 -9 -7 -7 -7 -8 -8 -8 -8 -8 -7 -7 -7 -6 -3 -3 -2 -1 -1 0 2 4
-18 -18 -15 -13 -11 -11 -10 -10 -10 -10 -10 -10 -8 -9 -9 -9 -8 -9 -8 -7 -8 -9 -10 -9 -10 -9 -8 -7 -7 -7 -5 -3 -2 -1 -0 1 1 1
-17 -16 -14 -11 -11 -10 -10 -10 -11 -10 -8 -7 -8 -8 -7 -8 -8 -8 -7 -8 -10 -11 -11 -9 -8 -8 -7 -6 -6 -6 -4 -3 -3 -3 -2 -1 -2 0
-14 -14 -12 -10 -9 -10 -10 -9 -9 -8 -7 -7 -7 -7 -8 -9 -7 -8 -9 -11 -11 -10 -11 -8 -8 -9 -7 -7 -7 -7 -6 -6 -5 -3 -2 -3 -1 -2
-13 -11 -9 -9 -9 -10 -10 -9 -8 -8 -7 -7 -7 -7 -8 -8 -9 -10 -10 -10 -11 -10 -8 -12 -10 -10 -11 -9 -6 -6 -5 -4 -4 -3 -3 -2 -2 -2
-11 -10 -10 -10 -11 -10 -9 -9 -9 -7 -7 -7 -8 -9 -11 -11 -9 -9 -9 -9 -8 -9 -10 -9 -9 -9 -8 -8 -6 -5 -5 -5 -5 -5 -4 -2 -2 -6
-10 -9 -10 -10 -10 -11 -10 -7 -7 -8 -8 -10 -11 -11 -9 -9 -9 -9 -9 -9 -9 -9 -9 -9 -9 -8 -9 -12 -8 -6 -6 -6 -6 -5 -4 -4 -3 -1
-10 -10 -10 -10 -10 -8 -7 -7 -8 -9 -10 -11 -11 -9 -9 -9 -9 -10 -10 -10 -10 -9 -9 -9 -9 -10 -11 -10 -9 -8 -7 -6 -5 -6 -5 -4 -3 -2
-10 -9 -9 -9 -9 -8 -8 -8 -9 -10 -13 -11 -9 -9 -11 -11 -10 -10 -10 -10 -10 -10 -10 -10 -10 -9 -10 -9 -10 -8 -7 -7 -7 -7 -6 -5 -5 -4
-8 -8 -9 -9 -10 -8 -8 -9 -9 -12 -10 -9 -11 -14 -14 -13 -10 -11 -10 -10 -10 -10 -11 -10 -10 -9 -9 -10 -8 -9 -9 -9 -8 -7 -6 -4 -4 -4
-8 -9 -9 -10 -9 -9 -10 -10 -11 -10 -10 -12 -14 -13 -11 -11 -11 -11 -11 -11 -11 -10 -12 -10 -10 -10 -9 -9 -9 -8 -9 -9 -7 -5 -3 -1 0 1
-9 -9 -11 -9 -9 -11 -11 -12 -11 -11 -14 -13 -11 -11 -11 -11 -12 -12 -11 -11 -10 -10 -9 -9 -9 -9 -9 -8 -9 -11 -10 -7 -6 -5 -3 -0 1 2
-10 -10 -9 -9 -11 -12 -12 -12 -12 -13 -12 -11 -11 -12 -12 -12 -12 -11 -11 -10 -10 -9 -9 -9 -9 -9 -9 -10 -9 -10 -8 -7 -5 -4 -2 -0 0 2
-10 -9 -11 -12 -13 -13 -13 -13 -13 -12 -12 -12 -12 -12 -12 -12 -11 -11 -10 -10 -9 -9 -10 -10 -10 -10 -10 -10 -8 -8 -7 -7 -5 -3 -3 -2 -1 0
-9 -11 -13 -14 -13 -12 -13 -12 -12 -12 -12 -12 -12 -12 -12 -12 -11 -11 -10 -10 -9 -9 -10 -10 -10 -9 -10 -9 -8 -7 -7 -6 -5 -3 -3 -2 -2 -2
-11 -13 -13 -12 -12 -12 -12 -12 -13 -12 -12 -12 -12 -12 -12 -11 -11 -10 -10 -10 -11 -10 -10 -10 -10 -9 -9 -9 -8 -7 -6 -5 -4 -3 -3 -2 -2 -2
-13 -13 -12 -13 -13 -13 -13 -12 -13 -13 -12 -12 -12 -12 -11 -11 -11 -11 -10 -10 -10 -10 -9 -10 -10 -9 -9 -9 -8 -7 -6 -5 -4 -3 -4 -3 -3 -3
-13 -12 -13 -13 -13 -13 -13 -13 -13 -13 -12 -12 -11 -11 -11 -11 -11 -10 -10 -10 -10 -10 -9 -9 -9 -9 -9 -10 -9 -7 -5 -4 -4 -4 -4 -4 -3 -3
-13 -13 -14 -13 -13 -13 -13 -13 -13 -12 -11 -10 -10 -10 -10 -10 -11 -10 -10 -10 -10 -9 -9 -9 -9 -9 -8 -8 -8 -7 -6 -5 -4 -4 -4 -4 -4 -4
-14 -14 -13 -13 -13 -13 -13 -13 -12 -11 -11 -10 -10 -10 -10 -10 -10 -10 -10 -10 -9 -9 -9 -9 -10 -9 -8 -8 -8 -7 -7 -6 -5 -5 -5 -5 -5 -5
-14 -13 -13 -13 -12 -12 -12 -12 -11 -11 -10 -10 -9 -10 -10 -10 -9 -9 -9 -9 -9 -9 -9 -9 -9 -11 -10 -9 -8 -8 -7 -6 -6 -6 -7 -6 -5 -5

GFSNE_850_dewp_009.txt.gz
Dewpoint
-19 -19 -18 -18 -19 -19 -15 -13 -12 -9 -9 -11 -10 -10 -10 -10 -11 -10 -10 -11 -9 -8 -8 -7 -7 -6 -7 -5 -7 -7 -6 -6 -5 -5 -5 -1 -1 -2
-19 -18 -18 -18 -19 -20 -14 -11 -10 -10 -9 -10 -10 -10 -11 -12 -10 -10 -10 -9 -9 -8 -8 -7 -6 -8 -7 -8 -6 -8 -7 -6 -5 -5 -4 -2 -1 -0
-19 -16 -16 -16 -18 -15 -12 -11 -10 -9 -9 -10 -10 -11 -11 -11 -11 -10 -8 -9 -8 -7 -7 -8 -9 -8 -9 -9 -8 -7 -7 -7 -7 -7 -6 -2 -2 -0
-14 -14 -15 -15 -16 -12 -10 -9 -10 -10 -10 -9 -9 -9 -8 -10 -8 -8 -8 -9 -9 -9 -10 -10 -10 -10 -9 -9 -8 -6 -5 -5 -5 -5 -4 -2 -2 -2
-12 -12 -13 -13 -10 -9 -9 -9 -9 -9 -8 -7 -7 -8 -8 -7 -7 -9 -9 -9 -10 -10 -11 -12 -11 -9 -8 -8 -9 -9 -7 -5 -6 -5 -4 -3 -4 -2
-11 -12 -13 -12 -9 -8 -9 -9 -8 -8 -8 -8 -8 -7 -7 -9 -10 -11 -12 -10 -10 -10 -10 -10 -8 -8 -10 -9 -8 -8 -7 -7 -6 -6 -5 -4 -4 -4
-11 -11 -12 -11 -9 -9 -8 -8 -9 -9 -7 -7 -7 -8 -9 -11 -11 -11 -9 -9 -10 -9 -9 -10 -11 -11 -11 -10 -9 -8 -7 -6 -6 -5 -4 -4 -4 -4
-11 -11 -11 -11 -10 -10 -10 -9 -8 -7 -7 -7 -7 -9 -10 -11 -11 -10 -9 -9 -10 -10 -10 -10 -10 -11 -10 -10 -8 -8 -9 -8 -6 -5 -5 -4 -5 -4
-10 -10 -10 -10 -9 -9 -10 -8 -8 -8 -8 -8 -9 -10 -10 -10 -9 -9 -10 -10 -10 -10 -10 -10 -10 -10 -11 -11 -10 -9 -8 -7 -7 -7 -6 -6 -5 -5
-10 -9 -9 -9 -9 -9 -8 -8 -9 -9 -9 -9 -10 -10 -9 -9 -11 -10 -10 -10 -10 -11 -10 -10 -11 -11 -12 -11 -10 -9 -8 -8 -8 -7 -6 -6 -5 -5
-9 -8 -9 -9 -10 -9 -9 -8 -9 -10 -13 -10 -9 -10 -11 -11 -11 -10 -11 -11 -11 -11 -13 -11 -11 -11 -11 -11 -12 -11 -9 -8 -7 -7 -7 -6 -6 -6
-10 -10 -11 -10 -10 -9 -8 -9 -11 -13 -10 -10 -12 -15 -15 -13 -11 -11 -12 -11 -11 -11 -13 -11 -10 -10 -10 -11 -11 -10 -10 -9 -8 -8 -8 -7 -6 -5
-10 -10 -11 -10 -9 -9 -10 -12 -12 -10 -11 -14 -14 -13 -12 -12 -12 -12 -12 -12 -12 -11 -11 -10 -10 -10 -10 -9 -10 -10 -11 -10 -8 -7 -6 -6 -5 -5
-9 -10 -11 -9 -11 -11 -12 -12 -11 -11 -14 -12 -12 -12 -12 -12 -12 -11 -11 -10 -10 -10 -9 -9 -10 -10 -10 -10 -10 -12 -9 -7 -6 -6 -5 -4 -3 -2
-10 -9 -10 -11 -12 -13 -12 -12 -12 -13 -12 -12 -12 -12 -12 -12 -12 -11 -11 -10 -10 -10 -10 -10 -10 -10 -10 -11 -10 -9 -8 -7 -5 -5 -4 -3 -2 -1
-10 -10 -12 -13 -13 -12 -14 -13 -13 -12 -12 -12 -12 -12 -12 -12 -11 -11 -11 -10 -10 -11 -10 -10 -10 -10 -10 -10 -9 -9 -7 -7 -5 -4 -4 -3 -1 -1
-10 -12 -15 -13 -13 -13 -13 -13 -13 -12 -12 -12 -12 -12 -12 -11 -11 -11 -11 -10 -10 -10 -10 -10 -10 -9 -10 -10 -9 -8 -6 -5 -4 -4 -4 -3 -2 -1
-12 -13 -13 -13 -13 -13 -13 -13 -13 -13 -12 -12 -12 -11 -11 -11 -11 -11 -11 -10 -10 -10 -9 -10 -10 -9 -9 -8 -8 -7 -5 -5 -4 -4 -4 -4 -3 -2
-13 -13 -13 -13 -13 -13 -13 -13 -13 -13 -12 -12 -11 -11 -11 -11 -11 -11 -10 -10 -10 -9 -9 -9 -9 -9 -9 -9 -7 -7 -5 -4 -4 -4 -4 -4 -4 -3
-13 -13 -13 -13 -13 -13 -13 -13 -13 -12 -12 -11 -10 -10 -10 -10 -10 -10 -10 -10 -9 -9 -9 -9 -9 -9 -9 -9 -8 -6 -5 -4 -4 -4 -4 -4 -4 -3
-14 -14 -14 -13 -13 -13 -13 -13 -12 -12 -11 -10 -10 -9 -9 -10 -10 -10 -10 -9 -9 -9 -9 -9 -9 -8 -8 -7 -7 -6 -5 -5 -4 -4 -4 -4 -4 -4
-14 -14 -14 -13 -12 -12 -12 -12 -12 -11 -10 -10 -9 -9 -9 -9 -10 -9 -9 -9 -9 -9 -9 -9 -8 -7 -7 -7 -7 -6 -5 -5 -5 -4 -4 -5 -4 -4
-14 -14 -14 -12 -12 -12 -12 -11 -11 -10 -10 -9 -8 -8 -8 -9 -9 -9 -9 -9 -9 -9 -9 -10 -11 -8 -8 -8 -7 -7 -6 -6 -5 -5 -5 -5 -5 -4

GFSNE_850_dewp_012.txt.gz
Dewpoint
-22 -21 -20 -19 -17 -17 -17 -18 -12 -9 -10 -11 -10 -9 -10 -10 -12 -11 -10 -10 -8 -7 -8 -8 -8 -7 -6 -6 -4 -5 -5 -6 -6 -5 -5 -5 -4 -3
-20 -19 -17 -16 -15 -17 -19 -16 -12 -10 -8 -10 -9 -9 -10 -10 -10 -9 -9 -8 -8 -8 -8 -9 -9 -8 -7 -7 -8 -7 -6 -7 -8 -7 -6 -6 -5 -4
-19 -16 -14 -13 -14 -16 -14 -11 -9 -9 -8 -9 -10 -10 -9 -10 -10 -9 -7 -7 -9 -9 -9 -9 -9 -8 -8 -8 -8 -9 -8 -7 -6 -5 -5 -5 -5 -5
-16 -13 -12 -12 -13 -15 -12 -9 -9 -9 -8 -8 -9 -9 -9 -11 -8 -7 -9 -11 -11 -11 -11 -10 -9 -10 -10 -9 -9 -8 -8 -6 -6 -6 -6 -5 -4 -3
-13 -12 -12 -12 -13 -13 -10 -9 -8 -7 -8 -8 -9 -10 -10 -8 -7 -10 -11 -12 -15 -13 -11 -10 -10 -10 -9 -8 -7 -7 -8 -9 -8 -6 -7 -6 -6 -5
-12 -12 -11 -11 -11 -9 -9 -8 -8 -10 -9 -9 -8 -8 -7 -8 -10 -11 -12 -12 -12 -10 -9 -10 -10 -9 -9 -9 -9 -9 -9 -8 -8 -7 -7 -7 -6 -5
-12 -11 -10 -10 -10 -9 -9 -8 -8 -8 -8 -7 -8 -8 -8 -11 -11 -11 -11 -11 -9 -11 -12 -12 -11 -10 -11 -11 -11 -10 -9 -8 -7 -7 -6 -6 -5 -5
-11 -10 -11 -10 -10 -9 -9 -9 -9 -8 -9 -8 -7 -9 -10 -10 -10 -10 -9 -10 -11 -11 -11 -10 -10 -11 -11 -12 -10 -9 -9 -8 -7 -8 -7 -6 -6 -5
-10 -11 -11 -11 -10 -11 -10 -9 -9 -9 -8 -10 -11 -10 -10 -10 -9 -10 -10 -10 -10 -11 -11 -11 -13 -10 -12 -12 -11 -9 -9 -8 -8 -8 -7 -7 -6 -6
-12 -12 -10 -10 -11 -10 -9 -9 -8 -11 -13 -12 -11 -10 -10 -10 -11 -10 -11 -10 -11 -12 -11 -11 -13 -12 -12 -12 -12 -12 -10 -8 -8 -7 -7 -7 -7 -6
-12 -10 -9 -10 -10 -9 -8 -9 -10 -11 -14 -11 -10 -11 -11 -11 -11 -11 -11 -11 -11 -12 -14 -11 -12 -12 -11 -12 -13 -12 -11 -8 -8 -8 -7 -7 -7 -7
-9 -10 -11 -10 -9 -9 -9 -10 -11 -13 -10 -11 -13 -15 -15 -13 -11 -11 -12 -12 -12 -11 -13 -11 -11 -11 -10 -11 -11 -11 -11 -12 -9 -8 -8 -8 -7 -7
-9 -10 -11 -10 -10 -11 -11 -12 -11 -10 -11 -13 -14 -14 -13 -12 -12 -11 -11 -11 -12 -11 -12 -10 -10 -10 -10 -10 -10 -11 -12 -11 -8 -7 -6 -6 -7 -7
-9 -12 -10 -10 -11 -11 -12 -11 -11 -11 -13 -13 -12 -12 -12 -12 -11 -11 -11 -11 -10 -10 -10 -10 -10 -10 -10 -9 -10 -12 -11 -9 -7 -6 -6 -5 -5 -6
-10 -10 -10 -11 -12 -14 -12 -11 -11 -13 -13 -12 -12 -12 -11 -11 -11 -11 -11 -11 -11 -10 -10 -10 -10 -10 -10 -10 -10 -10 -8 -8 -5 -5 -4 -4 -4 -4
-11 -11 -13 -14 -15 -13 -14 -13 -13 -12 -12 -12 -12 -11 -11 -11 -11 -11 -11 -11 -11 -11 -10 -9 -9 -10 -9 -9 -9 -8 -7 -8 -5 -4 -4 -4 -3 -2
-11 -13 -15 -15 -15 -14 -13 -13 -13 -12 -12 -12 -12 -11 -11 -11 -11 -11 -11 -10 -10 -10 -10 -10 -9 -9 -8 -8 -8 -7 -7 -5 -4 -4 -4 -4 -3 -2
-12 -14 -14 -14 -13 -13 -13 -13 -13 -12 -12 -12 -11 -11 -11 -11 -11 -10 -10 -10 -10 -9 -9 -9 -9 -8 -7 -7 -7 -7 -5 -5 -4 -4 -4 -5 -4 -2
-14 -14 -13 -13 -13 -13 -12 -12 -12 -12 -12 -11 -11 -11 -10 -10 -10 -10 -10 -10 -10 -9 -9 -9 -9 -8 -8 -8 -6 -6 -5 -4 -4 -4 -4 -5 -5 -5
-14 -13 -14 -13 -13 -12 -12 -12 -12 -11 -11 -11 -10 -9 -10 -10 -10 -10 -10 -10 -9 -9 -9 -8 -8 -8 -7 -8 -7 -5 -5 -4 -4 -4 -4 -4 -4 -5
-14 -14 -14 -13 -12 -12 -12 -12 -11 -11 -11 -10 -9 -9 -9 -9 -9 -9 -9 -9 -9 -9 -9 -9 -8 -7 -6 -6 -6 -5 -4 -4 -4 -4 -4 -4 -4 -4
-14 -14 -13 -12 -11 -11 -11 -11 -11 -10 -9 -9 -8 -8 -8 -8 -9 -9 -9 -9 -9 -9 -9 -10 -8 -7 -7 -6 -6 -5 -5 -4 -4 -4 -4 -4 -5 -5
-14 -14 -12 -11 -11 -11 -10 -10 -10 -9 -9 -8 -8 -8 -8 -8 -8 -9 -8 -8 -8 -9 -9 -10 -8 -8 -8 -7 -6 -6 -5 -6 -5 -5 -4 -4 -4 -4

GFSNE_850_dewp_015.txt.gz
Dewpoint
-21 -20 -19 -17 -15 -15 -16 -16 -13 -9 -10 -10 -10 -10 -10 -10 -9 -9 -10 -10 -9 -8 -7 -7 -7 -8 -8 -8 -7 -7 -6 -5 -4 -3 -3 -3 -3 -4
-21 -21 -18 -15 -15 -15 -15 -15 -14 -10 -8 -12 -11 -10 -9 -8 -10 -10 -9 -8 -8 -7 -7 -8 -8 -9 -9 -8 -8 -7 -6 -5 -5 -5 -5 -4 -4 -5
-21 -18 -16 -14 -14 -13 -13 -14 -12 -10 -9 -11 -11 -11 -13 -13 -10 -9 -8 -8 -8 -8 -8 -10 -10 -10 -10 -8 -7 -7 -7 -7 -6 -6 -6 -6 -5 -4
-18 -16 -14 -13 -12 -11 -12 -11 -10 -10 -8 -8 -10 -11 -12 -9 -10 -9 -7 -9 -10 -11 -11 -11 -10 -10 -9 -7 -8 -8 -8 -7 -7 -6 -5 -5 -5 -5
-15 -14 -13 -11 -11 -11 -10 -10 -9 -8 -8 -8 -9 -10 -9 -10 -9 -8 -10 -12 -13 -12 -11 -11 -10 -9 -9 -10 -9 -8 -7 -7 -7 -7 -7 -7 -6 -6
-14 -12 -11 -11 -11 -9 -9 -9 -8 -9 -9 -9 -8 -8 -9 -9 -9 -11 -13 -12 -11 -11 -10 -10 -10 -11 -10 -10 -9 -9 -9 -9 -9 -8 -8 -7 -7 -7
-13 -13 -13 -13 -11 -9 -9 -9 -10 -9 -8 -8 -8 -8 -10 -12 -12 -12 -11 -10 -10 -11 -11 -12 -11 -11 -11 -11 -11 -10 -9 -9 -8 -8 -7 -7 -7 -6
-15 -15 -15 -13 -12 -10 -10 -9 -9 -8 -8 -8 -10 -11 -12 -11 -11 -10 -10 -10 -11 -11 -11 -12 -11 -11 -13 -13 -12 -10 -9 -9 -8 -8 -8 -8 -7 -6
-14 -14 -12 -11 -12 -12 -11 -9 -8 -9 -9 -10 -12 -11 -10 -10 -10 -11 -10 -11 -10 -11 -11 -11 -13 -13 -13 -13 -12 -10 -9 -9 -8 -8 -8 -8 -7 -7
-13 -12 -10 -11 -11 -10 -8 -8 -11 -12 -13 -12 -11 -10 -10 -10 -10 -10 -11 -11 -11 -12 -11 -11 -13 -13 -13 -13 -13 -13 -11 -9 -8 -8 -8 -7 -7 -7
-11 -9 -9 -10 -10 -8 -9 -10 -10 -13 -14 -11 -10 -11 -11 -11 -11 -11 -11 -11 -11 -11 -12 -11 -12 -11 -11 -12 -13 -12 -10 -9 -9 -8 -8 -7 -7 -7
-9 -10 -9 -10 -9 -9 -10 -10 -11 -13 -10 -10 -13 -14 -14 -13 -11 -11 -11 -12 -12 -12 -12 -12 -11 -11 -11 -11 -12 -12 -11 -11 -10 -9 -8 -8 -7 -7
-11 -10 -12 -10 -9 -10 -11 -11 -11 -10 -11 -13 -14 -13 -13 -12 -11 -11 -11 -11 -12 -12 -12 -11 -11 -11 -11 -11 -11 -10 -10 -10 -8 -8 -6 -6 -6 -7
-10 -11 -11 -10 -11 -11 -12 -11 -10 -11 -13 -13 -13 -12 -12 -11 -11 -11 -11 -11 -11 -11 -10 -10 -11 -10 -10 -10 -10 -10 -9 -8 -7 -6 -6 -6 -6 -6
-10 -10 -11 -11 -14 -16 -14 -11 -12 -13 -12 -12 -12 -12 -11 -11 -11 -11 -11 -10 -10 -10 -9 -9 -9 -9 -10 -10 -9 -9 -8 -8 -6 -6 -5 -5 -5 -5
-11 -11 -13 -16 -16 -14 -13 -13 -13 -12 -12 -12 -12 -11 -11 -11 -11 -10 -10 -10 -10 -11 -10 -9 -9 -9 -8 -8 -8 -8 -6 -8 -6 -5 -5 -5 -4 -4
-11 -13 -16 -16 -15 -13 -13 -12 -12 -12 -12 -11 -11 -11 -10 -11 -10 -10 -10 -10 -10 -10 -10 -9 -8 -7 -7 -7 -7 -7 -6 -5 -5 -4 -5 -5 -5 -4
-12 -15 -15 -15 -13 -12 -12 -12 -12 -12 -11 -11 -11 -10 -10 -10 -10 -10 -10 -10 -10 -9 -9 -8 -8 -8 -7 -6 -6 -6 -6 -5 -4 -5 -5 -5 -5 -2
-15 -15 -15 -14 -12 -12 -12 -12 -12 -11 -11 -10 -10 -10 -10 -10 -10 -9 -9 -9 -10 -9 -9 -8 -8 -8 -8 -7 -5 -5 -5 -5 -4 -4 -5 -5 -5 -2
-15 -14 -15 -13 -12 -11 -11 -11 -11 -11 -10 -10 -9 -9 -9 -9 -9 -9 -9 -9 -9 -9 -9 -8 -8 -7 -7 -7 -7 -5 -5 -5 -5 -5 -4 -5 -5 -2
-15 -15 -13 -12 -11 -11 -11 -11 -10 -10 -10 -9 -9 -9 -9 -9 -9 -9 -8 -9 -8 -9 -9 -9 -8 -7 -6 -6 -6 -5 -5 -5 -5 -5 -5 -5 -5 -4
-14 -14 -12 -11 -11 -11 -10 -10 -10 -9 -9 -8 -8 -8 -8 -8 -8 -8 -8 -8 -8 -8 -9 -9 -8 -8 -6 -6 -6 -6 -5 -5 -5 -5 -5 -6 -6 -6
-15 -13 -11 -10 -10 -10 -10 -10 -9 -8 -8 -8 -8 -8 -8 -8 -8 -8 -8 -8 -8 -8 -9 -9 -8 -9 -7 -6 -6 -6 -5 -5 -5 -5 -5 -5 -5 -5

GFSNE_850_dewp_018.txt.gz
Dewpoint
-20 -20 -21 -19 -17 -16 -15 -14 -13 -11 -13 -12 -12 -13 -13 -11 -12 -9 -10 -10 -8 -8 -8 -8 -6 -6 -5 -6 -7 -7 -8 -7 -6 -5 -4 -4 -3 -2
-20 -20 -20 -18 -17 -15 -14 -13 -12 -12 -9 -13 -12 -11 -10 -12 -13 -11 -11 -9 -9 -8 -8 -7 -7 -8 -7 -8 -9 -9 -8 -8 -6 -5 -5 -4 -4 -3
-19 -19 -19 -17 -16 -14 -12 -11 -11 -10 -9 -12 -11 -12 -13 -11 -11 -10 -9 -8 -9 -8 -8 -8 -8 -10 -10 -9 -8 -7 -7 -6 -6 -6 -6 -5 -5 -4
-19 -19 -18 -16 -14 -13 -11 -11 -10 -10 -8 -9 -11 -11 -11 -11 -11 -9 -8 -9 -12 -13 -11 -11 -10 -10 -10 -9 -8 -8 -7 -7 -7 -7 -6 -6 -6 -5
-19 -18 -16 -15 -15 -14 -11 -9 -9 -8 -9 -9 -10 -11 -11 -8 -9 -11 -12 -13 -12 -12 -11 -11 -10 -10 -9 -9 -9 -8 -8 -8 -7 -8 -7 -6 -6 -6
-18 -18 -18 -16 -15 -10 -9 -9 -9 -10 -11 -9 -9 -8 -8 -11 -12 -13 -12 -12 -11 -10 -10 -10 -10 -10 -10 -10 -10 -10 -9 -9 -9 -8 -8 -8 -7 -7
-18 -18 -15 -14 -12 -9 -9 -9 -9 -9 -8 -8 -9 -10 -10 -12 -12 -12 -10 -10 -10 -10 -11 -12 -12 -11 -12 -12 -11 -11 -10 -9 -9 -9 -8 -7 -7 -7
-16 -13 -13 -11 -11 -10 -10 -9 -9 -8 -9 -9 -10 -10 -11 -12 -11 -10 -10 -10 -11 -11 -11 -12 -11 -11 -13 -13 -12 -10 -9 -9 -9 -8 -8 -7 -7 -7
-13 -12 -11 -11 -12 -12 -11 -9 -8 -10 -11 -10 -12 -12 -11 -10 -10 -11 -11 -11 -11 -11 -11 -12 -12 -12 -13 -13 -12 -10 -9 -9 -8 -8 -8 -8 -7 -7
-12 -11 -10 -11 -10 -10 -9 -8 -11 -12 -13 -13 -11 -11 -10 -10 -10 -10 -11 -11 -11 -11 -11 -11 -12 -12 -12 -13 -13 -12 -10 -9 -9 -8 -8 -8 -7 -7
-10 -9 -10 -10 -10 -9 -9 -9 -11 -13 -14 -11 -10 -10 -12 -12 -11 -11 -11 -11 -11 -12 -12 -11 -12 -11 -12 -13 -13 -12 -9 -9 -8 -8 -8 -8 -7 -7
-9 -10 -11 -10 -10 -9 -10 -10 -11 -13 -10 -10 -13 -13 -13 -13 -12 -11 -11 -12 -12 -12 -13 -11 -12 -11 -11 -11 -11 -11 -11 -9 -8 -9 -8 -8 -7 -7
-11 -11 -12 -10 -9 -10 -10 -11 -12 -10 -11 -12 -13 -13 -12 -12 -11 -11 -11 -11 -12 -12 -11 -11 -11 -11 -11 -11 -11 -10 -8 -8 -7 -7 -6 -6 -6 -7
-10 -11 -11 -10 -11 -11 -12 -11 -10 -11 -12 -12 -12 -12 -12 -11 -11 -11 -10 -10 -10 -10 -9 -9 -10 -10 -10 -10 -10 -9 -7 -7 -6 -5 -6 -6 -5 -5
-11 -10 -11 -11 -15 -16 -14 -12 -12 -12 -12 -12 -12 -11 -11 -10 -10 -10 -10 -10 -10 -10 -9 -9 -9 -9 -9 -9 -9 -7 -7 -7 -6 -6 -5 -5 -5 -5
-11 -11 -14 -16 -16 -14 -13 -13 -12 -12 -12 -11 -11 -11 -10 -10 -10 -10 -10 -10 -10 -10 -10 -9 -8 -8 -8 -6 -6 -6 -6 -7 -6 -6 -5 -5 -5 -5
-11 -13 -16 -16 -14 -13 -12 -12 -12 -11 -11 -11 -10 -10 -10 -10 -10 -10 -10 -9 -10 -9 -10 -9 -8 -7 -6 -6 -6 -6 -6 -6 -6 -5 -5 -5 -5 -5
-13 -15 -16 -15 -13 -12 -12 -12 -11 -11 -10 -10 -10 -9 -10 -10 -10 -9 -9 -9 -9 -9 -9 -9 -8 -8 -9 -8 -6 -6 -6 -6 -6 -6 -5 -5 -5 -2
-16 -15 -15 -14 -12 -11 -11 -11 -11 -10 -10 -10 -9 -9 -10 -9 -9 -9 -9 -9 -9 -9 -9 -9 -8 -8 -8 -8 -8 -5 -6 -6 -6 -6 -5 -5 -4 -0
-15 -15 -15 -12 -11 -11 -11 -11 -10 -10 -9 -9 -9 -9 -9 -9 -9 -9 -9 -9 -9 -9 -9 -9 -8 -8 -8 -7 -7 -5 -5 -6 -6 -6 -6 -5 -3 -0
-15 -15 -14 -12 -11 -11 -10 -10 -10 -9 -9 -9 -9 -9 -9 -9 -9 -8 -8 -8 -8 -8 -9 -9 -8 -8 -7 -7 -6 -6 -5 -5 -6 -6 -6 -5 -4 -2
-15 -15 -12 -11 -11 -10 -10 -9 -9 -8 -8 -9 -9 -9 -8 -8 -8 -8 -8 -8 -8 -8 -9 -8 -8 -8 -8 -7 -6 -5 -5 -5 -5 -5 -5 -6 -6 -5
-15 -14 -12 -11 -10 -10 -9 -9 -8 -8 -8 -8 -8 -8 -8 -8 -8 -8 -8 -8 -8 -8 -8 -8 -8 -8 -8 -7 -6 -6 -5 -5 -5 -6 -5 -5 -5 -5

GFSNE_850_dewp_021.txt.gz
Dewpoint
-17 -18 -18 -18 -18 -18 -16 -15 -12 -11 -12 -13 -11 -11 -10 -9 -9 -9 -9 -9 -8 -8 -8 -8 -8 -8 -6 -6 -5 -6 -5 -5 -5 -5 -5 -5 -4 -3
-17 -17 -18 -18 -18 -18 -16 -14 -13 -10 -9 -12 -12 -10 -9 -9 -10 -9 -9 -9 -9 -8 -8 -8 -8 -7 -8 -7 -6 -7 -8 -7 -6 -6 -6 -6 -5 -4
-17 -18 -19 -19 -19 -19 -18 -16 -13 -11 -10 -14 -10 -11 -9 -9 -9 -8 -8 -8 -9 -9 -9 -9 -9 -9 -9 -9 -8 -8 -8 -7 -7 -7 -6 -5 -4 -4
-18 -19 -21 -21 -22 -21 -18 -17 -13 -11 -9 -10 -10 -10 -9 -9 -8 -8 -9 -10 -11 -12 -11 -10 -9 -9 -9 -8 -8 -8 -8 -7 -7 -7 -7 -6 -6 -5
-20 -21 -21 -20 -18 -17 -15 -11 -10 -9 -9 -9 -10 -10 -9 -8 -9 -10 -12 -12 -12 -11 -10 -10 -9 -9 -8 -8 -8 -9 -8 -8 -8 -8 -7 -7 -7 -6
-22 -20 -19 -16 -15 -13 -10 -9 -8 -9 -9 -9 -8 -9 -9 -11 -12 -12 -11 -11 -10 -10 -11 -10 -9 -9 -9 -9 -9 -9 -9 -9 -9 -8 -8 -7 -7 -7
-21 -19 -16 -14 -13 -9 -9 -9 -9 -9 -10 -8 -9 -9 -10 -11 -12 -11 -10 -10 -10 -10 -11 -10 -11 -11 -11 -10 -10 -9 -9 -9 -9 -8 -8 -8 -8 -7
-18 -17 -14 -12 -12 -9 -9 -9 -9 -9 -8 -9 -9 -10 -11 -11 -11 -10 -10 -10 -10 -10 -10 -10 -10 -11 -11 -12 -10 -10 -9 -9 -8 -8 -8 -8 -7 -7
-17 -14 -12 -11 -11 -11 -11 -9 -8 -9 -9 -10 -11 -11 -10 -10 -9 -10 -10 -10 -10 -10 -10 -11 -12 -11 -12 -12 -11 -10 -9 -9 -8 -8 -8 -8 -7 -7
-14 -12 -10 -10 -10 -9 -9 -9 -9 -11 -10 -11 -10 -10 -10 -10 -10 -10 -11 -11 -11 -11 -10 -11 -11 -11 -12 -12 -13 -11 -9 -9 -9 -8 -8 -8 -8 -7
-12 -11 -10 -9 -9 -9 -9 -10 -10 -10 -13 -11 -10 -10 -11 -12 -11 -11 -11 -11 -11 -11 -12 -11 -10 -11 -11 -12 -12 -10 -9 -9 -8 -8 -8 -7 -7 -7
-9 -9 -10 -10 -9 -9 -10 -10 -10 -12 -10 -10 -11 -13 -13 -12 -12 -10 -11 -11 -12 -12 -12 -11 -11 -11 -11 -11 -11 -10 -8 -7 -7 -7 -8 -8 -8 -7
-9 -9 -10 -10 -9 -10 -10 -11 -12 -10 -10 -12 -12 -12 -12 -11 -11 -10 -10 -11 -11 -12 -11 -11 -11 -11 -11 -10 -10 -9 -8 -6 -6 -6 -6 -5 -6 -6
-9 -10 -10 -10 -11 -11 -12 -12 -11 -11 -12 -12 -12 -11 -11 -10 -10 -10 -10 -10 -10 -10 -9 -9 -10 -10 -10 -10 -9 -8 -7 -7 -6 -6 -6 -6 -6 -5
-10 -10 -10 -12 -16 -16 -13 -12 -12 -12 -11 -11 -11 -11 -10 -10 -10 -10 -10 -10 -10 -10 -9 -9 -9 -9 -9 -9 -9 -7 -6 -6 -7 -6 -6 -6 -6 -6
-11 -11 -15 -16 -17 -13 -13 -12 -12 -11 -11 -11 -10 -10 -10 -10 -10 -10 -10 -9 -9 -10 -10 -9 -8 -8 -8 -8 -7 -7 -7 -7 -7 -6 -6 -6 -5 -5
-11 -14 -16 -17 -14 -13 -12 -12 -11 -11 -10 -10 -10 -10 -9 -9 -10 -10 -9 -9 -9 -9 -10 -10 -9 -8 -9 -9 -8 -7 -6 -6 -6 -6 -6 -5 -5 -4
-13 -16 -16 -16 -13 -12 -11 -11 -11 -10 -10 -9 -9 -9 -9 -10 -10 -10 -9 -9 -9 -9 -9 -9 -9 -9 -9 -9 -8 -6 -6 -6 -6 -6 -6 -5 -3 -2
-16 -16 -16 -15 -12 -11 -11 -11 -10 -10 -9 -9 -9 -10 -10 -10 -10 -9 -9 -9 -9 -9 -9 -9 -8 -8 -8 -7 -9 -6 -6 -6 -6 -6 -6 -5 -4 -2
-16 -16 -16 -13 -12 -11 -10 -10 -10 -9 -9 -9 -9 -9 -9 -10 -9 -9 -9 -9 -9 -9 -9 -9 -8 -8 -8 -8 -7 -7 -5 -5 -6 -6 -6 -4 -3 -1
-15 -16 -14 -12 -11 -10 -10 -9 -9 -9 -9 -9 -9 -9 -8 -9 -9 -9 -8 -8 -8 -8 -8 -8 -8 -8 -8 -7 -7 -6 -6 -5 -5 -6 -6 -5 -4 -2
-15 -16 -12 -11 -10 -10 -9 -9 -9 -8 -8 -9 -9 -8 -8 -8 -8 -8 -8 -8 -8 -8 -8 -9 -8 -8 -8 -8 -7 -6 -6 -6 -5 -5 -5 -5 -5 -5
-15 -14 -11 -10 -10 -9 -9 -9 -8 -8 -8 -8 -8 -8 -8 -8 -8 -8 -8 -8 -8 -8 -9 -9 -9 -8 -8 -9 -8 -7 -6 -6 -6 -6 -5 -5 -5 -5

GFSNE_850_dewp_024.txt.gz
Dewpoint
-15 -15 -16 -16 -16 -14 -12 -11 -11 -12 -13 -13 -14 -13 -12 -11 -10 -10 -9 -9 -8 -8 -7 -7 -7 -7 -7 -7 -6 -6 -5 -5 -5 -4 -4 -3 -3 -3
-15 -15 -16 -15 -17 -15 -12 -11 -11 -11 -11 -13 -12 -12 -11 -10 -10 -9 -9 -9 -9 -8 -8 -8 -8 -8 -8 -8 -7 -7 -7 -6 -6 -5 -5 -5 -5 -6
-15 -16 -17 -18 -18 -14 -12 -11 -11 -11 -11 -12 -11 -10 -10 -10 -10 -9 -9 -9 -10 -10 -10 -9 -9 -8 -8 -7 -7 -7 -6 -6 -6 -6 -5 -5 -5 -5
-16 -18 -19 -16 -18 -14 -12 -11 -11 -10 -10 -10 -9 -9 -10 -9 -9 -9 -10 -11 -12 -12 -10 -9 -8 -8 -8 -7 -7 -7 -7 -7 -7 -6 -6 -6 -5 -5
-18 -19 -19 -17 -14 -11 -11 -10 -9 -9 -9 -8 -9 -10 -9 -8 -8 -10 -11 -12 -11 -11 -10 -9 -9 -8 -8 -7 -7 -7 -7 -7 -7 -7 -7 -7 -7 -6
-19 -19 -16 -14 -11 -10 -9 -9 -10 -9 -9 -9 -9 -9 -7 -9 -10 -12 -12 -11 -10 -10 -10 -9 -9 -9 -8 -8 -8 -8 -8 -8 -8 -8 -7 -7 -7 -7
-16 -13 -12 -13 -16 -10 -8 -9 -9 -9 -9 -10 -8 -7 -9 -11 -12 -11 -10 -10 -10 -9 -10 -10 -10 -10 -10 -9 -9 -9 -8 -8 -8 -8 -8 -7 -7 -7
-13 -13 -11 -10 -10 -9 -9 -9 -9 -8 -8 -8 -8 -9 -11 -12 -11 -10 -10 -9 -9 -10 -10 -10 -9 -10 -10 -10 -9 -9 -8 -8 -8 -8 -7 -7 -7 -7
-12 -11 -10 -10 -9 -9 -9 -9 -9 -8 -8 -9 -9 -11 -11 -11 -11 -10 -9 -10 -9 -10 -9 -10 -10 -10 -10 -11 -10 -8 -8 -8 -8 -8 -8 -7 -7 -7
-10 -10 -10 -9 -10 -9 -9 -9 -8 -9 -10 -10 -11 -10 -10 -10 -9 -10 -10 -10 -10 -10 -9 -10 -11 -10 -10 -11 -12 -11 -9 -8 -7 -7 -7 -7 -7 -7
-10 -10 -10 -10 -9 -9 -9 -9 -10 -11 -11 -11 -10 -9 -9 -9 -10 -10 -10 -10 -10 -10 -11 -10 -9 -10 -10 -12 -11 -10 -9 -8 -7 -7 -7 -7 -7 -7
-10 -10 -10 -9 -10 -9 -9 -10 -11 -11 -11 -10 -10 -11 -11 -10 -10 -10 -10 -11 -10 -11 -10 -10 -10 -10 -10 -10 -10 -10 -9 -8 -7 -7 -6 -6 -6 -6
-10 -11 -10 -10 -10 -10 -10 -10 -11 -10 -10 -10 -11 -11 -10 -10 -10 -10 -10 -10 -11 -11 -10 -10 -10 -10 -10 -10 -10 -9 -8 -8 -7 -7 -7 -6 -6 -6
-10 -10 -10 -10 -10 -11 -12 -12 -10 -10 -10 -11 -11 -11 -10 -10 -10 -10 -10 -10 -10 -10 -10 -9 -10 -10 -10 -10 -9 -9 -9 -8 -7 -7 -6 -6 -7 -6
-10 -10 -10 -10 -14 -17 -14 -12 -11 -11 -11 -11 -11 -11 -10 -10 -10 -10 -10 -10 -10 -10 -10 -10 -9 -9 -9 -10 -9 -8 -8 -7 -7 -6 -6 -6 -6 -6
-10 -10 -11 -15 -15 -13 -12 -11 -11 -11 -11 -11 -11 -10 -10 -10 -10 -10 -10 -10 -10 -10 -10 -10 -9 -9 -9 -9 -8 -8 -8 -7 -6 -6 -6 -6 -6 -5
-10 -11 -13 -13 -13 -12 -11 -11 -11 -11 -11 -10 -10 -10 -10 -10 -10 -10 -10 -9 -9 -9 -9 -10 -9 -8 -8 -8 -8 -9 -7 -6 -6 -6 -6 -6 -6 -4
-12 -13 -13 -12 -12 -12 -11 -11 -10 -10 -10 -9 -9 -10 -10 -10 -10 -10 -9 -9 -9 -9 -9 -9 -9 -8 -8 -8 -8 -7 -7 -6 -6 -6 -6 -6 -5 -3
-14 -12 -12 -12 -12 -12 -11 -10 -10 -9 -9 -9 -9 -10 -10 -10 -10 -9 -9 -9 -9 -9 -9 -9 -8 -8 -8 -8 -10 -9 -7 -6 -6 -6 -6 -6 -5 -4
-13 -13 -13 -13 -12 -11 -10 -10 -10 -9 -9 -9 -9 -9 -9 -9 -9 -9 -9 -8 -9 -9 -9 -8 -8 -8 -8 -8 -7 -9 -7 -6 -6 -6 -6 -6 -4 -2
-13 -14 -15 -12 -11 -10 -10 -10 -9 -9 -9 -9 -9 -9 -8 -9 -9 -8 -8 -8 -9 -8 -9 -9 -9 -8 -8 -8 -7 -7 -7 -6 -6 -6 -6 -5 -5 -5
-14 -15 -14 -11 -10 -10 -10 -9 -9 -8 -8 -8 -8 -8 -8 -8 -8 -8 -8 -8 -8 -8 -8 -8 -8 -7 -7 -7 -7 -7 -6 -7 -7 -5 -5 -5 -5 -6
-15 -15 -11 -10 -10 -10 -9 -9 -8 -8 -8 -8 -8 -8 -8 -8 -8 -8 -8 -8 -8 -8 -8 -8 -8 -8 -8 -7 -7 -7 -6 -7 -6 -6 -5 -5 -4 -5

GFSNE_850_dewp_027.txt.gz
Dewpoint
-15 -15 -14 -14 -13 -13 -13 -12 -10 -10 -10 -12 -13 -13 -13 -12 -11 -10 -10 -10 -8 -8 -7 -7 -7 -7 -7 -7 -6 -6 -6 -5 -5 -4 -4 -4 -4 -4
-15 -15 -14 -14 -14 -15 -14 -11 -11 -11 -10 -11 -12 -12 -11 -10 -10 -9 -10 -9 -8 -9 -8 -8 -8 -8 -8 -7 -6 -6 -6 -5 -5 -5 -4 -4 -4 -4
-14 -13 -14 -15 -15 -15 -15 -13 -12 -11 -11 -11 -10 -9 -9 -9 -9 -9 -9 -10 -10 -10 -10 -9 -8 -8 -7 -7 -6 -6 -6 -6 -5 -5 -5 -5 -4 -4
-13 -13 -15 -14 -14 -14 -12 -11 -11 -11 -10 -9 -9 -9 -9 -9 -9 -8 -9 -8 -11 -11 -10 -9 -8 -8 -7 -7 -7 -6 -6 -6 -6 -6 -6 -5 -5 -5
-13 -14 -14 -13 -12 -12 -11 -10 -9 -9 -9 -9 -9 -9 -9 -9 -8 -8 -10 -10 -11 -11 -10 -9 -9 -8 -7 -7 -7 -7 -7 -7 -6 -6 -6 -6 -6 -6
-13 -12 -12 -12 -11 -11 -10 -9 -9 -9 -9 -9 -9 -10 -8 -8 -8 -10 -11 -11 -10 -10 -10 -10 -9 -9 -8 -8 -8 -7 -7 -7 -7 -6 -7 -6 -7 -6
-14 -13 -11 -11 -11 -9 -8 -8 -9 -9 -9 -10 -8 -8 -7 -9 -10 -11 -10 -9 -11 -10 -8 -13 -9 -11 -11 -9 -9 -8 -8 -7 -7 -7 -6 -6 -6 -6
-13 -13 -12 -11 -10 -10 -8 -9 -9 -9 -8 -8 -8 -8 -9 -9 -10 -10 -11 -9 -8 -10 -9 -11 -11 -11 -10 -11 -9 -8 -7 -7 -7 -6 -6 -6 -6 -6
-14 -11 -10 -10 -10 -9 -9 -9 -9 -9 -8 -8 -9 -9 -10 -10 -11 -10 -9 -9 -9 -11 -10 -10 -12 -11 -11 -11 -10 -8 -7 -8 -8 -6 -6 -6 -6 -6
-11 -10 -10 -10 -10 -9 -9 -9 -10 -11 -11 -10 -10 -10 -11 -10 -9 -8 -9 -10 -11 -11 -9 -9 -11 -11 -10 -10 -12 -12 -11 -8 -7 -6 -6 -6 -6 -6
-11 -11 -10 -10 -10 -9 -9 -10 -10 -10 -11 -11 -10 -9 -8 -8 -9 -10 -11 -10 -10 -11 -10 -10 -10 -9 -11 -11 -12 -11 -10 -9 -10 -8 -7 -6 -6 -6
-11 -11 -10 -10 -9 -9 -9 -9 -10 -11 -11 -11 -10 -11 -10 -11 -9 -10 -10 -10 -10 -10 -10 -10 -10 -10 -10 -11 -10 -11 -11 -10 -9 -9 -8 -6 -6 -6
-10 -10 -10 -10 -9 -9 -9 -10 -10 -10 -10 -10 -11 -11 -11 -10 -10 -10 -10 -10 -11 -11 -11 -10 -11 -11 -11 -10 -10 -11 -10 -10 -9 -9 -8 -7 -6 -6
-10 -10 -10 -9 -9 -10 -10 -10 -10 -9 -10 -11 -11 -11 -10 -10 -10 -10 -10 -10 -10 -10 -10 -9 -11 -10 -10 -10 -10 -10 -10 -10 -9 -8 -7 -7 -6 -6
-10 -9 -10 -10 -10 -11 -12 -10 -10 -11 -11 -11 -11 -10 -10 -10 -10 -10 -10 -10 -10 -10 -10 -10 -9 -10 -10 -10 -10 -10 -9 -9 -9 -7 -6 -6 -6 -6
-11 -11 -11 -11 -12 -12 -12 -12 -11 -11 -11 -11 -11 -10 -10 -10 -10 -10 -10 -10 -10 -10 -10 -10 -9 -9 -9 -9 -8 -8 -8 -8 -7 -6 -6 -7 -7 -6
-10 -12 -14 -13 -13 -13 -12 -11 -11 -11 -11 -10 -10 -10 -10 -10 -10 -10 -10 -10 -11 -10 -10 -10 -9 -9 -9 -8 -8 -8 -7 -7 -8 -6 -6 -7 -7 -7
-11 -13 -13 -13 -12 -12 -12 -11 -11 -10 -10 -10 -9 -10 -10 -10 -10 -9 -9 -9 -10 -9 -9 -9 -9 -9 -9 -8 -8 -7 -8 -8 -7 -7 -6 -6 -6 -7
-14 -13 -13 -12 -12 -12 -11 -11 -10 -10 -9 -9 -9 -9 -9 -9 -9 -9 -9 -9 -9 -9 -9 -9 -9 -9 -8 -8 -9 -8 -8 -7 -7 -6 -6 -6 -6 -7
-13 -12 -12 -13 -13 -11 -11 -10 -10 -9 -9 -9 -9 -9 -9 -9 -9 -9 -9 -9 -9 -9 -9 -9 -8 -8 -8 -8 -8 -9 -9 -7 -7 -6 -7 -6 -5 -5
-13 -13 -14 -13 -11 -11 -10 -10 -10 -9 -9 -9 -9 -9 -8 -9 -8 -8 -8 -8 -9 -8 -8 -8 -8 -8 -8 -8 -7 -7 -8 -6 -6 -6 -6 -6 -5 -6
-13 -14 -15 -12 -10 -10 -10 -10 -9 -9 -9 -9 -8 -8 -8 -8 -8 -8 -8 -8 -8 -8 -8 -8 -8 -8 -7 -7 -7 -7 -7 -7 -7 -6 -5 -5 -5 -5
-15 -16 -13 -10 -10 -10 -9 -9 -9 -8 -8 -8 -8 -8 -8 -8 -8 -8 -8 -8 -8 -8 -8 -8 -8 -8 -8 -7 -7 -7 -7 -7 -6 -6 -6 -5 -5 -5

GFSNE_850_dewp_033.txt.gz
Dewpoint
-3 -4 -8 -13 -15 -15 -13 -13 -13 -12 -13 -17 -16 -17 -18 -18 -17 -14 -11 -12 -11 -8 -7 -7 -6 -6 -6 -6 -6 -5 -5 -4 -4 -4 -4 -3 -3 -3
-4 -7 -11 -15 -14 -13 -13 -14 -15 -14 -12 -16 -17 -16 -16 -17 -14 -12 -11 -13 -13 -13 -7 -6 -7 -6 -6 -7 -6 -6 -5 -5 -4 -4 -4 -4 -3 -3
-7 -11 -14 -14 -13 -13 -14 -16 -16 -16 -14 -14 -15 -15 -13 -13 -14 -14 -13 -12 -12 -12 -8 -7 -7 -7 -7 -7 -6 -6 -6 -5 -5 -5 -4 -4 -4 -4
-10 -14 -14 -13 -13 -14 -15 -16 -16 -15 -13 -12 -12 -12 -11 -12 -12 -12 -11 -11 -13 -13 -10 -8 -8 -8 -7 -7 -6 -6 -6 -6 -5 -5 -5 -5 -4 -4
-14 -13 -13 -14 -15 -16 -15 -15 -14 -12 -11 -10 -9 -9 -10 -11 -11 -10 -9 -12 -12 -13 -10 -11 -11 -11 -8 -7 -7 -7 -7 -7 -7 -6 -6 -5 -5 -5
-14 -14 -16 -17 -17 -15 -14 -12 -10 -9 -9 -8 -8 -9 -10 -10 -9 -9 -11 -12 -12 -12 -12 -11 -12 -12 -11 -12 -12 -12 -12 -8 -7 -7 -6 -6 -6 -5
-15 -18 -21 -20 -15 -14 -11 -9 -9 -8 -8 -8 -9 -9 -9 -9 -10 -11 -10 -11 -11 -11 -11 -10 -11 -12 -14 -14 -13 -12 -12 -8 -7 -6 -6 -6 -6 -6
-20 -22 -22 -19 -17 -15 -12 -9 -8 -8 -8 -9 -8 -9 -9 -10 -11 -10 -10 -10 -9 -10 -9 -10 -12 -12 -13 -12 -12 -10 -9 -8 -8 -7 -7 -6 -6 -6
-22 -23 -23 -19 -14 -12 -12 -10 -9 -9 -8 -8 -9 -10 -10 -10 -10 -10 -9 -8 -9 -10 -11 -10 -11 -11 -12 -12 -12 -12 -12 -9 -8 -7 -7 -6 -6 -6
-23 -25 -23 -17 -14 -12 -10 -9 -8 -8 -10 -10 -9 -9 -9 -9 -9 -9 -9 -9 -10 -11 -11 -10 -11 -11 -11 -12 -12 -12 -12 -11 -8 -8 -7 -7 -7 -6
-25 -26 -20 -17 -14 -9 -9 -9 -9 -9 -9 -10 -12 -9 -9 -9 -10 -10 -10 -10 -10 -10 -11 -10 -11 -11 -11 -12 -12 -12 -11 -10 -10 -11 -9 -8 -7 -7
-22 -21 -20 -13 -9 -9 -8 -8 -9 -10 -11 -11 -10 -11 -12 -12 -11 -10 -10 -10 -10 -11 -11 -10 -11 -11 -10 -11 -11 -11 -11 -11 -11 -11 -10 -9 -8 -7
-15 -18 -16 -14 -9 -9 -9 -9 -10 -10 -10 -10 -11 -12 -11 -11 -11 -10 -10 -10 -10 -10 -10 -10 -11 -11 -11 -11 -11 -11 -11 -11 -11 -11 -11 -10 -9 -8
-17 -18 -14 -10 -9 -10 -10 -11 -10 -10 -11 -12 -11 -11 -11 -10 -10 -10 -10 -10 -10 -10 -10 -10 -11 -10 -11 -11 -11 -11 -10 -11 -10 -10 -10 -10 -10 -9
-18 -11 -9 -10 -11 -17 -16 -12 -13 -13 -12 -11 -11 -11 -10 -10 -10 -10 -10 -10 -10 -10 -10 -9 -9 -9 -10 -10 -10 -10 -10 -10 -10 -10 -10 -9 -8 -8
-11 -9 -10 -13 -17 -17 -17 -14 -12 -11 -11 -10 -10 -10 -10 -10 -10 -10 -10 -10 -10 -10 -10 -9 -9 -9 -9 -9 -9 -9 -10 -9 -10 -10 -9 -8 -8 -9
-9 -11 -16 -18 -18 -17 -15 -12 -11 -11 -10 -10 -9 -10 -10 -10 -10 -10 -9 -9 -10 -9 -10 -10 -10 -9 -9 -9 -9 -10 -10 -10 -9 -9 -8 -8 -8 -8
-12 -16 -16 -16 -16 -15 -12 -11 -11 -10 -10 -9 -9 -9 -9 -9 -10 -10 -9 -9 -10 -10 -10 -10 -9 -9 -10 -9 -9 -9 -9 -9 -8 -7 -8 -8 -8 -7
-16 -16 -16 -16 -16 -13 -11 -11 -10 -10 -9 -9 -9 -9 -9 -10 -10 -10 -10 -9 -9 -9 -10 -9 -9 -9 -9 -9 -10 -8 -8 -8 -7 -8 -8 -7 -7 -7
-16 -16 -16 -16 -13 -11 -11 -10 -10 -10 -9 -9 -9 -9 -9 -9 -10 -10 -9 -9 -9 -10 -9 -9 -9 -8 -8 -8 -8 -9 -8 -8 -7 -7 -7 -7 -7 -6
-16 -17 -16 -13 -11 -10 -10 -10 -10 -9 -9 -9 -9 -9 -9 -9 -10 -9 -9 -9 -9 -9 -9 -9 -9 -8 -8 -8 -8 -8 -8 -8 -7 -7 -7 -7 -6 -6
-16 -16 -12 -11 -10 -10 -10 -9 -9 -9 -8 -9 -9 -9 -9 -9 -9 -9 -9 -9 -9 -9 -9 -9 -8 -8 -8 -8 -8 -8 -7 -8 -8 -8 -6 -6 -6 -6
-16 -12 -11 -10 -10 -9 -9 -9 -9 -8 -8 -8 -9 -9 -9 -9 -9 -9 -9 -9 -9 -9 -8 -8 -8 -8 -8 -8 -8 -7 -7 -7 -7 -6 -6 -6 -6 -6

GFSNE_850_dewp_036.txt.gz
Dewpoint
-2 -2 -3 -6 -9 -13 -14 -14 -13 -12 -13 -15 -18 -18 -18 -19 -20 -20 -19 -19 -19 -15 -11 -8 -6 -6 -6 -6 -6 -5 -5 -4 -4 -4 -3 -3 -3 -3
-3 -3 -5 -9 -12 -14 -14 -13 -13 -13 -12 -15 -17 -17 -18 -18 -18 -17 -16 -16 -17 -16 -13 -7 -7 -7 -6 -6 -5 -5 -5 -5 -4 -4 -4 -3 -3 -3
-4 -5 -7 -11 -14 -13 -13 -14 -14 -15 -14 -15 -16 -16 -15 -17 -18 -17 -17 -16 -16 -15 -15 -7 -7 -7 -7 -7 -7 -6 -6 -5 -5 -5 -4 -4 -4 -3
-7 -9 -12 -13 -13 -13 -14 -15 -16 -16 -15 -14 -12 -12 -13 -14 -14 -15 -15 -16 -16 -16 -14 -8 -7 -7 -7 -7 -6 -6 -6 -6 -6 -6 -6 -5 -5 -5
-11 -11 -8 -9 -12 -15 -17 -17 -16 -15 -13 -10 -9 -10 -10 -12 -12 -13 -14 -16 -15 -14 -13 -13 -12 -11 -8 -7 -7 -6 -7 -7 -7 -7 -7 -6 -5 -5
-3 -1 -2 -13 -17 -19 -17 -16 -14 -11 -9 -9 -9 -9 -9 -11 -12 -11 -12 -14 -13 -13 -12 -12 -12 -11 -12 -11 -11 -13 -13 -13 -10 -7 -7 -6 -6 -6
-1 -9 -17 -20 -21 -18 -15 -13 -10 -9 -9 -9 -8 -8 -9 -10 -11 -12 -12 -12 -11 -11 -12 -11 -12 -12 -12 -12 -12 -12 -12 -12 -8 -7 -7 -6 -6 -6
-13 -19 -22 -21 -20 -18 -15 -9 -9 -8 -8 -8 -8 -8 -9 -10 -11 -11 -10 -9 -9 -11 -11 -10 -11 -11 -11 -12 -12 -12 -12 -8 -8 -7 -7 -7 -7 -6
-20 -22 -22 -22 -21 -18 -15 -14 -12 -9 -8 -8 -8 -9 -10 -11 -10 -9 -9 -9 -9 -11 -11 -10 -11 -11 -12 -12 -12 -12 -12 -10 -8 -8 -7 -7 -7 -6
-21 -22 -23 -22 -21 -19 -14 -9 -9 -9 -9 -9 -10 -10 -10 -10 -9 -9 -9 -10 -11 -11 -11 -10 -11 -11 -11 -12 -12 -13 -13 -12 -12 -8 -7 -7 -7 -7
-22 -21 -20 -21 -22 -13 -9 -8 -8 -9 -10 -11 -11 -9 -9 -9 -9 -10 -11 -10 -10 -11 -11 -10 -11 -10 -11 -12 -12 -12 -12 -11 -11 -11 -9 -8 -8 -7
-21 -21 -23 -25 -17 -9 -8 -8 -9 -10 -11 -10 -10 -11 -11 -12 -11 -11 -10 -10 -10 -11 -11 -10 -10 -11 -10 -11 -11 -11 -11 -11 -11 -11 -11 -10 -9 -8
-19 -24 -25 -20 -10 -8 -9 -9 -10 -10 -9 -10 -12 -12 -12 -11 -11 -10 -10 -10 -10 -10 -10 -10 -11 -11 -11 -10 -10 -11 -11 -11 -11 -11 -11 -11 -10 -9
-23 -22 -16 -10 -9 -10 -12 -16 -10 -10 -13 -12 -11 -11 -11 -11 -10 -10 -10 -10 -10 -10 -10 -10 -10 -10 -10 -11 -11 -10 -10 -10 -10 -11 -11 -11 -10 -10
-16 -11 -9 -10 -12 -15 -18 -17 -16 -13 -12 -11 -11 -10 -10 -10 -10 -10 -10 -10 -10 -10 -10 -10 -9 -9 -10 -10 -10 -9 -10 -10 -10 -10 -11 -10 -9 -9
-11 -10 -10 -12 -16 -17 -17 -15 -12 -11 -11 -10 -10 -10 -10 -10 -10 -10 -10 -10 -10 -11 -11 -10 -10 -10 -9 -9 -9 -10 -10 -10 -10 -10 -10 -9 -9 -8
-9 -11 -15 -18 -18 -18 -15 -12 -11 -11 -10 -10 -9 -10 -9 -9 -10 -10 -10 -10 -10 -10 -10 -11 -10 -10 -9 -9 -9 -9 -10 -10 -10 -9 -8 -8 -8 -8
-13 -16 -17 -17 -17 -16 -12 -11 -11 -10 -10 -9 -9 -9 -9 -10 -10 -10 -10 -10 -10 -10 -10 -10 -10 -9 -10 -10 -9 -9 -10 -9 -9 -8 -8 -8 -8 -8
-17 -17 -17 -17 -16 -12 -11 -11 -10 -10 -10 -9 -9 -9 -9 -9 -9 -10 -10 -9 -9 -9 -9 -9 -9 -9 -10 -10 -10 -8 -8 -8 -8 -8 -8 -8 -7 -8
-17 -17 -17 -15 -11 -11 -10 -10 -10 -9 -9 -9 -9 -9 -9 -9 -9 -9 -9 -9 -9 -9 -9 -9 -9 -9 -9 -9 -8 -9 -9 -8 -8 -8 -8 -7 -8 -8
-17 -17 -14 -11 -11 -10 -10 -9 -9 -9 -8 -8 -9 -9 -9 -9 -9 -8 -9 -9 -9 -9 -9 -9 -9 -8 -8 -8 -8 -8 -8 -8 -7 -7 -7 -7 -7 -7
-16 -14 -11 -10 -10 -10 -9 -9 -9 -9 -8 -9 -9 -8 -8 -8 -8 -8 -8 -9 -9 -9 -9 -9 -9 -8 -8 -8 -8 -8 -8 -8 -7 -7 -6 -6 -6 -6
-13 -11 -10 -10 -10 -9 -9 -9 -9 -9 -8 -8 -8 -7 -8 -8 -8 -8 -9 -9 -9 -9 -9 -9 -9 -8 -8 -8 -8 -8 -8 -7 -7 -7 -8 -8 -7 -6

GFSNE_850_dewp_039.txt.gz
Dewpoint
-1 -2 1 -1 -5 -7 -7 -11 -13 -13 -13 -14 -15 -17 -18 -19 -19 -19 -20 -21 -20 -21 -23 -22 -15 -7 -6 -5 -5 -5 -5 -4 -4 -4 -3 -3 -3 -2
-0 2 -4 -3 -6 -9 -11 -13 -13 -13 -12 -14 -15 -18 -18 -19 -19 -18 -19 -18 -19 -20 -20 -18 -10 -7 -6 -6 -6 -5 -5 -5 -5 -4 -4 -3 -3 -3
0 2 -4 -6 -8 -11 -13 -13 -13 -13 -13 -15 -16 -17 -17 -17 -19 -19 -19 -18 -19 -20 -21 -20 -10 -7 -6 -6 -6 -6 -6 -5 -5 -4 -4 -4 -4 -3
3 1 -7 -7 -11 -11 -10 -10 -12 -15 -15 -15 -15 -15 -14 -14 -15 -14 -16 -17 -18 -20 -19 -16 -8 -7 -7 -7 -6 -6 -6 -6 -5 -5 -5 -5 -5 -4
-4 -10 -10 -8 -4 -3 -4 -13 -17 -16 -15 -13 -13 -11 -11 -11 -11 -13 -14 -16 -18 -19 -16 -14 -13 -12 -8 -7 -7 -7 -6 -7 -6 -6 -6 -6 -6 -6
-5 -6 -2 -1 -1 -7 -16 -18 -17 -15 -13 -11 -10 -10 -9 -10 -10 -11 -12 -13 -15 -13 -14 -13 -12 -12 -12 -12 -11 -12 -11 -11 -8 -7 -7 -7 -6 -6
-0 -0 -0 -6 -17 -20 -18 -16 -13 -10 -9 -10 -9 -8 -9 -9 -10 -10 -11 -13 -11 -11 -13 -12 -11 -12 -12 -12 -12 -12 -12 -13 -11 -7 -7 -6 -6 -6
-0 -8 -18 -20 -21 -20 -19 -17 -12 -9 -8 -8 -8 -8 -8 -9 -9 -11 -11 -10 -9 -10 -11 -12 -11 -12 -12 -12 -12 -12 -13 -12 -8 -8 -7 -7 -7 -7
-17 -20 -21 -21 -21 -21 -21 -20 -17 -14 -9 -8 -8 -9 -9 -10 -10 -10 -9 -9 -9 -10 -11 -11 -11 -11 -12 -12 -12 -13 -13 -13 -9 -8 -7 -7 -7 -7
-20 -20 -21 -21 -21 -23 -20 -12 -11 -9 -9 -9 -10 -10 -10 -9 -9 -9 -9 -9 -10 -11 -11 -10 -11 -11 -11 -12 -13 -13 -13 -12 -12 -9 -8 -7 -7 -7
-19 -19 -19 -19 -22 -24 -14 -9 -8 -9 -10 -11 -12 -11 -11 -9 -9 -11 -11 -11 -11 -10 -11 -10 -11 -10 -11 -12 -12 -12 -12 -11 -11 -11 -10 -8 -8 -7
-19 -19 -19 -23 -23 -11 -8 -8 -9 -11 -12 -11 -13 -14 -13 -12 -12 -11 -10 -10 -10 -10 -11 -10 -10 -11 -10 -11 -11 -11 -11 -11 -11 -11 -11 -11 -9 -8
-20 -25 -24 -20 -11 -8 -9 -10 -13 -10 -10 -13 -14 -12 -12 -11 -11 -10 -10 -10 -10 -10 -11 -11 -11 -11 -11 -11 -10 -11 -11 -11 -11 -11 -11 -11 -10 -9
-23 -20 -16 -10 -9 -10 -14 -18 -13 -11 -16 -13 -12 -11 -11 -10 -10 -10 -10 -10 -10 -10 -10 -10 -10 -10 -10 -11 -11 -10 -10 -10 -10 -11 -10 -11 -11 -10
-15 -11 -10 -11 -13 -18 -20 -20 -19 -15 -12 -11 -11 -11 -10 -10 -10 -10 -10 -11 -11 -11 -11 -10 -9 -9 -10 -10 -10 -10 -10 -10 -10 -10 -11 -10 -10 -9
-12 -11 -12 -15 -18 -19 -19 -18 -13 -11 -11 -11 -10 -10 -10 -10 -10 -10 -10 -10 -10 -11 -11 -10 -10 -9 -9 -9 -9 -10 -10 -9 -10 -11 -10 -9 -9 -8
-11 -17 -19 -19 -19 -19 -16 -12 -11 -11 -11 -10 -10 -9 -10 -10 -10 -10 -10 -10 -10 -10 -10 -10 -10 -9 -9 -9 -10 -9 -10 -10 -11 -10 -9 -8 -8 -9
-19 -19 -19 -18 -18 -16 -12 -11 -11 -10 -10 -10 -9 -9 -9 -9 -9 -9 -9 -9 -9 -9 -10 -10 -9 -9 -10 -10 -10 -10 -10 -10 -10 -9 -8 -8 -8 -8
-18 -18 -18 -18 -15 -11 -11 -10 -10 -9 -9 -9 -9 -9 -9 -9 -8 -9 -9 -9 -9 -9 -10 -10 -9 -10 -10 -10 -10 -9 -9 -9 -8 -8 -9 -8 -8 -8
-18 -17 -17 -13 -11 -11 -10 -10 -9 -9 -9 -9 -9 -9 -8 -8 -8 -8 -9 -9 -9 -9 -9 -10 -9 -9 -10 -9 -9 -9 -9 -8 -8 -8 -8 -7 -7 -8
-17 -16 -12 -11 -10 -10 -9 -9 -9 -9 -9 -8 -8 -8 -8 -8 -8 -8 -8 -9 -9 -9 -9 -9 -9 -9 -9 -9 -9 -9 -9 -7 -7 -7 -7 -7 -7 -8
-15 -12 -11 -10 -10 -9 -9 -9 -9 -9 -9 -9 -8 -8 -8 -8 -8 -8 -8 -8 -8 -8 -9 -9 -9 -9 -9 -9 -9 -8 -7 -7 -7 -7 -6 -6 -6 -7
-12 -11 -10 -10 -9 -9 -9 -9 -9 -9 -9 -9 -8 -8 -7 -8 -8 -8 -8 -9 -9 -8 -8 -8 -9 -8 -9 -8 -8 -8 -7 -7 -7 -7 -8 -7 -6 -7

GFSNE_850_dewp_042.txt.gz
Dewpoint
4 1 0 2 -4 -1 -1 -5 -4 -10 -11 -10 -12 -13 -14 -16 -17 -18 -19 -19 -21 -21 -22 -25 -25 -22 -9 -6 -6 -5 -5 -4 -4 -4 -3 -3 -3 -2
2 1 -0 -2 -3 -2 -4 -5 -10 -12 -12 -9 -10 -13 -16 -18 -18 -18 -18 -19 -20 -20 -21 -23 -22 -13 -7 -6 -6 -5 -5 -5 -4 -4 -4 -3 -3 -3
-0 -1 -2 -2 -0 -0 -5 -3 -8 -11 -11 -9 -10 -16 -17 -18 -17 -18 -20 -19 -19 -20 -22 -23 -22 -9 -6 -6 -6 -5 -5 -5 -5 -4 -4 -4 -3 -3
-1 -0 1 2 1 -1 -3 -3 -0 -2 -3 -12 -16 -17 -16 -16 -17 -19 -17 -16 -15 -19 -21 -23 -14 -9 -8 -7 -7 -6 -6 -6 -5 -5 -5 -5 -4 -4
1 2 1 0 -0 1 -0 -1 -1 -6 -14 -15 -14 -14 -13 -16 -14 -13 -13 -13 -16 -18 -21 -17 -13 -13 -13 -8 -7 -6 -6 -6 -6 -6 -6 -6 -5 -5
1 -0 0 0 -0 -1 -1 -3 -14 -16 -15 -13 -12 -11 -12 -12 -11 -10 -11 -12 -14 -16 -16 -13 -12 -13 -13 -13 -12 -12 -12 -12 -9 -7 -6 -6 -6 -6
-0 0 -0 -1 -0 -3 -13 -18 -14 -11 -10 -10 -10 -11 -10 -10 -10 -10 -10 -12 -11 -12 -13 -13 -13 -13 -13 -13 -12 -12 -12 -12 -11 -7 -7 -6 -6 -6
-1 -1 -1 -7 -17 -20 -19 -18 -17 -15 -14 -11 -11 -9 -9 -9 -9 -10 -10 -10 -10 -11 -12 -13 -12 -12 -12 -12 -12 -12 -12 -12 -10 -8 -7 -7 -7 -7
-1 -5 -17 -20 -20 -21 -21 -22 -23 -20 -13 -9 -10 -9 -9 -9 -10 -10 -10 -10 -9 -11 -11 -12 -11 -12 -12 -12 -12 -12 -12 -13 -12 -9 -7 -7 -7 -7
-18 -19 -19 -20 -20 -22 -25 -22 -16 -16 -12 -10 -10 -10 -10 -10 -9 -9 -9 -11 -11 -11 -11 -11 -11 -11 -11 -12 -12 -12 -12 -12 -12 -11 -8 -7 -7 -7
-18 -18 -19 -21 -24 -27 -21 -12 -9 -9 -10 -12 -15 -14 -14 -14 -12 -12 -11 -10 -10 -10 -11 -10 -11 -11 -11 -12 -12 -12 -12 -11 -11 -11 -11 -10 -8 -8
-19 -20 -22 -26 -24 -11 -8 -8 -9 -12 -15 -17 -18 -17 -14 -12 -11 -11 -10 -10 -10 -10 -11 -10 -11 -11 -11 -11 -11 -11 -12 -12 -12 -11 -11 -11 -11 -8
-25 -26 -22 -17 -11 -9 -9 -10 -15 -11 -11 -15 -16 -12 -12 -11 -11 -11 -10 -10 -10 -10 -11 -11 -11 -11 -12 -11 -11 -11 -11 -11 -11 -11 -11 -11 -10 -10
-21 -19 -16 -10 -10 -12 -15 -18 -12 -14 -17 -13 -12 -12 -11 -11 -10 -10 -10 -10 -10 -10 -11 -10 -10 -10 -10 -11 -11 -11 -11 -10 -11 -10 -10 -10 -11 -10
-16 -14 -12 -13 -17 -20 -20 -20 -19 -15 -12 -12 -11 -11 -10 -10 -10 -10 -10 -10 -10 -10 -10 -10 -9 -9 -10 -10 -10 -10 -10 -10 -9 -10 -10 -10 -10 -10
-17 -17 -18 -19 -20 -20 -20 -18 -13 -12 -11 -11 -10 -10 -10 -10 -10 -9 -9 -9 -9 -10 -10 -10 -9 -9 -10 -9 -9 -10 -9 -9 -10 -10 -10 -10 -9 -9
-18 -20 -20 -20 -21 -20 -15 -12 -11 -11 -10 -10 -10 -10 -9 -9 -9 -9 -9 -9 -9 -9 -10 -10 -10 -9 -10 -10 -10 -10 -10 -10 -10 -10 -9 -8 -9 -9
-21 -20 -20 -20 -19 -13 -12 -11 -11 -10 -9 -9 -9 -9 -9 -9 -9 -9 -9 -9 -9 -9 -9 -10 -10 -9 -10 -11 -10 -10 -10 -10 -10 -9 -8 -9 -8 -9
-20 -20 -19 -17 -12 -11 -11 -10 -10 -9 -9 -9 -9 -9 -8 -9 -9 -9 -9 -9 -9 -9 -10 -9 -9 -9 -10 -10 -11 -9 -9 -9 -8 -9 -9 -8 -8 -8
-19 -18 -17 -12 -11 -11 -10 -10 -9 -9 -9 -9 -9 -9 -8 -9 -8 -8 -8 -8 -9 -9 -9 -10 -9 -9 -9 -9 -9 -10 -9 -9 -8 -8 -8 -8 -8 -8
-18 -16 -12 -11 -10 -10 -10 -9 -9 -9 -9 -9 -9 -9 -8 -9 -8 -8 -9 -8 -8 -9 -9 -9 -9 -9 -9 -9 -9 -9 -9 -7 -7 -8 -7 -7 -8 -8
-16 -13 -11 -10 -10 -9 -9 -9 -9 -9 -9 -9 -9 -9 -8 -8 -8 -8 -9 -8 -9 -9 -9 -9 -9 -9 -8 -8 -9 -8 -8 -8 -7 -7 -6 -7 -7 -7
-15 -11 -11 -10 -10 -9 -9 -9 -9 -9 -9 -9 -9 -8 -8 -8 -8 -8 -9 -8 -8 -8 -8 -9 -9 -9 -8 -8 -8 -8 -8 -7 -7 -7 -7 -8 -7 -7

GFSNE_850_dewp_045.txt.gz
Dewpoint
9 8 7 3 -1 -1 -1 2 1 -4 -3 -6 -9 -10 -12 -10 -10 -13 -17 -18 -19 -20 -24 -28 -28 -27 -25 -16 -10 -5 -5 -4 -4 -4 -4 -3 -2 -2
9 8 6 3 -0 -0 1 2 -0 -4 -8 -9 -9 -8 -8 -3 -4 -14 -18 -18 -18 -21 -22 -23 -24 -22 -12 -8 -6 -6 -5 -4 -4 -4 -3 -3 -2 -3
8 6 3 -1 -0 1 1 -3 -2 -3 -3 -1 1 0 -1 -6 -13 -18 -18 -18 -19 -20 -21 -23 -23 -23 -9 -7 -6 -6 -6 -5 -5 -4 -4 -3 -3 -3
4 2 -1 -1 0 -1 -0 0 0 0 0 -0 -1 -1 -8 -17 -18 -18 -20 -19 -18 -18 -20 -24 -25 -20 -16 -12 -7 -6 -6 -6 -5 -5 -5 -5 -4 -4
-1 -2 -2 -0 1 1 0 0 -0 -1 -2 -2 -4 -14 -16 -16 -16 -18 -17 -17 -18 -20 -25 -23 -19 -15 -14 -13 -7 -7 -7 -7 -6 -6 -6 -5 -5 -5
-1 -0 1 1 1 -0 -0 -1 -2 -2 -5 -14 -14 -12 -12 -14 -15 -15 -15 -14 -15 -19 -20 -15 -13 -13 -13 -13 -13 -13 -12 -12 -11 -7 -7 -6 -6 -6
0 1 0 -0 -0 -1 -1 -2 -8 -17 -18 -12 -11 -12 -13 -15 -12 -10 -9 -11 -11 -15 -13 -14 -14 -13 -13 -13 -13 -13 -13 -13 -12 -10 -7 -6 -6 -6
0 -0 -1 -1 -1 -4 -14 -19 -18 -18 -17 -13 -12 -14 -12 -12 -9 -9 -10 -9 -9 -11 -12 -11 -10 -12 -12 -12 -12 -12 -13 -13 -12 -8 -7 -7 -7 -6
-1 -1 -1 -8 -19 -19 -19 -20 -21 -22 -17 -11 -12 -11 -9 -10 -12 -12 -10 -9 -10 -10 -11 -11 -12 -12 -12 -12 -13 -13 -13 -13 -12 -10 -8 -7 -7 -7
-5 -16 -18 -18 -18 -19 -22 -25 -23 -21 -15 -11 -10 -11 -14 -13 -10 -10 -10 -10 -11 -11 -11 -10 -12 -11 -11 -12 -13 -13 -13 -12 -12 -11 -8 -7 -7 -7
-17 -18 -18 -21 -25 -26 -21 -13 -11 -11 -12 -14 -17 -17 -15 -15 -13 -12 -11 -10 -10 -11 -11 -11 -11 -10 -11 -12 -12 -12 -12 -12 -12 -12 -11 -11 -8 -8
-20 -22 -26 -27 -25 -15 -8 -9 -10 -13 -18 -20 -20 -18 -14 -12 -11 -11 -10 -10 -10 -10 -10 -10 -11 -11 -10 -11 -11 -11 -12 -12 -11 -11 -11 -11 -11 -9
-26 -24 -21 -19 -10 -8 -9 -10 -15 -13 -16 -19 -16 -12 -12 -11 -11 -10 -10 -10 -10 -10 -10 -10 -10 -10 -11 -10 -11 -11 -11 -11 -11 -11 -10 -10 -10 -10
-20 -18 -16 -13 -13 -16 -19 -20 -20 -19 -18 -13 -12 -12 -11 -11 -11 -10 -10 -10 -9 -9 -9 -9 -9 -9 -9 -10 -10 -10 -10 -10 -10 -10 -10 -10 -10 -10
-18 -17 -18 -19 -20 -21 -21 -21 -19 -14 -12 -11 -11 -11 -10 -10 -10 -10 -10 -9 -9 -9 -9 -9 -9 -9 -9 -9 -9 -10 -10 -10 -10 -10 -10 -10 -10 -10
-21 -20 -21 -21 -21 -21 -20 -16 -12 -11 -11 -10 -10 -10 -10 -10 -10 -9 -9 -9 -9 -10 -10 -10 -10 -9 -9 -9 -9 -10 -10 -10 -10 -10 -10 -9 -9 -9
-21 -21 -20 -20 -20 -18 -13 -11 -11 -10 -10 -10 -10 -10 -10 -9 -9 -9 -9 -9 -9 -10 -10 -11 -10 -10 -9 -10 -10 -11 -10 -10 -10 -10 -9 -9 -9 -9
-20 -20 -20 -19 -16 -12 -12 -11 -11 -10 -10 -9 -10 -10 -9 -9 -9 -9 -9 -8 -9 -10 -10 -10 -10 -10 -10 -10 -10 -10 -10 -10 -9 -8 -8 -9 -8 -8
-20 -20 -19 -17 -12 -11 -11 -11 -10 -9 -9 -9 -9 -9 -9 -9 -9 -9 -9 -9 -9 -9 -10 -10 -9 -9 -10 -10 -10 -9 -9 -9 -8 -9 -8 -8 -7 -8
-20 -19 -17 -12 -11 -11 -10 -10 -10 -9 -9 -9 -9 -9 -9 -9 -8 -8 -8 -9 -9 -9 -9 -10 -10 -9 -9 -9 -9 -10 -9 -9 -8 -8 -8 -8 -8 -8
-19 -17 -13 -11 -11 -10 -10 -10 -9 -9 -9 -9 -9 -9 -9 -8 -8 -9 -8 -9 -9 -8 -8 -9 -10 -9 -9 -9 -9 -8 -9 -8 -8 -8 -7 -7 -8 -8
-18 -16 -12 -11 -10 -10 -10 -10 -9 -9 -9 -9 -9 -9 -9 -8 -9 -9 -9 -8 -9 -8 -9 -9 -9 -9 -9 -9 -8 -8 -9 -9 -8 -8 -7 -7 -7 -7
-18 -17 -12 -11 -11 -10 -10 -10 -9 -9 -9 -9 -9 -9 -9 -9 -8 -9 -9 -8 -8 -8 -8 -8 -9 -9 -8 -9 -9 -8 -9 -9 -8 -8 -8 -7 -7 -7

GFSNE_850_dewp_048.txt.gz
Dewpoint
10 10 10 10 9 8 6 2 -1 -3 -1 1 2 -5 -8 -9 -11 -12 -11 -5 -4 -8 -16 -21 -24 -28 -29 -31 -31 -31 -20 -6 -4 -3 -3 -3 -2 -2
10 10 9 9 7 4 2 -2 -3 -1 1 -0 -2 -2 -7 -7 -7 -2 0 -0 -3 -11 -20 -24 -27 -27 -28 -28 -27 -15 -6 -5 -4 -4 -4 -3 -2 -2
9 9 8 7 4 5 1 -2 -1 1 1 0 -1 -1 -0 -1 -0 -0 -0 -5 -15 -19 -23 -27 -27 -27 -26 -26 -16 -7 -6 -6 -5 -5 -5 -4 -3 -3
8 7 7 5 2 -1 -2 -0 1 1 0 0 0 -0 -1 -1 -1 -2 -11 -17 -20 -23 -24 -23 -25 -27 -25 -23 -14 -7 -7 -6 -6 -5 -5 -5 -4 -4
6 5 4 0 -1 0 1 1 1 0 -0 -1 -1 -1 -2 -5 -15 -16 -18 -18 -20 -19 -21 -26 -25 -21 -18 -16 -14 -9 -7 -7 -7 -7 -6 -6 -5 -5
2 1 -0 -1 0 1 0 1 -0 -1 -1 -2 -2 -6 -12 -16 -16 -14 -9 -9 -9 -11 -18 -20 -15 -15 -15 -14 -14 -14 -14 -13 -13 -9 -7 -6 -6 -6
-1 -0 0 1 0 -0 -0 -1 -2 -2 -5 -13 -12 -9 -7 -7 -8 -8 -8 -9 -10 -12 -11 -9 -9 -9 -9 -11 -13 -14 -13 -13 -13 -13 -7 -6 -6 -6
0 0 0 -0 -1 -2 -2 -5 -11 -18 -17 -12 -8 -8 -8 -8 -8 -8 -9 -9 -9 -10 -8 -8 -9 -9 -11 -12 -13 -13 -13 -13 -13 -8 -8 -7 -7 -6
-0 -1 -2 -2 -2 -7 -16 -19 -20 -21 -21 -11 -8 -8 -8 -8 -9 -12 -9 -9 -9 -9 -8 -9 -10 -9 -10 -10 -12 -12 -12 -13 -12 -12 -9 -7 -7 -7
-1 -2 -8 -15 -18 -19 -20 -23 -24 -20 -16 -11 -9 -9 -9 -9 -9 -9 -9 -9 -8 -9 -8 -9 -9 -9 -10 -11 -12 -12 -13 -12 -12 -12 -10 -7 -7 -7
-17 -18 -18 -21 -25 -27 -21 -15 -12 -8 -11 -13 -16 -18 -19 -19 -16 -12 -11 -9 -9 -9 -9 -9 -10 -9 -10 -11 -12 -12 -12 -12 -12 -11 -11 -10 -9 -8
-21 -24 -27 -25 -23 -14 -8 -8 -8 -10 -12 -17 -12 -18 -17 -13 -12 -11 -11 -10 -9 -10 -9 -10 -10 -10 -9 -10 -10 -10 -11 -11 -11 -10 -11 -11 -10 -9
-26 -25 -22 -20 -17 -12 -9 -10 -14 -17 -10 -18 -17 -13 -12 -12 -11 -10 -10 -10 -10 -10 -10 -9 -10 -9 -10 -10 -10 -10 -10 -10 -10 -10 -10 -10 -10 -10
-21 -20 -18 -19 -20 -19 -20 -21 -21 -21 -20 -14 -12 -12 -11 -11 -11 -10 -10 -10 -9 -9 -9 -9 -9 -9 -9 -9 -10 -10 -10 -10 -10 -10 -10 -10 -10 -10
-20 -20 -20 -21 -21 -21 -21 -21 -20 -15 -12 -12 -11 -11 -11 -11 -11 -10 -10 -9 -9 -10 -10 -10 -9 -9 -9 -9 -9 -10 -10 -11 -11 -10 -10 -10 -10 -9
-20 -20 -21 -21 -21 -21 -21 -17 -12 -12 -11 -11 -10 -10 -10 -10 -10 -10 -10 -9 -9 -10 -10 -10 -10 -10 -10 -10 -9 -10 -10 -10 -10 -10 -10 -9 -9 -8
-21 -21 -21 -21 -20 -19 -14 -12 -11 -11 -10 -10 -10 -10 -10 -10 -10 -9 -9 -9 -9 -10 -10 -10 -10 -10 -10 -10 -10 -10 -10 -10 -10 -9 -8 -8 -8 -8
-21 -20 -20 -20 -17 -12 -11 -11 -11 -10 -9 -9 -9 -9 -10 -10 -10 -9 -9 -9 -9 -9 -10 -10 -10 -9 -10 -10 -9 -9 -9 -9 -9 -8 -8 -8 -8 -8
-20 -20 -19 -17 -12 -11 -11 -10 -10 -10 -9 -9 -9 -9 -9 -9 -9 -9 -9 -9 -9 -9 -9 -9 -9 -9 -9 -9 -9 -9 -9 -9 -9 -8 -8 -8 -8 -8
-20 -19 -18 -14 -11 -11 -11 -10 -10 -10 -9 -9 -9 -9 -9 -9 -9 -9 -9 -9 -9 -9 -9 -8 -9 -8 -9 -9 -9 -9 -9 -9 -9 -9 -9 -8 -8 -8
-20 -18 -17 -13 -11 -11 -11 -10 -10 -10 -9 -9 -9 -9 -9 -9 -9 -9 -9 -9 -9 -9 -9 -8 -9 -9 -9 -9 -9 -9 -9 -8 -8 -8 -9 -8 -8 -8
-20 -19 -17 -13 -11 -11 -11 -10 -10 -10 -9 -9 -9 -9 -9 -9 -9 -9 -9 -9 -9 -8 -9 -9 -9 -8 -8 -8 -8 -9 -9 -9 -8 -8 -8 -8 -8 -8
-20 -20 -18 -15 -12 -11 -11 -11 -11 -10 -9 -9 -9 -9 -9 -9 -9 -9 -9 -9 -9 -9 -9 -8 -8 -8 -9 -8 -8 -8 -9 -9 -9 -8 -8 -8 -7 -7

GFSNE_850_dewp_051.txt.gz
Dewpoint
9 9 8 9 9 9 8 8 7 4 1 -3 -5 -5 -5 -7 -3 1 -3 -8 -7 -8 -5 1 1 -3 -13 -20 -27 -31 -32 -15 -8 -5 -3 -3 -2 -2
9 8 8 8 9 8 7 6 3 1 1 2 1 -1 -0 1 -1 -2 -3 -3 -2 -1 1 1 -2 -16 -26 -29 -31 -31 -28 -10 -5 -4 -4 -3 -3 -3
8 8 8 8 7 7 6 3 1 1 2 1 1 1 0 -0 -0 0 0 0 -0 -0 -2 -13 -22 -28 -29 -28 -29 -26 -23 -9 -5 -5 -4 -4 -4 -3
7 7 7 7 6 5 3 2 3 2 1 1 1 1 0 -0 -1 -0 -1 -1 -4 -13 -21 -27 -28 -26 -28 -29 -27 -24 -16 -7 -6 -5 -5 -5 -4 -4
6 6 5 5 4 3 2 1 1 1 1 1 1 -0 -1 -1 -2 -2 -4 -12 -20 -19 -18 -18 -22 -26 -24 -19 -17 -14 -9 -8 -7 -6 -6 -6 -5 -5
4 3 2 1 1 1 1 1 1 0 -0 -1 -2 -2 -3 -5 -11 -16 -15 -10 -10 -16 -17 -18 -21 -16 -14 -13 -14 -13 -13 -13 -13 -10 -7 -6 -6 -6
1 1 -0 0 0 1 0 0 -1 -1 -2 -2 -4 -11 -13 -9 -7 -8 -9 -10 -12 -20 -12 -16 -11 -12 -12 -13 -13 -12 -11 -9 -7 -7 -7 -6 -6 -6
-0 0 0 0 -0 -1 -1 -1 -2 -2 -5 -15 -14 -8 -9 -8 -8 -8 -9 -10 -16 -14 -10 -12 -11 -11 -12 -12 -12 -11 -9 -8 -8 -7 -7 -7 -7 -6
-1 -1 -1 -1 -2 -2 -4 -12 -19 -20 -19 -16 -11 -9 -8 -8 -8 -10 -11 -11 -11 -13 -10 -12 -11 -11 -12 -12 -12 -12 -12 -11 -11 -11 -10 -7 -7 -6
-2 -2 -3 -9 -15 -19 -20 -21 -21 -21 -19 -14 -11 -12 -10 -9 -9 -9 -9 -11 -11 -10 -8 -9 -11 -11 -11 -11 -11 -12 -12 -11 -11 -11 -11 -10 -7 -7
-17 -18 -19 -21 -23 -26 -26 -18 -16 -10 -8 -11 -15 -17 -19 -20 -20 -20 -15 -11 -11 -11 -11 -10 -10 -9 -10 -11 -12 -11 -11 -11 -11 -11 -11 -11 -9 -7
-23 -26 -27 -26 -25 -23 -18 -10 -8 -9 -10 -14 -14 -13 -18 -16 -13 -12 -12 -11 -10 -9 -9 -10 -9 -9 -9 -11 -11 -11 -12 -12 -11 -11 -11 -11 -9 -8
-24 -22 -21 -22 -19 -17 -18 -15 -11 -16 -20 -10 -15 -14 -12 -11 -11 -11 -11 -10 -10 -10 -10 -9 -9 -9 -9 -9 -11 -11 -11 -11 -11 -11 -11 -11 -10 -9
-21 -18 -14 -21 -22 -23 -23 -23 -22 -22 -21 -19 -13 -12 -11 -11 -11 -11 -11 -10 -10 -10 -10 -9 -9 -9 -9 -9 -10 -11 -11 -11 -11 -11 -11 -11 -10 -10
-19 -21 -21 -22 -22 -22 -23 -22 -22 -21 -14 -12 -11 -11 -10 -10 -10 -11 -10 -10 -10 -10 -10 -9 -9 -10 -9 -10 -9 -10 -10 -11 -11 -11 -10 -10 -10 -9
-19 -21 -22 -22 -22 -22 -22 -20 -15 -12 -12 -11 -11 -10 -10 -10 -10 -10 -10 -10 -10 -10 -10 -10 -10 -9 -9 -9 -9 -9 -10 -10 -10 -10 -10 -9 -9 -9
-21 -21 -20 -20 -20 -19 -16 -12 -12 -11 -11 -10 -10 -10 -10 -10 -10 -10 -10 -10 -9 -10 -10 -10 -10 -9 -9 -10 -9 -10 -10 -9 -9 -9 -9 -8 -9 -8
-21 -20 -20 -19 -19 -16 -12 -12 -11 -11 -11 -10 -10 -10 -9 -9 -9 -9 -10 -9 -9 -9 -9 -10 -10 -9 -9 -9 -9 -9 -9 -9 -9 -9 -9 -8 -9 -9
-20 -20 -20 -19 -17 -13 -11 -11 -11 -10 -10 -10 -10 -10 -9 -9 -9 -9 -9 -9 -9 -9 -9 -9 -9 -9 -9 -9 -9 -9 -8 -9 -9 -9 -9 -9 -8 -9
-20 -20 -20 -18 -16 -12 -11 -11 -10 -10 -10 -10 -10 -9 -9 -9 -9 -9 -9 -9 -9 -9 -9 -9 -9 -9 -9 -8 -8 -9 -10 -10 -9 -9 -9 -9 -8 -8
-19 -20 -20 -18 -16 -12 -11 -11 -11 -11 -10 -10 -10 -9 -9 -9 -9 -9 -9 -9 -9 -9 -9 -9 -10 -10 -9 -9 -9 -9 -9 -9 -8 -8 -8 -8 -8 -8
-19 -20 -20 -20 -18 -14 -12 -11 -11 -11 -11 -10 -10 -9 -9 -9 -9 -9 -9 -9 -9 -9 -9 -9 -10 -9 -9 -8 -8 -8 -8 -9 -8 -8 -8 -8 -8 -7
-19 -20 -20 -20 -19 -18 -15 -13 -12 -12 -11 -10 -9 -9 -9 -9 -9 -9 -9 -9 -9 -9 -9 -9 -9 -9 -8 -8 -7 -7 -8 -9 -8 -8 -8 -8 -8 -8

GFSNE_850_dewp_054.txt.gz
Dewpoint
9 9 9 9 8 8 7 7 7 5 3 2 3 3 3 -1 -5 -2 -2 -1 -3 -2 1 -5 -4 -3 1 1 -1 -7 -16 -19 -21 -13 -8 -3 -2 -2
8 9 9 8 8 8 8 7 6 5 4 4 4 2 -0 -0 0 2 -1 -3 1 -0 -1 -1 -0 1 -0 -4 -14 -24 -29 -28 -15 -5 -4 -3 -3 -3
8 8 8 8 7 7 7 7 6 5 2 2 2 2 3 3 2 1 -0 1 0 -1 0 -0 -1 -5 -14 -23 -29 -29 -25 -12 -7 -5 -5 -4 -4 -3
7 7 7 7 6 6 5 4 4 3 2 2 2 1 2 2 1 -0 -0 -0 -0 -1 -2 -8 -13 -22 -26 -20 -22 -21 -13 -9 -7 -5 -5 -4 -4 -3
6 5 5 5 5 4 3 2 1 1 1 1 1 1 0 -0 -1 -1 -1 -2 -2 -7 -17 -16 -21 -23 -24 -25 -17 -11 -10 -8 -7 -6 -6 -6 -5 -5
6 5 5 3 2 2 1 1 1 1 1 0 -0 -1 -1 -2 -2 -6 -13 -15 -16 -16 -16 -20 -23 -21 -20 -14 -13 -11 -11 -11 -7 -6 -6 -6 -6 -6
3 2 2 1 0 0 0 0 0 -0 -0 -1 -2 -2 -4 -11 -13 -12 -12 -12 -16 -17 -17 -25 -17 -14 -14 -13 -13 -12 -12 -8 -6 -6 -6 -6 -6 -6
0 -0 1 -0 -0 -1 -1 -1 -1 -2 -2 -3 -10 -16 -13 -11 -10 -10 -10 -12 -16 -19 -16 -18 -13 -13 -13 -12 -12 -12 -11 -10 -7 -6 -6 -6 -6 -6
-1 -1 -1 -1 -2 -2 -2 -4 -12 -18 -19 -17 -15 -14 -14 -9 -9 -10 -10 -11 -15 -16 -12 -13 -12 -12 -12 -12 -11 -11 -11 -11 -11 -11 -11 -8 -7 -6
-1 -2 -2 -6 -13 -17 -18 -19 -20 -21 -19 -17 -19 -18 -15 -13 -12 -13 -15 -17 -18 -14 -11 -12 -12 -12 -11 -11 -11 -11 -11 -11 -11 -11 -10 -8 -7 -7
-19 -20 -19 -21 -22 -26 -26 -21 -16 -12 -10 -12 -14 -16 -18 -18 -19 -19 -20 -17 -13 -13 -12 -11 -11 -10 -11 -11 -12 -12 -12 -11 -11 -11 -11 -8 -7 -7
-24 -24 -23 -23 -24 -24 -22 -17 -13 -11 -13 -14 -17 -17 -18 -19 -16 -13 -12 -12 -12 -11 -10 -10 -10 -9 -9 -11 -11 -12 -12 -11 -12 -11 -11 -11 -10 -7
-21 -21 -22 -22 -22 -22 -23 -22 -18 -18 -19 -21 -18 -19 -16 -13 -12 -12 -11 -11 -11 -11 -11 -9 -10 -10 -9 -9 -11 -13 -11 -11 -12 -12 -12 -11 -11 -10
-22 -19 -19 -21 -22 -23 -23 -23 -23 -23 -23 -22 -18 -13 -12 -12 -12 -11 -11 -11 -11 -10 -10 -9 -9 -9 -9 -9 -10 -12 -11 -11 -12 -13 -12 -11 -10 -10
-21 -21 -21 -22 -22 -22 -23 -23 -22 -22 -19 -13 -12 -12 -11 -11 -11 -11 -11 -11 -11 -10 -10 -10 -9 -9 -9 -9 -9 -9 -9 -11 -12 -12 -12 -11 -10 -10
-20 -21 -22 -22 -22 -22 -21 -21 -18 -13 -12 -12 -11 -11 -11 -10 -10 -10 -10 -10 -10 -11 -10 -10 -9 -9 -9 -9 -10 -9 -10 -9 -11 -11 -10 -10 -11 -10
-21 -22 -22 -21 -21 -20 -19 -14 -12 -12 -12 -11 -11 -10 -10 -10 -10 -9 -9 -9 -9 -10 -10 -10 -9 -9 -9 -9 -9 -10 -10 -10 -10 -9 -10 -10 -10 -10
-21 -21 -21 -21 -21 -19 -16 -12 -12 -11 -11 -11 -11 -10 -10 -10 -9 -9 -9 -9 -9 -10 -10 -10 -9 -9 -9 -10 -9 -10 -9 -9 -10 -9 -9 -9 -9 -9
-20 -20 -21 -21 -21 -19 -15 -12 -12 -11 -11 -10 -10 -10 -10 -9 -9 -9 -9 -9 -9 -9 -9 -9 -10 -10 -10 -9 -9 -9 -9 -9 -10 -10 -10 -10 -9 -10
-20 -20 -21 -21 -20 -19 -16 -12 -12 -11 -11 -11 -11 -10 -10 -9 -9 -9 -9 -9 -9 -9 -10 -9 -9 -9 -9 -10 -10 -9 -10 -10 -10 -9 -9 -9 -9 -10
-20 -20 -20 -20 -21 -19 -18 -15 -12 -12 -11 -11 -11 -11 -10 -9 -9 -9 -9 -9 -10 -10 -10 -9 -10 -9 -10 -9 -10 -9 -11 -10 -9 -8 -8 -8 -8 -8
-20 -20 -20 -20 -21 -20 -19 -18 -16 -13 -12 -12 -12 -11 -10 -9 -9 -9 -10 -10 -10 -10 -10 -10 -10 -10 -10 -10 -10 -9 -10 -9 -9 -9 -9 -8 -9 -8
-20 -20 -20 -20 -20 -20 -20 -19 -18 -17 -15 -14 -12 -12 -10 -9 -9 -10 -10 -10 -10 -10 -10 -10 -10 -10 -10 -10 -10 -9 -8 -8 -9 -9 -8 -9 -10 -10

GFSNE_850_dewp_060.txt.gz
Dewpoint
6 6 7 8 8 7 8 8 7 6 6 4 3 4 3 3 2 3 3 2 0 2 2 2 1 0 0 0 0 0 -0 -1 -0 1 -1 -2 -2 -2
2 6 6 7 8 8 7 7 7 6 5 4 4 4 3 3 1 1 1 -1 1 2 1 0 -1 -1 -1 -1 -1 -1 -1 -2 -3 -3 -3 -3 -3 -2
4 5 5 6 6 6 6 6 6 6 5 5 5 4 4 2 0 1 1 0 1 0 -1 -1 -1 -1 -1 -1 -2 -2 -2 -3 -4 -4 -4 -4 -3 -3
4 5 5 5 6 5 5 5 5 5 4 4 3 3 3 3 2 2 1 0 -0 -0 -1 -1 -1 -2 -2 -2 -3 -4 -4 -5 -6 -5 -5 -4 -4 -3
4 4 4 5 4 4 4 3 3 3 3 2 2 1 1 1 1 1 -0 -0 -1 -1 -1 -1 -2 -2 -3 -5 -6 -9 -9 -6 -5 -5 -5 -5 -5 -4
3 3 4 4 4 3 2 2 1 1 1 1 1 1 0 0 0 -1 -1 -2 -2 -2 -2 -6 -11 -13 -14 -16 -18 -20 -19 -15 -12 -12 -9 -6 -6 -5
2 3 2 2 2 1 1 1 0 -0 0 -0 -0 -0 -0 -1 -1 -2 -2 -3 -8 -10 -12 -14 -15 -17 -21 -20 -18 -15 -14 -13 -13 -12 -8 -5 -5 -5
1 1 0 0 0 0 -0 -1 -1 -2 -2 -2 -2 -2 -3 -5 -7 -9 -10 -12 -12 -14 -16 -18 -19 -23 -18 -15 -13 -13 -13 -12 -12 -11 -10 -7 -5 -5
-1 -1 -1 -1 -1 -1 -2 -4 -12 -16 -17 -17 -15 -13 -11 -12 -13 -13 -13 -11 -11 -12 -17 -25 -18 -14 -12 -12 -12 -12 -11 -11 -11 -11 -12 -12 -9 -6
-18 -19 -20 -21 -22 -23 -23 -23 -23 -21 -19 -19 -17 -15 -15 -14 -13 -13 -12 -13 -16 -19 -20 -17 -13 -13 -12 -11 -11 -11 -11 -12 -12 -12 -12 -11 -12 -12
-28 -28 -27 -26 -25 -26 -25 -25 -23 -19 -16 -15 -13 -12 -13 -13 -10 -14 -16 -17 -20 -15 -12 -12 -12 -12 -12 -12 -12 -11 -11 -11 -12 -13 -11 -11 -11 -12
-26 -24 -23 -22 -22 -22 -23 -23 -23 -22 -19 -17 -15 -15 -19 -18 -16 -17 -15 -13 -12 -12 -11 -11 -11 -11 -12 -12 -11 -11 -11 -11 -13 -12 -11 -11 -11 -12
-24 -23 -22 -22 -23 -22 -22 -23 -22 -22 -21 -22 -22 -22 -18 -17 -14 -12 -11 -11 -11 -11 -11 -11 -11 -11 -11 -11 -12 -12 -11 -13 -13 -12 -11 -11 -12 -12
-22 -21 -21 -21 -21 -21 -22 -22 -22 -22 -23 -23 -22 -19 -14 -12 -12 -12 -11 -11 -11 -10 -10 -10 -9 -9 -9 -10 -11 -12 -11 -12 -12 -12 -12 -11 -11 -12
-23 -23 -21 -22 -22 -22 -22 -21 -22 -21 -21 -19 -13 -12 -12 -11 -11 -11 -11 -10 -10 -10 -10 -10 -10 -9 -10 -10 -9 -11 -11 -12 -11 -11 -11 -11 -11 -12
-22 -22 -22 -22 -21 -21 -21 -20 -19 -17 -14 -12 -12 -12 -12 -11 -11 -10 -10 -10 -10 -10 -10 -9 -9 -9 -10 -10 -10 -10 -11 -10 -11 -11 -10 -11 -11 -12
-21 -20 -20 -21 -21 -22 -21 -19 -17 -14 -12 -12 -12 -12 -11 -11 -11 -10 -10 -10 -10 -10 -10 -9 -9 -9 -9 -10 -10 -10 -10 -10 -11 -11 -10 -11 -11 -12
-20 -19 -20 -20 -21 -22 -21 -20 -18 -16 -13 -12 -12 -11 -11 -11 -11 -11 -10 -10 -10 -9 -9 -9 -9 -10 -10 -10 -10 -10 -10 -10 -11 -11 -10 -10 -11 -13
-19 -20 -21 -20 -20 -21 -21 -21 -20 -19 -16 -12 -12 -11 -11 -11 -11 -11 -11 -10 -10 -10 -10 -10 -10 -10 -10 -10 -10 -10 -10 -10 -10 -10 -10 -10 -11 -12
-20 -21 -21 -21 -20 -20 -21 -21 -21 -20 -19 -17 -15 -12 -12 -12 -12 -12 -11 -11 -10 -10 -10 -10 -10 -10 -10 -10 -10 -10 -11 -11 -10 -11 -12 -11 -11 -11
-22 -22 -21 -21 -21 -20 -21 -21 -21 -21 -21 -20 -19 -17 -16 -16 -15 -14 -13 -12 -11 -10 -10 -10 -10 -10 -10 -11 -11 -11 -11 -11 -11 -11 -11 -10 -11 -10
-24 -23 -23 -22 -21 -21 -21 -21 -21 -21 -21 -21 -20 -19 -18 -17 -16 -14 -13 -11 -10 -10 -10 -10 -10 -10 -10 -10 -10 -10 -11 -11 -11 -11 -11 -11 -10 -10
-24 -24 -23 -22 -22 -21 -21 -21 -22 -21 -21 -20 -18 -17 -15 -14 -12 -10 -10 -10 -10 -10 -10 -10 -10 -10 -10 -10 -10 -10 -11 -11 -11 -12 -12 -12 -11 -11

GFSNE_850_dewp_066.txt.gz
Dewpoint
8 7 7 7 7 6 4 4 6 6 6 5 6 4 5 5 4 5 4 3 3 3 4 4 2 3 3 2 2 2 2 2 2 2 1 1 1 1
6 7 6 5 3 3 4 5 5 5 5 5 5 4 5 5 5 4 4 3 2 2 2 1 2 3 2 1 1 1 1 0 0 0 0 0 0 0
2 2 2 3 4 4 4 4 4 4 4 4 4 4 3 4 3 3 3 3 2 1 2 1 0 1 1 0 -0 -0 -1 -0 -0 0 -0 -1 -1 -1
2 3 3 3 3 3 3 3 3 3 3 3 2 3 3 2 2 2 2 2 1 1 1 0 -0 -0 -0 -1 -1 -1 -1 -1 -1 -1 -1 -1 -1 -2
2 2 2 3 3 3 3 2 2 2 2 2 2 2 2 1 1 1 1 1 1 0 -0 -1 -1 -1 -1 -1 -2 -2 -2 -2 -2 -2 -2 -7 -9 -6
2 2 1 2 2 2 2 1 1 1 1 1 1 1 0 0 0 -0 -0 -1 -1 -1 -1 -1 -1 -1 -2 -2 -2 -2 -2 -3 -6 -14 -20 -21 -19 -14
1 1 1 1 0 -0 -0 -0 -0 -0 -1 -1 -1 -1 -1 -1 -2 -2 -2 -2 -2 -3 -3 -4 -5 -7 -8 -10 -13 -15 -16 -17 -19 -22 -21 -17 -14 -8
-1 -1 -2 -2 -3 -4 -4 -5 -5 -5 -7 -7 -7 -7 -9 -9 -8 -9 -9 -10 -11 -12 -13 -15 -16 -17 -19 -21 -22 -22 -23 -23 -22 -17 -14 -9 -5 -5
-30 -29 -29 -28 -29 -27 -28 -29 -28 -28 -28 -26 -25 -23 -21 -19 -16 -16 -16 -15 -16 -16 -17 -22 -21 -23 -25 -26 -23 -20 -17 -15 -13 -13 -12 -10 -9 -7
-31 -30 -29 -29 -28 -29 -28 -27 -27 -26 -25 -24 -22 -20 -19 -18 -17 -17 -16 -17 -18 -20 -20 -22 -24 -19 -15 -15 -14 -13 -13 -12 -12 -11 -11 -11 -12 -13
-29 -28 -28 -26 -26 -27 -27 -26 -26 -25 -23 -22 -21 -19 -17 -15 -16 -19 -21 -20 -23 -23 -19 -16 -15 -14 -14 -13 -13 -13 -12 -12 -12 -11 -11 -11 -12 -12
-28 -27 -26 -25 -26 -26 -25 -25 -25 -24 -23 -22 -20 -21 -22 -21 -21 -20 -20 -20 -15 -13 -12 -12 -12 -12 -13 -13 -13 -12 -12 -11 -11 -11 -11 -11 -12 -14
-27 -26 -25 -25 -25 -25 -24 -23 -23 -24 -22 -23 -23 -23 -22 -21 -20 -18 -14 -12 -12 -12 -12 -11 -11 -11 -11 -12 -13 -12 -12 -11 -11 -11 -11 -11 -11 -12
-26 -26 -26 -26 -25 -24 -24 -23 -23 -23 -22 -22 -22 -21 -20 -15 -13 -12 -12 -12 -12 -11 -11 -11 -10 -10 -10 -10 -11 -13 -12 -12 -12 -12 -11 -12 -11 -11
-26 -26 -25 -24 -24 -24 -23 -23 -23 -22 -21 -19 -18 -15 -13 -12 -12 -12 -12 -12 -12 -11 -11 -10 -10 -10 -10 -10 -10 -11 -10 -11 -11 -12 -12 -12 -12 -11
-27 -26 -25 -24 -24 -23 -23 -23 -23 -22 -20 -19 -16 -14 -12 -12 -12 -12 -12 -12 -12 -11 -10 -10 -10 -10 -10 -10 -10 -10 -10 -10 -10 -10 -10 -10 -11 -11
-28 -25 -25 -25 -25 -24 -23 -22 -22 -22 -21 -20 -19 -18 -15 -13 -12 -12 -11 -11 -11 -12 -11 -10 -10 -10 -10 -10 -10 -10 -10 -10 -10 -10 -10 -10 -10 -10
-24 -25 -26 -26 -25 -24 -23 -22 -22 -22 -22 -22 -21 -20 -19 -16 -13 -12 -12 -12 -12 -12 -12 -12 -11 -10 -10 -10 -10 -10 -10 -10 -10 -10 -10 -10 -11 -11
-24 -27 -28 -27 -26 -25 -24 -23 -22 -22 -22 -22 -22 -22 -21 -20 -19 -17 -17 -15 -15 -15 -14 -13 -12 -12 -10 -10 -10 -10 -10 -10 -10 -10 -10 -10 -10 -11
-25 -26 -27 -27 -26 -26 -25 -24 -23 -22 -22 -21 -21 -21 -21 -21 -20 -20 -19 -18 -17 -16 -14 -13 -11 -10 -10 -10 -11 -11 -11 -11 -10 -9 -9 -9 -10 -11
-24 -23 -24 -25 -25 -25 -25 -25 -24 -24 -23 -22 -22 -22 -21 -21 -20 -19 -18 -16 -14 -12 -10 -10 -10 -10 -10 -11 -11 -11 -11 -11 -10 -10 -10 -11 -11 -11
-23 -21 -22 -22 -22 -22 -22 -22 -22 -22 -21 -20 -20 -18 -17 -16 -14 -12 -10 -10 -10 -10 -10 -10 -10 -10 -10 -10 -10 -10 -11 -11 -11 -11 -11 -11 -11 -11
-23 -21 -20 -19 -18 -17 -16 -15 -15 -14 -14 -13 -12 -11 -10 -9 -9 -9 -9 -9 -10 -10 -10 -10 -10 -10 -10 -10 -10 -11 -11 -11 -11 -11 -12 -12 -12 -12

GFSNE_850_dewp_072.txt.gz
Dewpoint
7 7 8 8 7 7 6 6 5 6 4 5 5 4 4 3 3 3 3 3 4 3 3 2 2 4 5 5 4 6 5 5 3 3 3 3 2 2
5 6 7 7 6 5 5 5 4 3 4 4 4 3 3 3 3 2 3 3 3 3 2 2 2 3 4 4 4 4 4 3 3 2 3 2 2 2
3 4 5 5 5 4 3 3 3 3 4 4 3 2 2 2 2 2 2 2 2 2 2 2 2 2 2 3 2 2 3 3 2 2 2 2 1 1
2 2 2 3 3 3 2 3 2 2 2 2 2 2 1 1 1 1 1 1 1 2 2 2 2 2 2 2 2 2 2 2 2 2 2 1 1 0
1 2 2 2 2 2 2 2 2 2 2 2 2 1 0 0 1 1 1 1 1 1 1 1 1 1 1 1 0 1 1 1 1 -0 -0 -0 -1 -0
2 2 2 2 2 2 2 2 1 1 1 0 0 -0 -0 -1 -1 -1 -1 -1 -1 -0 -0 0 0 0 0 -0 -0 -1 -1 -1 -0 -1 -1 -1 -1 -1
1 1 1 1 0 0 -0 -1 -2 -2 -3 -3 -4 -4 -5 -7 -9 -12 -13 -12 -12 -8 -5 -3 -3 -2 -2 -1 -1 -1 -1 -2 -2 -2 -2 -2 -3 -8
-2 -6 -15 -26 -28 -31 -31 -32 -32 -32 -30 -28 -26 -22 -21 -22 -23 -23 -22 -22 -14 -20 -22 -21 -22 -20 -19 -18 -16 -15 -13 -12 -12 -12 -14 -17 -20 -23
-31 -31 -30 -30 -30 -29 -30 -30 -29 -28 -28 -27 -24 -24 -22 -22 -21 -20 -20 -20 -17 -16 -25 -25 -24 -26 -26 -26 -27 -26 -26 -25 -25 -25 -25 -24 -23 -17
-29 -28 -28 -28 -27 -30 -29 -27 -27 -26 -26 -26 -24 -23 -22 -22 -21 -21 -21 -21 -17 -22 -24 -22 -20 -19 -17 -17 -18 -17 -18 -17 -18 -17 -15 -12 -8 -6
-27 -27 -27 -27 -29 -31 -29 -27 -26 -26 -26 -26 -26 -26 -25 -24 -24 -21 -17 -17 -12 -12 -16 -14 -13 -14 -14 -14 -14 -14 -14 -14 -14 -13 -13 -11 -8 -9
-25 -26 -27 -28 -31 -31 -28 -27 -26 -25 -24 -24 -24 -25 -25 -25 -24 -23 -21 -20 -16 -9 -13 -13 -13 -12 -12 -13 -13 -13 -13 -13 -13 -13 -12 -12 -11 -11
-25 -26 -27 -29 -30 -29 -29 -27 -27 -26 -25 -25 -25 -25 -25 -24 -23 -22 -18 -14 -13 -12 -12 -12 -12 -12 -10 -11 -12 -12 -12 -12 -12 -13 -12 -11 -11 -10
-24 -26 -27 -28 -28 -28 -28 -29 -27 -26 -25 -25 -24 -23 -22 -21 -18 -15 -13 -13 -13 -13 -12 -12 -12 -10 -10 -10 -11 -10 -11 -11 -11 -11 -11 -11 -12 -12
-24 -26 -26 -27 -28 -28 -28 -28 -26 -25 -24 -24 -22 -21 -19 -18 -15 -14 -13 -13 -13 -13 -12 -12 -11 -11 -11 -11 -11 -11 -11 -11 -10 -10 -10 -10 -10 -10
-25 -24 -23 -24 -27 -28 -27 -26 -25 -25 -24 -23 -23 -22 -22 -22 -21 -19 -15 -13 -13 -13 -12 -12 -12 -11 -11 -11 -11 -11 -11 -11 -11 -10 -10 -10 -10 -10
-27 -24 -22 -22 -24 -25 -25 -26 -26 -25 -25 -24 -24 -24 -23 -22 -21 -21 -21 -19 -17 -15 -13 -12 -12 -12 -13 -12 -12 -13 -12 -12 -12 -11 -10 -11 -11 -10
-27 -23 -22 -22 -23 -23 -23 -24 -25 -25 -25 -24 -23 -23 -23 -22 -22 -22 -22 -21 -20 -18 -17 -15 -16 -16 -16 -14 -13 -13 -12 -11 -11 -11 -11 -11 -11 -11
-27 -24 -24 -22 -22 -21 -22 -22 -23 -24 -24 -24 -24 -23 -23 -22 -22 -22 -22 -22 -21 -20 -18 -17 -15 -13 -11 -10 -10 -10 -10 -11 -11 -11 -11 -10 -11 -11
-26 -25 -25 -24 -22 -21 -21 -20 -20 -21 -21 -22 -22 -22 -22 -21 -21 -20 -20 -19 -17 -15 -13 -11 -10 -10 -10 -10 -10 -10 -10 -11 -10 -10 -10 -10 -11 -11
-25 -27 -26 -25 -23 -21 -20 -19 -19 -18 -18 -17 -17 -18 -17 -17 -16 -15 -14 -12 -11 -10 -9 -10 -10 -10 -10 -10 -10 -10 -10 -10 -10 -10 -11 -11 -11 -12
-23 -26 -27 -26 -25 -22 -20 -19 -17 -16 -15 -14 -13 -13 -12 -12 -12 -11 -10 -9 -9 -9 -10 -10 -10 -10 -10 -10 -10 -11 -11 -11 -11 -11 -11 -11 -11 -10
-22 -23 -25 -27 -25 -24 -22 -19 -17 -15 -13 -12 -11 -11 -11 -11 -10 -10 -9 -9 -9 -10 -10 -10 -11 -11 -11 -11 -10 -11 -11 -11 -11 -11 -12 -12 -11 -11

GFSNE_850_dewp_075.txt.gz
Dewpoint
3 6 7 8 7 8 7 6 6 6 4 5 5 4 4 4 3 3 2 2 2 3 3 3 3 3 2 4 4 4 5 5 6 6 5 4 3 3
3 6 6 6 6 6 6 6 5 5 5 4 3 4 3 3 2 2 2 2 2 2 2 2 2 2 2 5 4 6 5 5 5 4 3 3 3 3
2 3 5 5 5 5 5 4 4 3 3 4 3 3 2 2 2 1 1 2 1 2 2 2 2 2 1 2 3 3 3 3 4 3 3 2 2 3
2 2 3 3 3 3 3 3 2 3 2 2 2 2 2 1 1 0 1 1 1 1 1 1 2 2 2 1 2 2 3 3 3 3 3 2 2 2
2 2 2 2 2 2 2 2 2 2 2 2 2 2 1 1 0 -0 -0 -0 0 0 1 1 1 2 1 2 1 1 1 2 2 2 2 2 1 1
1 2 2 2 2 2 2 2 2 1 1 1 0 -0 -1 -1 -1 -2 -2 -3 -4 -3 -2 -1 -0 -0 0 0 0 0 0 -0 -0 -0 -0 -0 -0 -1
1 1 1 1 1 1 1 -0 -1 -2 -3 -3 -4 -8 -8 -11 -16 -16 -18 -18 -15 -19 -18 -14 -11 -6 -3 -3 -2 -1 -1 -1 -1 -1 -1 -1 -1 -2
-1 -3 -10 -18 -24 -28 -32 -32 -32 -33 -32 -30 -28 -21 -13 -19 -20 -23 -23 -24 -16 -13 -20 -24 -23 -24 -24 -24 -21 -17 -12 -9 -6 -5 -4 -4 -5 -8
-22 -29 -30 -29 -29 -27 -29 -30 -30 -30 -31 -30 -26 -23 -21 -22 -22 -22 -21 -22 -21 -20 -25 -26 -20 -24 -23 -26 -30 -29 -29 -28 -27 -26 -24 -23 -23 -23
-28 -27 -26 -26 -26 -29 -30 -29 -29 -29 -28 -28 -28 -26 -25 -25 -22 -21 -22 -22 -19 -13 -22 -23 -17 -19 -18 -16 -18 -17 -18 -20 -22 -25 -26 -25 -22 -19
-26 -25 -26 -26 -27 -31 -31 -28 -27 -27 -27 -26 -27 -27 -27 -27 -26 -24 -22 -20 -18 -11 -16 -15 -14 -16 -15 -15 -14 -14 -14 -14 -14 -14 -14 -14 -10 -7
-24 -24 -25 -27 -31 -31 -29 -26 -25 -24 -25 -26 -26 -27 -27 -27 -26 -25 -24 -22 -20 -11 -10 -12 -14 -14 -14 -12 -14 -13 -13 -14 -13 -13 -13 -12 -12 -12
-24 -24 -24 -27 -30 -31 -30 -28 -28 -28 -26 -26 -25 -25 -25 -24 -24 -23 -21 -17 -14 -13 -12 -13 -13 -13 -12 -13 -14 -13 -13 -13 -13 -13 -13 -13 -12 -12
-24 -23 -24 -26 -29 -29 -29 -30 -30 -29 -27 -25 -25 -24 -23 -22 -22 -19 -16 -14 -13 -13 -13 -13 -13 -12 -11 -11 -13 -12 -12 -12 -12 -12 -11 -12 -12 -12
-25 -24 -26 -25 -26 -26 -26 -29 -29 -27 -27 -26 -25 -24 -24 -23 -21 -20 -19 -16 -14 -14 -13 -13 -13 -12 -12 -12 -12 -12 -12 -12 -12 -11 -10 -10 -10 -10
-25 -24 -24 -23 -23 -24 -23 -23 -24 -25 -26 -26 -25 -25 -25 -25 -24 -24 -23 -22 -19 -17 -15 -13 -13 -13 -12 -12 -12 -13 -13 -12 -13 -12 -12 -11 -11 -11
-27 -26 -25 -21 -21 -21 -21 -21 -22 -23 -25 -25 -25 -25 -24 -24 -24 -23 -24 -23 -23 -22 -20 -18 -18 -16 -15 -15 -16 -15 -15 -14 -13 -12 -10 -10 -11 -11
-28 -28 -25 -22 -21 -21 -20 -20 -20 -21 -22 -24 -24 -24 -24 -24 -23 -23 -23 -23 -22 -20 -19 -17 -15 -16 -16 -14 -12 -11 -11 -10 -10 -10 -10 -10 -11 -11
-28 -28 -26 -23 -24 -23 -21 -20 -20 -20 -20 -21 -22 -23 -23 -22 -22 -22 -21 -21 -20 -19 -18 -16 -15 -13 -11 -10 -10 -10 -10 -10 -10 -10 -11 -11 -10 -11
-25 -25 -25 -24 -25 -25 -23 -20 -19 -19 -19 -18 -18 -19 -20 -20 -19 -19 -18 -17 -16 -15 -14 -12 -11 -10 -10 -10 -10 -10 -10 -10 -10 -10 -10 -11 -11 -11
-22 -23 -23 -24 -26 -26 -25 -23 -20 -19 -18 -17 -16 -16 -15 -15 -14 -14 -14 -13 -12 -11 -10 -9 -9 -10 -11 -10 -10 -11 -11 -11 -11 -11 -11 -11 -11 -12
-19 -21 -22 -22 -25 -26 -26 -24 -23 -20 -18 -17 -15 -14 -13 -12 -12 -11 -11 -11 -10 -10 -9 -9 -10 -10 -10 -10 -11 -11 -11 -12 -12 -11 -11 -11 -10 -10
-14 -18 -21 -14 -10 -22 -26 -25 -24 -22 -19 -17 -15 -13 -12 -11 -11 -11 -10 -10 -10 -9 -9 -10 -10 -10 -11 -10 -11 -11 -11 -12 -12 -12 -12 -12 -11 -11

GFSNE_850_dewp_078.txt.gz
Dewpoint
1 2 3 6 6 6 7 7 8 6 5 5 4 4 4 4 3 2 2 2 2 2 2 2 2 2 2 3 4 3 3 4 6 6 7 6 6 5
-0 2 4 5 5 6 6 6 5 6 5 5 5 4 4 3 2 2 2 1 1 2 2 2 2 2 2 3 4 5 5 5 6 6 6 5 5 4
0 2 4 4 4 5 5 5 5 5 4 4 4 3 3 2 1 1 1 1 1 1 1 1 1 1 1 1 2 3 4 4 5 5 4 4 4 3
1 2 2 3 4 4 3 3 3 3 3 3 3 2 2 2 1 1 0 0 1 1 1 1 1 1 1 1 1 1 2 2 3 3 3 3 2 2
1 1 2 2 2 2 3 2 2 2 2 2 2 2 1 1 0 -0 -1 -1 -2 -1 -1 -0 0 1 1 1 1 1 1 1 2 2 2 2 2 2
1 1 1 1 2 2 2 2 2 1 1 1 0 -0 -1 -3 -4 -6 -6 -10 -14 -15 -15 -10 -4 -2 -1 -0 -0 -1 -0 0 0 0 1 1 1 0
1 1 1 1 1 2 1 1 0 -2 -3 -3 -6 -9 -16 -17 -19 -21 -23 -25 -24 -25 -19 -19 -22 -19 -17 -11 -5 -2 -2 -2 -1 -1 -0 -0 -0 -0
0 -1 -2 -4 -10 -11 -18 -30 -32 -32 -32 -30 -29 -26 -21 -20 -22 -23 -25 -26 -23 -20 -21 -22 -25 -24 -22 -24 -26 -27 -24 -17 -9 -4 -2 -2 -2 -2
-6 -19 -28 -28 -29 -27 -27 -30 -30 -30 -31 -29 -29 -24 -22 -24 -23 -25 -25 -24 -24 -25 -23 -26 -25 -22 -26 -24 -26 -25 -27 -27 -27 -27 -26 -22 -19 -17
-29 -28 -26 -24 -23 -27 -30 -30 -29 -29 -28 -29 -28 -26 -25 -25 -25 -26 -25 -24 -22 -20 -20 -22 -22 -20 -18 -18 -18 -16 -17 -17 -18 -20 -22 -25 -25 -24
-25 -24 -24 -24 -25 -31 -31 -28 -27 -27 -26 -27 -28 -28 -28 -28 -28 -28 -29 -26 -24 -17 -18 -15 -17 -16 -16 -16 -15 -15 -15 -15 -15 -14 -14 -14 -14 -12
-24 -23 -24 -26 -30 -32 -30 -27 -25 -25 -26 -27 -28 -27 -27 -27 -28 -28 -27 -25 -24 -17 -13 -13 -15 -15 -15 -15 -14 -14 -14 -14 -14 -14 -14 -13 -13 -13
-23 -23 -23 -25 -28 -30 -31 -27 -26 -30 -28 -27 -26 -26 -25 -25 -25 -24 -23 -21 -17 -15 -14 -14 -14 -14 -15 -15 -15 -13 -13 -13 -13 -13 -13 -13 -13 -13
-24 -22 -22 -24 -26 -27 -27 -28 -31 -30 -26 -26 -26 -26 -26 -25 -25 -22 -20 -19 -17 -16 -14 -14 -14 -14 -13 -14 -14 -14 -13 -13 -13 -12 -12 -12 -11 -11
-25 -24 -24 -25 -24 -23 -23 -25 -26 -23 -24 -25 -27 -27 -27 -26 -25 -25 -25 -25 -24 -19 -16 -14 -14 -13 -13 -13 -13 -14 -15 -15 -14 -12 -12 -12 -12 -11
-27 -25 -24 -25 -24 -22 -21 -20 -20 -21 -22 -23 -25 -26 -26 -27 -26 -26 -26 -25 -26 -26 -24 -22 -19 -16 -15 -15 -15 -16 -16 -16 -15 -14 -13 -13 -13 -12
-27 -27 -26 -26 -24 -21 -21 -20 -19 -19 -20 -22 -23 -24 -25 -25 -25 -25 -25 -24 -24 -24 -23 -22 -20 -19 -18 -18 -16 -15 -13 -12 -11 -11 -11 -11 -11 -11
-28 -29 -28 -27 -26 -23 -22 -21 -19 -19 -19 -19 -20 -21 -22 -23 -23 -23 -23 -23 -22 -21 -20 -19 -18 -17 -15 -13 -11 -11 -10 -10 -10 -10 -10 -10 -11 -11
-27 -27 -27 -27 -27 -24 -24 -24 -21 -19 -18 -18 -18 -19 -19 -19 -20 -20 -20 -20 -19 -18 -17 -17 -16 -14 -12 -11 -10 -10 -10 -10 -10 -11 -10 -10 -10 -11
-24 -24 -24 -25 -24 -24 -24 -26 -25 -22 -19 -18 -18 -17 -17 -17 -16 -16 -16 -16 -15 -14 -13 -12 -11 -11 -10 -10 -10 -11 -11 -11 -11 -11 -11 -11 -11 -12
-21 -21 -21 -22 -22 -23 -24 -26 -26 -25 -23 -21 -19 -17 -16 -15 -14 -13 -13 -12 -12 -12 -11 -11 -10 -9 -10 -10 -10 -11 -12 -11 -11 -11 -12 -11 -12 -12
-17 -17 -16 -17 -19 -21 -22 -23 -18 -26 -24 -23 -21 -18 -16 -15 -14 -12 -12 -11 -11 -11 -10 -10 -10 -9 -10 -10 -10 -12 -11 -12 -12 -12 -12 -11 -11 -10
-6 -7 -8 -7 -11 -15 -20 -10 -7 -15 -16 -24 -22 -19 -17 -15 -14 -12 -11 -11 -10 -10 -10 -9 -10 -10 -10 -11 -11 -11 -11 -11 -12 -12 -12 -12 -12 -12

GFSNE_850_dewp_081.txt.gz
Dewpoint
-1 -2 -1 2 3 6 5 6 7 7 7 7 6 5 5 4 4 2 2 2 1 1 2 2 2 2 2 2 4 3 2 2 5 5 7 6 6 6
-1 -1 -0 3 4 5 5 7 6 7 6 6 5 5 4 4 3 2 1 1 0 1 1 1 1 2 2 1 3 4 4 4 5 6 7 7 6 6
-0 0 1 3 3 4 5 5 5 5 5 5 4 4 3 3 2 1 1 0 1 1 1 1 0 0 1 1 2 3 5 5 5 6 7 6 6 6
1 1 1 3 3 3 3 4 4 4 4 3 3 3 3 2 2 1 0 -0 -1 -1 -0 0 0 0 0 0 1 1 1 4 5 5 5 5 5 4
1 1 1 2 2 3 3 3 3 2 2 2 2 2 2 1 1 -0 -1 -2 -2 -3 -4 -3 -2 -1 0 1 0 0 1 1 1 2 3 3 3 3
1 1 1 1 2 2 2 2 2 2 2 1 1 0 -0 -2 -4 -7 -8 -12 -15 -19 -21 -21 -20 -13 -7 -3 -1 -1 -0 -0 0 1 1 1 2 2
1 1 1 1 1 1 2 1 1 1 -1 -1 -3 -8 -15 -17 -18 -21 -23 -23 -26 -27 -20 -20 -22 -24 -25 -24 -17 -7 -3 -1 -1 -1 -1 -1 -0 -0
1 1 0 0 -0 -1 -1 -3 -13 -26 -30 -30 -30 -25 -25 -21 -20 -23 -25 -26 -25 -22 -21 -26 -28 -27 -25 -25 -28 -29 -28 -25 -13 -3 -2 -2 -2 -1
-0 -2 -12 -25 -27 -28 -27 -29 -30 -30 -31 -30 -29 -26 -23 -23 -23 -25 -26 -26 -27 -25 -23 -26 -26 -24 -24 -24 -23 -22 -24 -27 -29 -29 -28 -24 -18 -14
-12 -25 -27 -24 -22 -24 -27 -28 -28 -28 -29 -29 -29 -28 -27 -28 -28 -27 -27 -24 -24 -22 -20 -23 -21 -19 -18 -18 -17 -17 -16 -17 -18 -20 -21 -24 -27 -27
-27 -25 -23 -22 -23 -28 -30 -27 -26 -26 -27 -29 -30 -30 -30 -30 -30 -29 -29 -27 -26 -22 -20 -16 -17 -16 -16 -16 -15 -15 -15 -15 -15 -15 -15 -15 -14 -15
-24 -24 -23 -24 -26 -31 -29 -25 -24 -24 -25 -27 -27 -27 -28 -28 -28 -27 -27 -26 -25 -21 -16 -16 -16 -16 -15 -16 -14 -15 -15 -15 -15 -14 -14 -14 -14 -14
-23 -22 -22 -23 -26 -30 -30 -26 -23 -28 -27 -25 -25 -26 -27 -26 -25 -25 -24 -23 -20 -17 -16 -15 -15 -15 -15 -15 -14 -14 -14 -13 -13 -13 -13 -13 -13 -13
-23 -23 -22 -22 -25 -26 -26 -24 -29 -29 -23 -22 -23 -27 -28 -28 -27 -25 -24 -22 -22 -20 -18 -17 -16 -15 -15 -16 -16 -15 -14 -14 -14 -13 -13 -13 -12 -12
-26 -24 -23 -24 -25 -24 -22 -22 -25 -22 -20 -21 -24 -26 -26 -26 -27 -27 -26 -26 -26 -25 -24 -22 -20 -18 -16 -17 -18 -18 -18 -17 -16 -13 -14 -13 -13 -12
-27 -27 -26 -24 -24 -24 -22 -21 -20 -19 -18 -19 -20 -22 -24 -25 -26 -26 -26 -26 -26 -25 -25 -25 -24 -22 -20 -20 -19 -18 -16 -15 -14 -13 -12 -13 -13 -13
-26 -26 -26 -26 -25 -25 -22 -21 -20 -18 -17 -18 -19 -20 -21 -22 -24 -24 -24 -24 -23 -23 -22 -21 -20 -19 -18 -17 -15 -14 -12 -11 -11 -11 -11 -11 -11 -11
-27 -28 -28 -28 -27 -26 -24 -22 -22 -21 -18 -18 -18 -19 -20 -20 -21 -21 -21 -21 -21 -20 -20 -19 -18 -17 -15 -13 -12 -12 -11 -11 -11 -10 -10 -11 -12 -12
-23 -25 -26 -27 -27 -26 -26 -24 -25 -24 -23 -19 -18 -18 -18 -18 -18 -19 -19 -19 -18 -18 -17 -16 -15 -14 -13 -11 -11 -10 -11 -11 -11 -11 -11 -11 -12 -13
-21 -23 -23 -24 -24 -24 -24 -23 -24 -26 -25 -25 -21 -19 -18 -17 -17 -16 -16 -15 -15 -14 -13 -13 -13 -12 -11 -10 -10 -11 -11 -11 -11 -11 -12 -11 -12 -12
-18 -20 -20 -21 -21 -20 -21 -22 -23 -25 -25 -21 -25 -23 -20 -18 -17 -15 -14 -13 -13 -12 -12 -11 -11 -11 -10 -10 -10 -11 -11 -11 -11 -11 -11 -12 -12 -13
-15 -9 -8 -12 -14 -16 -16 -19 -19 -10 -14 -6 -16 -23 -22 -20 -17 -16 -15 -13 -12 -11 -11 -11 -10 -10 -10 -10 -10 -11 -12 -13 -11 -11 -11 -11 -11 -11
-3 -3 -3 -4 -4 -4 -5 -6 -10 -7 -10 -7 -8 -7 -17 -21 -18 -11 -15 -14 -13 -12 -11 -11 -10 -10 -10 -10 -11 -11 -12 -12 -11 -11 -12 -12 -12 -12

GFSNE_850_dewp_084.txt.gz
Dewpoint
-2 -1 -0 -2 1 3 6 6 6 6 7 7 7 7 6 5 4 4 3 2 1 1 1 1 1 1 1 1 3 3 2 2 2 2 5 7 5 5
-1 -1 -1 -1 1 5 5 5 6 6 6 6 6 6 5 4 4 3 2 1 1 1 1 1 1 1 1 1 3 4 5 4 5 4 3 6 6 6
-0 -0 0 0 2 5 5 4 5 6 6 6 5 5 4 3 3 2 1 1 -0 1 1 1 1 0 -0 1 1 3 4 5 4 4 6 7 7 7
0 1 1 1 2 3 3 3 3 3 4 4 4 3 3 2 2 2 1 -0 -1 -2 -2 -2 -2 -1 -2 -0 1 1 3 4 4 6 7 6 6 6
1 1 1 1 1 2 2 3 3 3 3 3 3 2 2 2 2 1 -0 -2 -3 -4 -8 -8 -5 -4 -3 -1 0 -0 1 1 4 5 5 5 5 6
1 1 1 1 1 2 2 2 2 2 2 2 2 1 -0 -1 -1 -3 -6 -9 -15 -19 -22 -23 -22 -22 -19 -10 -6 -1 -1 -1 -0 1 2 2 3 3
1 1 1 1 1 1 1 1 1 1 1 1 -0 -2 -6 -10 -14 -17 -20 -22 -24 -24 -25 -21 -21 -23 -25 -26 -25 -19 -6 -2 -1 -2 -1 0 0 1
0 1 1 0 1 1 1 1 1 -1 -5 -10 -12 -14 -18 -21 -20 -21 -23 -26 -26 -24 -21 -24 -26 -27 -25 -25 -28 -31 -30 -28 -16 -5 -2 -2 -3 -2
-0 0 -1 -8 -18 -25 -25 -27 -29 -30 -31 -29 -27 -27 -23 -22 -23 -26 -27 -26 -27 -27 -26 -24 -26 -25 -23 -23 -24 -22 -24 -29 -31 -30 -29 -21 -9 -5
-0 -3 -18 -25 -23 -22 -23 -25 -27 -27 -28 -29 -28 -26 -25 -25 -27 -27 -27 -26 -26 -25 -23 -24 -23 -20 -18 -18 -18 -18 -18 -17 -18 -20 -22 -25 -28 -29
-14 -26 -24 -21 -21 -23 -28 -27 -25 -25 -26 -29 -30 -30 -30 -30 -30 -29 -29 -29 -29 -24 -21 -20 -18 -16 -16 -16 -16 -16 -16 -16 -16 -16 -16 -16 -16 -16
-26 -24 -23 -23 -23 -27 -30 -24 -23 -23 -22 -24 -25 -26 -27 -27 -28 -28 -28 -28 -27 -25 -19 -16 -16 -16 -16 -16 -15 -15 -15 -15 -15 -15 -15 -15 -15 -15
-24 -23 -22 -22 -24 -27 -29 -25 -22 -22 -25 -24 -23 -23 -24 -25 -25 -25 -26 -25 -24 -20 -18 -17 -16 -16 -15 -15 -15 -15 -15 -14 -14 -14 -14 -14 -14 -14
-22 -21 -21 -21 -23 -25 -27 -26 -25 -29 -24 -21 -21 -23 -26 -27 -27 -27 -26 -25 -24 -23 -23 -22 -20 -17 -17 -17 -16 -16 -15 -15 -15 -15 -14 -14 -13 -13
-25 -24 -23 -22 -22 -25 -25 -23 -23 -24 -21 -19 -21 -23 -24 -25 -26 -26 -27 -27 -28 -27 -27 -27 -26 -25 -23 -22 -20 -19 -18 -17 -17 -17 -15 -14 -15 -14
-27 -27 -26 -25 -24 -23 -22 -22 -22 -20 -19 -18 -19 -19 -20 -20 -22 -23 -25 -26 -26 -25 -25 -24 -24 -23 -22 -21 -19 -18 -17 -15 -15 -14 -14 -13 -12 -12
-23 -24 -25 -25 -24 -23 -23 -22 -21 -21 -19 -18 -18 -18 -17 -18 -19 -21 -23 -23 -23 -23 -23 -22 -21 -19 -18 -17 -16 -15 -14 -12 -11 -11 -11 -12 -11 -11
-24 -26 -26 -26 -26 -25 -25 -24 -21 -21 -21 -19 -18 -17 -16 -17 -19 -20 -20 -21 -21 -21 -20 -20 -19 -18 -16 -15 -14 -13 -12 -12 -11 -11 -11 -11 -13 -13
-22 -23 -24 -25 -26 -26 -26 -25 -24 -21 -22 -22 -20 -19 -17 -17 -18 -18 -18 -18 -17 -18 -18 -18 -17 -15 -14 -13 -12 -12 -12 -11 -11 -11 -11 -12 -13 -15
-19 -20 -21 -21 -23 -24 -24 -24 -23 -22 -23 -25 -25 -23 -21 -20 -19 -18 -17 -16 -15 -15 -14 -14 -13 -13 -12 -12 -11 -11 -11 -11 -11 -11 -12 -12 -12 -12
-17 -17 -17 -18 -19 -20 -21 -20 -20 -20 -21 -23 -25 -17 -8 -20 -17 -20 -18 -16 -15 -14 -13 -13 -12 -11 -11 -11 -11 -11 -10 -10 -11 -11 -12 -11 -12 -13
-15 -14 -6 -7 -15 -7 -5 -13 -16 -17 -19 -20 -13 -6 -6 -8 -19 -21 -19 -17 -15 -14 -13 -13 -11 -11 -10 -10 -10 -10 -10 -11 -12 -12 -11 -11 -11 -11
-3 -6 -6 -4 -3 -3 -4 -4 -4 -4 -6 -8 -10 -7 -7 -7 -7 -7 -14 -17 -8 -10 -12 -13 -12 -11 -10 -10 -10 -10 -10 -11 -12 -13 -12 -11 -11 -12

GFSNE_850_dewp_087.txt.gz
Dewpoint
-1 -1 -1 -0 1 0 2 5 6 6 5 7 6 6 6 6 5 4 4 3 2 0 -0 1 1 1 1 1 1 2 3 2 1 1 0 3 6 6
-1 -1 -1 -1 -0 0 1 5 5 5 5 5 6 6 6 5 4 4 3 2 1 -0 0 1 1 1 0 1 2 3 4 3 3 2 1 3 6 6
-0 0 0 0 1 1 4 4 4 5 5 5 5 5 5 4 4 3 3 1 0 -1 -1 1 1 0 -1 -1 1 2 3 4 4 3 3 3 7 6
0 1 1 1 1 2 3 3 3 3 3 4 4 4 4 4 3 2 2 1 -0 -2 -2 -3 -3 -5 -4 -2 0 1 3 4 4 5 7 6 7 6
1 1 1 1 1 2 2 2 2 2 3 2 3 3 3 2 2 2 1 0 -2 -3 -5 -10 -12 -14 -10 -5 -2 -0 0 2 3 5 5 5 6 6
1 1 1 1 1 1 1 1 2 2 2 2 2 2 2 1 0 0 -1 -3 -8 -14 -19 -21 -23 -25 -24 -19 -11 -5 -1 -1 0 2 4 4 5 5
1 1 1 1 1 1 1 1 1 1 2 2 1 1 0 -3 -4 -6 -12 -18 -21 -24 -25 -24 -21 -22 -24 -25 -26 -25 -13 -2 -2 -1 0 0 1 2
0 -0 -0 0 0 1 1 1 1 1 1 1 0 -1 -6 -11 -15 -18 -19 -22 -24 -25 -24 -22 -24 -26 -26 -26 -27 -30 -30 -28 -13 -4 -2 -2 -1 -1
-0 -0 -0 -0 -5 -12 -18 -11 -9 -13 -20 -23 -21 -19 -18 -20 -20 -21 -23 -24 -26 -26 -26 -24 -24 -25 -24 -25 -25 -24 -27 -29 -31 -30 -28 -17 -5 -3
-1 -1 -1 -12 -23 -23 -22 -22 -25 -26 -27 -28 -27 -25 -23 -23 -22 -25 -26 -27 -26 -25 -23 -22 -24 -23 -21 -20 -20 -19 -18 -19 -20 -22 -26 -29 -31 -32
-1 -1 -14 -23 -20 -19 -23 -25 -25 -24 -25 -28 -28 -29 -29 -30 -30 -29 -29 -29 -29 -26 -22 -21 -20 -18 -18 -17 -17 -17 -17 -17 -17 -17 -17 -17 -17 -17
-12 -24 -24 -22 -20 -21 -27 -25 -22 -22 -22 -22 -24 -25 -26 -26 -29 -29 -28 -28 -28 -27 -25 -20 -17 -16 -17 -17 -16 -16 -16 -16 -16 -16 -16 -16 -16 -16
-26 -23 -22 -21 -23 -24 -28 -26 -21 -20 -21 -24 -22 -21 -21 -22 -24 -25 -25 -26 -26 -24 -20 -18 -18 -16 -16 -16 -16 -16 -16 -16 -15 -16 -15 -15 -15 -15
-23 -21 -20 -20 -21 -23 -26 -27 -26 -24 -25 -22 -20 -19 -22 -24 -27 -27 -27 -27 -26 -25 -26 -24 -23 -21 -19 -18 -16 -17 -17 -16 -16 -16 -17 -16 -16 -15
-23 -21 -20 -21 -21 -21 -25 -25 -24 -24 -23 -20 -19 -20 -21 -21 -23 -23 -25 -26 -27 -28 -28 -28 -27 -26 -25 -24 -22 -20 -19 -18 -18 -18 -18 -17 -17 -16
-25 -26 -25 -24 -23 -23 -23 -22 -22 -22 -21 -20 -19 -19 -19 -19 -19 -19 -20 -21 -22 -24 -25 -25 -24 -24 -23 -21 -20 -19 -17 -16 -15 -15 -15 -15 -14 -13
-19 -23 -25 -26 -25 -24 -23 -23 -22 -21 -21 -20 -19 -19 -19 -18 -18 -15 -18 -20 -20 -22 -22 -22 -21 -20 -19 -18 -17 -16 -15 -14 -13 -13 -13 -13 -12 -12
-20 -24 -25 -24 -24 -24 -25 -24 -24 -23 -21 -20 -20 -19 -19 -18 -18 -19 -18 -18 -19 -20 -20 -21 -20 -19 -17 -16 -15 -14 -13 -12 -12 -12 -12 -13 -15 -13
-21 -23 -24 -24 -25 -25 -25 -26 -26 -25 -21 -20 -22 -22 -20 -19 -17 -18 -18 -18 -18 -18 -18 -18 -18 -17 -16 -14 -14 -13 -12 -11 -12 -11 -11 -12 -14 -16
-20 -20 -21 -21 -21 -21 -22 -23 -24 -23 -23 -22 -22 -23 -23 -22 -20 -20 -19 -18 -16 -16 -16 -16 -15 -14 -14 -13 -12 -12 -12 -11 -11 -11 -11 -11 -13 -15
-17 -19 -19 -18 -17 -17 -18 -20 -20 -21 -20 -20 -20 -21 -23 -23 -19 -11 -13 -8 -9 -16 -16 -15 -13 -12 -12 -12 -12 -12 -11 -10 -10 -10 -11 -12 -14 -15
-13 -15 -16 -16 -15 -13 -7 -15 -18 -17 -15 -18 -18 -18 -19 -13 -8 -7 -7 -8 -13 -18 -17 -15 -9 -9 -11 -11 -11 -11 -11 -10 -10 -10 -12 -12 -13 -13
-2 -3 -6 -10 -12 -10 -4 -3 -3 -4 -4 -4 -5 -8 -9 -8 -7 -7 -7 -7 -8 -8 -9 -9 -8 -9 -10 -11 -11 -11 -11 -10 -10 -11 -12 -12 -12 -12

GFSNE_850_dewp_090.txt.gz
Dewpoint
-0 -1 -1 -1 -0 1 2 1 3 5 5 5 5 5 6 6 6 6 5 4 4 3 1 -0 0 1 1 1 1 2 2 2 0 0 -0 -0 2 6
-0 -0 -0 -0 -0 0 1 2 2 4 4 5 4 4 5 5 5 5 4 4 3 2 0 0 1 1 1 0 0 2 3 4 -0 -0 -0 0 1 6
0 0 0 0 1 1 1 2 3 3 4 5 4 4 5 5 4 4 3 3 2 1 -1 -1 -0 0 -1 -2 -1 0 2 3 4 5 3 2 3 7
0 0 1 1 0 1 1 2 2 3 3 3 3 4 4 4 4 3 3 2 1 0 -1 -2 -4 -4 -5 -4 -2 -1 2 3 4 5 6 6 5 7
0 0 1 1 1 1 1 1 2 2 2 1 2 2 3 3 3 2 2 2 1 -1 -2 -5 -12 -18 -17 -10 -6 -1 0 2 3 4 5 6 6 7
0 1 1 1 1 1 1 1 1 1 1 1 2 2 2 2 2 1 1 0 -1 -4 -10 -17 -21 -24 -24 -24 -21 -10 -2 -1 2 3 4 4 5 5
0 0 0 0 0 1 0 0 0 1 1 1 2 2 1 1 1 -2 -2 -4 -10 -16 -21 -22 -23 -20 -21 -24 -26 -27 -19 -5 -2 0 1 3 4 4
0 0 -0 0 0 -0 0 0 0 1 1 1 1 1 1 -1 -6 -8 -12 -17 -19 -23 -25 -22 -21 -23 -25 -25 -27 -29 -29 -27 -11 -3 -2 -0 -0 0
0 -0 -0 -0 -0 -3 -10 -11 -2 -1 -1 -2 -3 -8 -10 -12 -16 -18 -20 -21 -23 -24 -25 -25 -23 -23 -23 -23 -26 -25 -25 -30 -31 -29 -18 -8 -4 -4
-1 -1 -1 -1 -8 -23 -23 -21 -23 -25 -26 -28 -26 -24 -23 -23 -22 -22 -23 -25 -25 -25 -24 -23 -23 -24 -22 -21 -20 -20 -19 -20 -22 -27 -31 -31 -31 -30
-1 -1 -1 -4 -21 -20 -19 -22 -24 -24 -24 -26 -26 -26 -27 -28 -29 -29 -27 -28 -29 -28 -24 -22 -22 -20 -18 -17 -17 -17 -18 -18 -18 -18 -18 -18 -19 -19
-1 -2 -7 -23 -20 -19 -20 -25 -23 -22 -21 -21 -24 -27 -28 -27 -28 -29 -28 -29 -29 -30 -28 -24 -20 -17 -17 -17 -16 -16 -16 -16 -17 -17 -17 -17 -17 -17
-11 -20 -24 -21 -21 -23 -24 -27 -22 -20 -20 -20 -22 -21 -21 -21 -21 -23 -24 -26 -27 -28 -25 -22 -19 -19 -17 -16 -17 -16 -16 -16 -17 -17 -17 -17 -17 -16
-27 -25 -22 -21 -21 -21 -23 -27 -26 -22 -20 -22 -21 -19 -19 -21 -23 -24 -25 -25 -27 -27 -28 -27 -27 -25 -23 -21 -18 -18 -18 -18 -18 -18 -18 -18 -18 -17
-27 -23 -20 -20 -20 -21 -22 -25 -25 -24 -23 -23 -21 -20 -21 -23 -23 -23 -23 -24 -23 -21 -13 -15 -27 -27 -27 -26 -24 -22 -21 -20 -20 -20 -19 -19 -18 -18
-25 -23 -21 -21 -21 -21 -21 -23 -23 -22 -21 -22 -20 -19 -20 -20 -21 -20 -19 -20 -18 -21 -23 -23 -24 -23 -23 -22 -21 -20 -19 -18 -17 -16 -16 -16 -15 -15
-20 -22 -23 -24 -25 -24 -23 -22 -22 -22 -21 -21 -20 -19 -19 -19 -19 -18 -18 -16 -19 -21 -21 -22 -21 -21 -20 -19 -18 -17 -16 -16 -15 -15 -14 -14 -13 -13
-17 -18 -19 -19 -21 -22 -22 -22 -22 -22 -22 -21 -20 -20 -19 -18 -18 -17 -15 -17 -19 -20 -20 -21 -20 -19 -18 -17 -16 -15 -14 -13 -13 -13 -13 -13 -14 -13
-17 -20 -21 -21 -23 -23 -22 -23 -24 -24 -23 -24 -22 -21 -20 -20 -19 -18 -17 -16 -17 -18 -18 -18 -18 -17 -17 -15 -15 -14 -14 -13 -12 -11 -11 -11 -12 -14
-19 -21 -23 -22 -22 -22 -22 -22 -22 -23 -24 -23 -23 -22 -21 -21 -22 -22 -21 -19 -19 -18 -15 -12 -9 -12 -15 -14 -13 -13 -11 -11 -12 -11 -11 -11 -11 -12
-14 -19 -19 -19 -19 -19 -18 -17 -18 -19 -20 -21 -22 -21 -20 -20 -21 -23 -23 -20 -12 -10 -7 -7 -8 -11 -13 -13 -11 -10 -8 -9 -11 -11 -10 -10 -11 -12
-2 -3 -6 -15 -15 -16 -16 -15 -15 -14 -15 -18 -19 -19 -15 -14 -18 -19 -20 -12 -7 -7 -7 -9 -15 -15 -14 -9 -9 -9 -8 -8 -9 -10 -10 -10 -11 -11
-2 -2 -2 -2 -7 -12 -13 -13 -12 -8 -3 -4 -7 -4 -5 -8 -11 -12 -10 -7 -7 -7 -8 -9 -12 -11 -9 -9 -9 -9 -9 -8 -9 -11 -11 -10 -11 -11

GFSNE_850_dewp_093.txt.gz
Dewpoint
1 0 -1 -1 -0 -0 2 2 3 4 4 3 5 5 5 4 5 6 5 5 4 4 3 2 -0 0 1 0 1 2 1 1 1 -1 -2 -2 1 4
0 -1 -1 -0 -0 0 1 1 2 3 3 4 4 4 3 4 5 4 4 4 4 3 3 1 -1 1 1 0 0 1 2 0 2 0 -3 -2 -1 3
-1 -1 -1 -0 0 1 1 2 2 2 3 4 4 4 3 3 4 4 4 4 3 3 2 -0 -2 -2 -2 -3 -3 -0 2 1 4 5 2 -0 0 0
-1 -1 -0 0 0 0 1 0 1 2 3 2 3 3 3 3 4 3 3 3 2 2 1 -1 -3 -4 -4 -6 -6 -3 1 1 4 6 6 4 4 4
-1 -1 -0 0 0 0 0 1 1 2 2 2 1 1 1 2 3 3 3 2 2 1 0 -2 -5 -12 -19 -20 -14 -6 -0 1 3 5 5 6 7 7
-1 -1 -0 0 0 1 1 1 1 1 1 1 1 1 1 2 2 2 2 1 0 0 -1 -5 -15 -21 -24 -25 -25 -18 -5 -0 2 4 5 6 6 6
-1 -1 -0 0 0 0 0 0 0 0 0 0 1 1 1 1 1 1 1 -1 -1 -3 -11 -18 -21 -22 -21 -22 -25 -26 -23 -7 -1 2 3 4 5 5
-1 -0 0 -0 0 -0 -0 -0 -0 0 -0 0 1 1 1 0 0 -1 -6 -7 -13 -20 -21 -22 -22 -21 -23 -24 -26 -28 -28 -26 -9 -2 0 1 3 4
-0 -0 -0 -0 -1 -1 -3 -9 -5 -0 -0 0 0 1 -0 -2 -6 -9 -15 -18 -20 -21 -24 -24 -24 -24 -22 -22 -25 -26 -26 -29 -28 -21 -6 -3 -1 -0
-0 -0 -0 -1 -1 -5 -21 -23 -23 -23 -22 -20 -20 -20 -18 -16 -19 -20 -19 -23 -25 -25 -25 -24 -24 -24 -23 -21 -20 -20 -19 -20 -24 -30 -31 -28 -21 -11
-1 -1 -1 -1 -2 -15 -21 -19 -21 -23 -24 -25 -25 -26 -25 -23 -24 -24 -26 -27 -27 -28 -26 -23 -22 -22 -21 -19 -18 -18 -18 -18 -18 -18 -18 -20 -23 -26
-1 -1 -2 -2 -12 -23 -19 -20 -23 -22 -22 -21 -24 -28 -29 -28 -29 -29 -27 -27 -29 -29 -27 -23 -24 -19 -18 -17 -17 -17 -16 -17 -16 -17 -17 -17 -17 -18
-1 -2 -6 -16 -22 -22 -22 -21 -24 -21 -20 -19 -20 -21 -21 -21 -21 -22 -22 -24 -26 -27 -26 -24 -20 -19 -19 -18 -17 -17 -16 -16 -17 -17 -17 -17 -17 -17
-2 -13 -25 -23 -21 -21 -21 -23 -27 -24 -20 -19 -20 -20 -19 -19 -19 -21 -22 -22 -23 -23 -23 -20 -22 -25 -24 -24 -22 -20 -18 -17 -18 -18 -18 -17 -18 -18
-7 -20 -25 -22 -20 -20 -20 -21 -24 -26 -23 -20 -22 -20 -19 -20 -21 -20 -20 -20 -20 -19 -17 -11 -12 -21 -25 -26 -25 -24 -22 -21 -20 -20 -20 -19 -19 -19
-6 -22 -24 -20 -18 -19 -20 -20 -22 -23 -22 -21 -22 -21 -19 -20 -20 -19 -19 -19 -17 -15 -17 -20 -22 -22 -22 -22 -21 -21 -20 -20 -19 -18 -18 -17 -17 -16
-3 -15 -22 -23 -21 -21 -21 -20 -21 -21 -21 -21 -21 -21 -20 -19 -19 -19 -18 -17 -13 -15 -18 -18 -19 -19 -19 -19 -18 -18 -17 -17 -17 -16 -16 -16 -15 -15
-3 -12 -19 -21 -22 -22 -24 -23 -22 -22 -21 -21 -20 -19 -20 -20 -19 -19 -18 -17 -15 -16 -17 -17 -17 -17 -17 -17 -16 -16 -15 -15 -14 -14 -14 -14 -14 -13
-2 -8 -16 -18 -19 -19 -19 -19 -21 -22 -21 -22 -22 -22 -20 -20 -20 -20 -19 -18 -17 -15 -16 -17 -16 -15 -17 -16 -15 -15 -14 -11 -12 -13 -12 -12 -13 -12
-3 -7 -6 -18 -20 -21 -21 -21 -20 -21 -22 -23 -23 -23 -23 -21 -20 -21 -22 -22 -21 -20 -18 -18 -15 -7 -7 -8 -11 -13 -10 -11 -8 -8 -11 -12 -12 -12
-2 -3 -2 -14 -21 -20 -20 -20 -19 -19 -20 -20 -21 -22 -22 -22 -21 -20 -20 -21 -19 -22 -21 -14 -8 -7 -8 -9 -11 -11 -12 -10 -9 -8 -8 -11 -11 -12
-2 -3 -3 -2 -15 -13 -17 -17 -16 -16 -16 -16 -17 -17 -18 -19 -19 -17 -13 -14 -18 -20 -17 -8 -7 -8 -9 -12 -14 -14 -11 -9 -9 -8 -9 -9 -10 -11
-1 -2 -2 -2 -2 -2 -6 -9 -12 -14 -14 -14 -13 -7 -4 -13 -16 -6 -6 -13 -15 -15 -8 -7 -8 -8 -9 -11 -11 -9 -9 -9 -9 -9 -9 -10 -11 -11

GFSNE_850_dewp_096.txt.gz
Dewpoint
2 2 1 -1 -1 -1 -1 0 3 4 3 4 4 3 4 5 6 4 5 5 5 4 4 3 2 1 -1 0 0 1 0 2 1 -1 -1 -2 -2 0
3 2 0 -1 -1 -1 -0 0 1 4 4 4 3 3 3 4 4 5 4 4 4 4 3 3 2 -0 -2 1 0 0 2 2 0 -2 -3 -2 -2 -1
1 0 -0 -1 -1 -1 0 1 2 3 3 4 3 2 3 3 4 3 3 3 3 3 3 2 1 -1 -3 -3 -4 -3 0 2 0 4 3 -0 -1 -0
-0 -1 -1 -1 -1 -0 1 1 1 2 2 2 3 3 3 3 3 3 3 2 2 2 2 2 1 -2 -4 -6 -7 -6 -2 1 2 5 5 4 3 2
-0 -1 -1 -1 -1 0 0 0 1 1 2 2 2 2 2 1 1 2 3 2 2 2 1 0 -0 -4 -14 -21 -21 -16 -3 1 2 5 6 5 6 6
-0 -1 -1 -1 -0 0 0 0 1 1 1 1 1 1 1 1 1 2 2 2 1 1 0 -0 -3 -14 -22 -25 -25 -25 -13 -1 2 4 5 6 6 7
-1 -1 -1 -1 -0 -0 -0 0 1 0 1 1 1 1 1 1 1 1 1 1 0 -1 -1 -6 -16 -21 -23 -23 -24 -26 -26 -10 -0 2 4 5 6 6
-1 -1 -1 -0 -0 0 0 0 -0 -0 -0 0 0 0 1 1 1 1 0 -1 -3 -8 -16 -20 -21 -22 -22 -24 -26 -27 -29 -27 -10 -0 1 4 4 5
-1 -1 -1 0 0 -0 -0 -1 -2 -1 -0 -0 0 0 0 0 -0 -0 -4 -8 -11 -17 -21 -23 -25 -24 -23 -23 -25 -26 -27 -30 -28 -15 -2 -0 1 2
-1 -1 -0 0 -0 -1 -1 -13 -23 -23 -14 -5 -2 -0 -2 -4 -7 -9 -12 -17 -19 -22 -24 -24 -24 -23 -24 -23 -21 -21 -22 -23 -28 -31 -27 -11 -5 -2
-1 -1 0 0 -0 -1 -7 -22 -20 -20 -22 -24 -24 -25 -24 -22 -20 -19 -21 -21 -22 -24 -24 -23 -23 -22 -22 -21 -19 -19 -18 -19 -19 -20 -24 -28 -31 -29
-1 -1 -0 -1 -1 -1 -16 -19 -19 -21 -22 -22 -25 -25 -25 -25 -26 -26 -25 -24 -25 -27 -26 -23 -23 -21 -19 -18 -18 -17 -16 -17 -17 -17 -18 -18 -19 -19
-1 -1 -1 -1 -3 -12 -22 -19 -20 -22 -21 -20 -19 -21 -23 -23 -22 -25 -23 -24 -25 -26 -24 -23 -21 -21 -20 -19 -18 -18 -17 -16 -16 -16 -17 -16 -17 -17
-1 -1 -2 -9 -18 -22 -21 -21 -22 -24 -20 -19 -19 -20 -20 -19 -19 -19 -20 -21 -22 -23 -23 -19 -16 -17 -22 -23 -23 -22 -20 -18 -16 -16 -17 -17 -17 -17
-0 -2 -6 -21 -24 -21 -20 -20 -21 -24 -23 -19 -18 -19 -19 -18 -18 -19 -19 -20 -21 -16 -14 -12 -9 -10 -16 -21 -23 -24 -23 -22 -21 -20 -19 -19 -19 -19
-1 -1 -8 -22 -23 -21 -19 -19 -20 -21 -23 -22 -20 -21 -20 -18 -19 -20 -19 -18 -17 -15 -12 -14 -17 -19 -20 -20 -20 -20 -20 -20 -19 -19 -18 -18 -17 -17
-0 -1 -6 -20 -22 -20 -18 -18 -19 -19 -22 -21 -20 -20 -21 -20 -19 -20 -19 -18 -17 -14 -12 -15 -15 -16 -16 -17 -17 -17 -18 -17 -17 -17 -17 -16 -16 -16
-1 -1 -2 -10 -21 -22 -20 -20 -20 -20 -21 -20 -20 -20 -20 -20 -20 -19 -19 -18 -17 -16 -13 -14 -14 -14 -14 -13 -12 -15 -15 -15 -15 -15 -14 -14 -14 -14
-1 -2 -2 -3 -13 -19 -21 -22 -23 -22 -21 -20 -20 -21 -20 -20 -20 -20 -20 -19 -18 -18 -16 -15 -14 -16 -15 -12 -9 -10 -12 -14 -13 -9 -10 -11 -13 -13
-1 -1 -2 -2 -7 -15 -16 -17 -17 -19 -20 -20 -20 -21 -22 -22 -21 -21 -21 -21 -20 -20 -19 -20 -18 -18 -17 -10 -7 -7 -8 -11 -9 -10 -9 -8 -8 -8
-1 -1 -2 -2 -3 -9 -17 -18 -19 -19 -20 -20 -20 -21 -22 -23 -23 -22 -21 -20 -20 -20 -21 -14 -18 -17 -12 -8 -7 -8 -9 -10 -12 -10 -9 -9 -8 -8
-1 -1 -2 -2 -2 -3 -14 -19 -19 -18 -19 -19 -19 -19 -19 -20 -20 -20 -20 -19 -19 -17 -12 -15 -19 -15 -8 -7 -8 -9 -12 -13 -12 -10 -9 -9 -9 -9
-1 -1 -2 -2 -2 -2 -4 -16 -16 -17 -17 -16 -16 -15 -15 -15 -11 -6 -9 -17 -16 -10 -9 -14 -17 -13 -7 -8 -8 -9 -10 -10 -9 -9 -9 -9 -9 -9

GFSNE_850_dewp_099.txt.gz
Dewpoint
0 1 2 2 2 0 -1 -0 2 5 4 4 5 4 3 2 5 5 5 5 5 5 4 4 3 3 2 -1 -0 1 0 1 1 0 -2 -2 -1 -2
3 2 2 2 1 -0 -0 1 3 3 4 2 3 3 3 3 3 3 4 4 4 2 4 4 3 2 1 -3 -3 -0 -0 1 2 0 -4 -5 -3 -2
3 3 2 1 -0 -1 -0 0 1 2 3 3 3 3 3 2 3 3 4 3 3 3 3 3 2 2 1 -3 -5 -6 -4 -1 1 2 5 3 3 -1
3 2 1 -0 -1 -0 -0 0 1 1 3 3 3 2 2 2 2 3 3 2 3 3 2 2 1 1 -0 -5 -12 -15 -9 -3 0 3 4 5 5 6
2 0 -0 -0 -0 -0 -0 0 0 0 1 2 2 2 1 1 1 1 1 2 2 2 2 1 1 0 -3 -16 -23 -25 -24 -4 0 3 5 5 6 4
0 -0 -0 -0 -0 0 0 0 0 0 0 1 1 1 1 1 1 1 1 2 1 1 1 1 0 -2 -14 -22 -24 -24 -27 -11 -0 2 5 6 7 7
0 -0 -0 -0 -1 -0 -0 -0 -0 0 1 1 1 0 1 0 1 1 1 1 1 1 0 -1 -3 -14 -21 -23 -23 -26 -26 -24 -3 1 4 5 6 7
-0 -0 -1 -1 -1 -1 -0 0 0 0 0 0 -0 0 0 1 1 1 1 0 -0 -5 -6 -10 -18 -22 -22 -23 -25 -26 -28 -28 -18 -1 1 4 5 5
-0 -1 -1 -1 -1 -0 -0 0 -0 -1 -1 -1 -0 -0 0 0 1 0 -0 -0 -3 -9 -15 -20 -22 -24 -22 -23 -24 -24 -26 -29 -28 -16 -1 1 3 4
-1 -0 -1 -1 -0 -0 -0 -0 -2 -12 -16 -3 -1 -0 -0 -0 -0 -1 -2 -6 -11 -16 -20 -24 -24 -24 -23 -23 -24 -22 -22 -21 -27 -30 -23 -5 -1 -0
-0 -0 -1 -1 -0 -0 -1 -1 -13 -22 -22 -22 -21 -17 -11 -9 -12 -13 -14 -16 -19 -22 -24 -24 -24 -23 -22 -22 -21 -20 -19 -19 -19 -20 -28 -30 -22 -9
-0 -1 -1 -0 -0 -1 -1 -3 -19 -19 -20 -22 -23 -24 -24 -23 -21 -21 -21 -21 -23 -25 -26 -23 -23 -23 -20 -19 -18 -18 -18 -17 -18 -18 -18 -19 -22 -28
-0 -1 -1 -1 -1 -1 -1 -10 -19 -18 -20 -22 -21 -23 -24 -25 -25 -27 -26 -24 -24 -25 -24 -24 -22 -20 -20 -20 -20 -20 -19 -18 -17 -17 -17 -17 -18 -18
-0 -1 -1 -1 -1 -3 -8 -21 -20 -18 -21 -21 -19 -18 -20 -21 -20 -20 -20 -20 -22 -22 -23 -23 -16 -12 -16 -16 -17 -19 -23 -22 -20 -18 -17 -18 -18 -18
-0 -0 -1 -1 -4 -13 -21 -22 -20 -21 -21 -20 -18 -18 -19 -19 -19 -18 -18 -18 -20 -21 -16 -11 -10 -8 -11 -15 -17 -20 -21 -22 -22 -22 -21 -20 -20 -19
-0 -0 -1 -3 -9 -20 -21 -20 -20 -19 -20 -22 -19 -18 -18 -19 -18 -18 -18 -18 -19 -18 -15 -12 -12 -15 -16 -16 -17 -17 -18 -19 -19 -19 -19 -19 -19 -19
1 -0 -1 -1 -9 -19 -20 -20 -18 -17 -19 -21 -21 -20 -20 -20 -19 -18 -19 -18 -17 -17 -14 -11 -13 -13 -13 -13 -13 -14 -15 -16 -16 -17 -17 -17 -16 -16
0 -0 -1 -1 -3 -12 -20 -20 -18 -18 -18 -19 -21 -20 -20 -20 -20 -19 -19 -19 -18 -17 -16 -13 -12 -13 -12 -13 -13 -12 -11 -14 -15 -15 -14 -14 -14 -14
-1 -1 -1 -1 -1 -4 -12 -20 -20 -19 -18 -18 -20 -20 -20 -20 -20 -20 -20 -19 -19 -18 -17 -16 -14 -14 -13 -14 -14 -13 -10 -8 -9 -13 -14 -10 -8 -8
-1 -0 -1 -1 -1 -2 -3 -11 -20 -21 -21 -21 -20 -20 -20 -21 -21 -21 -20 -21 -20 -20 -19 -19 -19 -18 -18 -17 -17 -16 -10 -7 -8 -10 -9 -9 -9 -8
-0 -0 -1 -1 -2 -2 -2 -6 -14 -16 -16 -18 -20 -20 -20 -21 -22 -23 -22 -21 -20 -20 -20 -22 -22 -19 -14 -18 -17 -14 -7 -8 -9 -9 -11 -11 -10 -9
-0 -0 -1 -1 -2 -2 -3 -3 -10 -14 -15 -16 -18 -18 -19 -20 -21 -22 -22 -22 -21 -20 -19 -19 -19 -13 -12 -17 -16 -9 -7 -8 -9 -12 -12 -11 -10 -9
-0 -0 -1 -1 -2 -2 -3 -3 -6 -14 -18 -19 -19 -19 -19 -18 -18 -18 -18 -19 -17 -13 -17 -17 -15 -9 -11 -15 -14 -8 -8 -8 -9 -9 -9 -9 -9 -9

GFSNE_850_dewp_102.txt.gz
Dewpoint
10 8 7 3 2 2 2 1 0 1 2 4 4 4 4 3 2 3 4 4 4 4 3 4 3 3 2 1 1 -4 -0 0 1 1 1 -1 -2 -2
8 7 1 1 2 2 2 1 -0 1 3 3 4 4 3 3 3 2 3 3 4 3 3 3 3 2 2 1 -1 -5 -4 -1 0 1 -1 -3 -5 -3
8 4 2 2 2 2 1 -0 -0 1 4 4 3 3 3 3 2 2 3 3 3 2 2 2 3 2 1 1 -2 -6 -8 -6 -3 -0 2 3 1 4
8 2 3 2 2 1 -0 -0 0 1 2 3 3 3 3 2 2 2 2 1 1 2 2 2 2 1 1 0 -5 -17 -22 -13 -4 0 4 5 5 6
3 4 3 2 1 -0 -0 -0 0 1 1 1 3 2 2 2 1 1 1 1 1 1 2 2 1 0 0 -2 -17 -25 -27 -22 -4 2 4 6 6 5
2 4 2 1 -0 -0 -0 0 0 1 1 1 1 1 1 1 1 0 1 1 1 1 1 1 0 -0 -2 -15 -23 -25 -25 -25 -6 2 4 5 6 7
4 3 1 0 -0 -0 -1 -0 -0 -0 -0 -0 0 1 1 0 0 0 1 0 1 1 0 0 -2 -3 -13 -20 -23 -24 -27 -26 -14 0 3 4 6 6
2 1 0 0 -0 -1 -1 -0 -0 -0 1 1 1 0 -0 0 0 0 0 1 1 -0 -2 -8 -9 -18 -22 -22 -24 -26 -27 -29 -27 -4 2 4 4 6
1 0 0 -0 -1 -1 -1 -0 -0 0 0 -0 0 -0 -0 -0 0 0 -0 -0 -1 -1 -7 -15 -20 -23 -25 -24 -23 -24 -25 -27 -29 -23 -2 2 4 4
1 0 -0 -1 -1 -1 -0 -0 -0 -0 -1 -2 -3 -1 -0 -0 -0 -0 -1 -1 -3 -6 -12 -19 -22 -24 -23 -23 -24 -22 -21 -21 -25 -30 -24 -6 1 2
1 0 -0 -1 -1 -1 -0 -0 -0 -1 -9 -20 -18 -4 -2 -1 -0 -1 -5 -7 -8 -14 -19 -23 -24 -23 -23 -23 -21 -20 -20 -19 -19 -22 -30 -28 -12 -2
0 0 -1 -0 -1 -0 -0 -0 -1 -3 -17 -21 -21 -22 -23 -22 -18 -17 -16 -16 -19 -22 -23 -23 -25 -24 -21 -18 -19 -19 -18 -18 -18 -19 -19 -22 -29 -28
1 0 -0 -0 -1 -1 -0 -1 -1 -9 -19 -18 -21 -22 -23 -23 -22 -22 -21 -22 -23 -24 -23 -23 -24 -22 -21 -21 -22 -22 -20 -19 -18 -18 -18 -18 -19 -19
1 0 -0 -0 -1 -1 -1 -1 -2 -15 -18 -18 -21 -20 -22 -23 -24 -24 -25 -24 -23 -22 -23 -23 -21 -16 -12 -9 -10 -12 -17 -22 -22 -19 -17 -17 -18 -18
1 1 0 -0 -1 -1 -1 -2 -7 -19 -18 -18 -21 -20 -19 -20 -21 -20 -20 -20 -20 -21 -21 -21 -9 -7 -8 -12 -15 -17 -17 -19 -21 -22 -22 -20 -20 -19
1 0 -0 -0 -1 -1 -3 -8 -19 -20 -19 -20 -21 -19 -18 -18 -19 -19 -18 -18 -19 -19 -18 -12 -11 -12 -14 -14 -14 -15 -15 -16 -17 -18 -19 -20 -20 -20
-1 -1 -1 -1 -1 -2 -7 -16 -18 -18 -18 -18 -20 -22 -18 -17 -19 -18 -18 -19 -18 -18 -17 -14 -11 -12 -13 -12 -12 -11 -11 -12 -14 -15 -16 -17 -17 -17
-2 -1 -1 -1 -2 -2 -5 -13 -16 -17 -17 -17 -18 -20 -20 -18 -20 -19 -18 -19 -19 -18 -17 -15 -12 -11 -12 -12 -11 -13 -12 -10 -9 -12 -14 -14 -14 -14
-2 -2 -1 -1 -1 -1 -3 -9 -14 -18 -19 -16 -16 -19 -20 -18 -19 -20 -20 -19 -19 -19 -18 -17 -16 -14 -13 -13 -12 -14 -13 -13 -9 -7 -8 -11 -13 -10
-2 -2 -1 -1 -1 -1 -2 -3 -9 -16 -18 -17 -17 -17 -18 -19 -18 -19 -20 -20 -20 -20 -19 -18 -18 -17 -17 -17 -18 -16 -15 -16 -9 -7 -8 -9 -9 -8
-2 -2 -2 -1 -1 -2 -2 -2 -3 -4 -17 -19 -20 -18 -18 -19 -19 -20 -19 -19 -20 -20 -20 -21 -21 -20 -20 -20 -15 -11 -16 -13 -8 -8 -9 -9 -9 -10
-2 -2 -1 -1 -1 -2 -2 -3 -3 -3 -8 -16 -18 -19 -20 -19 -20 -20 -19 -20 -22 -22 -22 -20 -19 -20 -21 -19 -10 -12 -17 -12 -7 -8 -9 -10 -11 -11
-2 -2 -1 -1 -1 -2 -2 -2 -3 -3 -5 -13 -15 -16 -16 -17 -18 -19 -19 -18 -20 -20 -20 -19 -18 -18 -18 -16 -9 -11 -15 -12 -8 -8 -8 -9 -9 -9

GFSNE_850_dewp_105.txt.gz
Dewpoint
7 8 8 10 10 8 7 5 2 2 2 2 3 4 4 4 4 3 2 3 4 3 4 4 2 2 3 2 1 1 -0 -5 -1 1 2 2 0 -2
8 8 9 9 8 4 2 2 2 2 2 1 2 3 4 5 3 2 2 2 3 3 3 3 2 1 1 2 1 1 -2 -6 -4 -1 0 -0 0 -4
9 9 9 8 4 1 2 2 2 1 -0 1 2 3 3 3 3 2 2 2 2 2 2 2 2 3 2 1 0 0 -7 -14 -10 -5 -1 1 1 1
10 10 9 8 2 2 2 2 1 -0 -0 0 2 3 3 3 3 2 2 1 1 1 1 1 1 2 1 0 0 -3 -17 -25 -20 -5 2 4 4 5
9 10 9 7 2 3 3 1 -0 -0 -0 1 2 1 3 2 2 2 1 1 1 1 1 1 1 1 -0 0 -1 -19 -25 -26 -22 -2 2 4 5 5
9 9 8 4 3 3 1 0 -0 -0 0 1 2 1 1 2 1 1 1 1 0 -0 0 1 1 -0 0 -2 -16 -23 -25 -26 -22 -1 3 4 6 5
8 6 3 3 3 1 0 0 0 -0 0 1 1 1 1 0 1 1 0 -0 0 -0 0 -0 -0 -0 -3 -13 -22 -24 -26 -27 -26 -2 2 4 5 6
5 4 3 4 3 1 1 -0 -1 -1 -0 -0 -0 0 1 0 0 -0 -0 -0 0 0 -0 -0 -3 -7 -18 -23 -24 -27 -27 -29 -29 -12 1 4 4 5
4 4 3 2 1 1 0 -0 -1 -1 -1 -1 -0 0 1 0 -0 0 -0 -0 -0 -1 -1 -8 -16 -21 -23 -24 -25 -26 -26 -27 -30 -26 -5 0 4 4
2 2 1 1 0 0 -0 -1 -1 -1 -1 -1 -0 -2 -3 -1 -0 -0 -0 -0 -1 -1 -4 -9 -19 -22 -24 -23 -25 -25 -22 -21 -24 -30 -25 -7 1 3
2 1 1 1 0 0 -1 -1 -1 -1 -1 -1 -1 -3 -4 -1 -0 -0 -0 -1 -1 -3 -8 -15 -23 -23 -22 -23 -23 -23 -21 -20 -20 -22 -30 -27 -10 1
1 1 1 1 0 -0 -1 -1 -1 -1 -1 -1 -6 -19 -19 -5 -1 -0 -1 -2 -5 -9 -17 -19 -24 -23 -23 -22 -21 -20 -19 -19 -19 -19 -20 -26 -29 -15
1 1 1 0 0 -0 -0 -1 -1 -1 -1 -3 -15 -20 -21 -21 -21 -18 -11 -13 -16 -20 -22 -22 -24 -24 -21 -20 -22 -21 -20 -19 -18 -18 -18 -18 -20 -24
1 1 1 1 0 -0 -0 -0 -0 -1 -1 -6 -17 -19 -20 -21 -22 -21 -19 -18 -21 -22 -23 -23 -23 -22 -21 -13 -12 -10 -16 -21 -22 -19 -17 -17 -17 -18
1 1 1 1 0 0 -0 -0 -1 -1 -1 -9 -17 -18 -20 -20 -21 -22 -22 -23 -24 -23 -23 -23 -22 -14 -7 -8 -12 -14 -16 -17 -19 -21 -22 -19 -18 -18
0 0 0 -0 -0 -0 -0 -1 -2 -2 -3 -15 -18 -18 -18 -19 -20 -21 -21 -21 -22 -21 -21 -22 -17 -7 -9 -13 -13 -14 -14 -15 -16 -17 -19 -21 -21 -20
-0 -0 -1 -1 -1 -1 -1 -1 -2 -2 -5 -16 -16 -18 -19 -18 -17 -19 -19 -19 -18 -19 -19 -19 -12 -10 -12 -13 -12 -11 -11 -10 -11 -13 -15 -16 -18 -18
-1 -1 -1 -2 -2 -1 -1 -2 -2 -3 -7 -15 -15 -17 -19 -19 -17 -18 -19 -18 -18 -18 -18 -18 -15 -12 -12 -13 -12 -11 -12 -12 -10 -9 -10 -14 -14 -14
-2 -2 -2 -2 -2 -2 -2 -2 -2 -3 -5 -13 -12 -15 -17 -19 -16 -17 -18 -18 -19 -19 -19 -18 -17 -14 -11 -12 -12 -12 -14 -13 -13 -12 -8 -7 -9 -13
-2 -2 -3 -3 -2 -2 -2 -2 -2 -4 -5 -10 -10 -14 -16 -18 -18 -18 -19 -20 -19 -19 -19 -19 -18 -16 -16 -14 -14 -15 -17 -14 -14 -15 -8 -7 -8 -9
-3 -3 -3 -3 -3 -3 -2 -2 -3 -4 -6 -10 -12 -14 -14 -16 -18 -18 -18 -19 -19 -20 -20 -20 -19 -18 -17 -17 -18 -20 -15 -13 -15 -12 -7 -8 -8 -8
-3 -3 -3 -3 -3 -2 -2 -2 -2 -3 -5 -6 -12 -15 -15 -16 -17 -18 -18 -18 -19 -20 -20 -20 -19 -19 -20 -20 -21 -19 -12 -12 -15 -12 -8 -8 -9 -10
-4 -3 -3 -3 -3 -2 -2 -2 -3 -3 -3 -4 -6 -15 -18 -18 -18 -18 -18 -19 -19 -20 -20 -19 -19 -19 -19 -19 -19 -19 -13 -9 -14 -13 -9 -8 -8 -9

GFSNE_850_dewp_111.txt.gz
Dewpoint
9 9 9 9 9 10 9 9 9 8 7 7 7 6 4 3 3 3 3 3 3 1 2 3 3 3 3 3 3 1 1 1 0 -0 -1 -9 -7 -2
9 10 10 10 10 9 8 9 9 8 6 7 6 4 3 2 2 3 3 4 3 1 1 1 2 2 2 2 1 1 1 0 -0 -1 -10 -19 -9 -5
10 10 10 10 9 9 9 9 9 9 8 7 5 2 2 2 2 2 3 3 2 2 1 1 1 2 2 1 0 1 0 -0 -1 -9 -23 -17 -2 -0
10 10 10 10 10 10 9 9 9 9 7 4 2 2 2 1 2 2 3 2 1 1 1 1 1 1 0 0 0 -0 -0 -1 -7 -24 -26 -4 1 3
9 8 9 9 9 9 8 9 9 8 5 3 3 3 2 2 2 2 2 1 1 2 1 0 0 0 -0 -0 -0 -0 -1 -4 -22 -25 -23 0 2 3
8 8 9 9 9 8 9 9 8 6 5 4 3 2 2 2 2 2 2 1 1 1 1 0 0 -0 -0 -1 -0 -0 -4 -19 -25 -27 -11 2 3 4
6 7 7 8 8 8 8 7 7 5 4 4 4 3 2 2 2 1 1 1 1 0 0 0 0 -0 -1 -1 -1 -3 -15 -25 -28 -28 -3 1 3 5
5 6 6 6 7 7 7 7 5 5 5 5 4 4 3 2 2 2 1 1 1 0 -0 -0 -0 -0 -0 -1 -3 -13 -24 -26 -28 -29 -6 1 2 5
3 4 5 5 5 4 5 5 4 4 4 4 4 4 4 4 2 1 0 0 0 -0 -1 -0 -0 -0 -1 -9 -19 -24 -25 -25 -27 -30 -19 -0 4 4
3 3 3 3 3 4 4 3 3 4 4 4 3 3 3 1 1 -0 0 1 0 -0 0 -0 -1 -2 -6 -15 -21 -24 -25 -23 -22 -30 -29 -7 1 4
2 3 3 3 2 2 3 3 3 2 2 2 2 2 2 0 -0 0 -0 -0 -1 -0 0 -0 -1 -4 -10 -18 -22 -23 -25 -22 -21 -22 -30 -27 -6 2
1 1 2 2 2 2 2 2 2 1 2 2 2 1 1 -0 -0 -1 -1 -0 -0 -1 -0 -1 -2 -6 -18 -22 -22 -22 -23 -20 -19 -20 -21 -29 -26 -6
-0 0 0 1 2 2 2 1 2 2 1 1 1 0 -0 -0 -0 -1 -2 -0 -0 -1 -2 -3 -3 -7 -17 -22 -22 -21 -19 -18 -18 -18 -19 -20 -24 -28
-1 -1 -0 0 1 1 1 1 1 1 0 0 -0 0 -0 -1 -2 -4 -5 -1 -1 -1 -2 -2 -12 -14 -20 -23 -20 -20 -19 -18 -18 -19 -19 -18 -19 -20
-3 -2 -1 -1 -0 0 0 0 -0 -0 -0 -0 -0 -0 -1 -1 -4 -14 -12 -3 -2 -1 -2 -3 -7 -20 -23 -23 -20 -10 -9 -11 -13 -16 -19 -21 -18 -18
-5 -4 -3 -2 -1 -1 -0 -1 -1 -1 -1 -1 -0 -1 -1 -2 -5 -15 -16 -15 -9 -10 -8 -10 -13 -21 -22 -22 -15 -8 -11 -15 -13 -14 -15 -18 -20 -20
-4 -4 -3 -2 -2 -1 -1 -1 -1 -1 -1 -1 -2 -2 -2 -3 -4 -13 -16 -16 -13 -14 -14 -15 -18 -22 -22 -20 -10 -12 -15 -14 -11 -10 -11 -13 -15 -17
-5 -4 -3 -3 -2 -2 -2 -1 -1 -1 -1 -2 -2 -2 -3 -3 -4 -10 -14 -15 -15 -15 -16 -18 -19 -21 -21 -12 -9 -14 -15 -12 -12 -12 -10 -10 -10 -12
-5 -5 -4 -3 -3 -2 -2 -2 -2 -2 -2 -2 -2 -3 -3 -4 -4 -6 -6 -8 -17 -19 -21 -21 -21 -21 -21 -12 -11 -14 -12 -11 -12 -13 -12 -12 -10 -9
-6 -6 -5 -5 -4 -3 -3 -2 -2 -3 -3 -3 -3 -3 -3 -4 -4 -5 -6 -13 -15 -17 -18 -19 -19 -20 -21 -14 -13 -13 -12 -11 -12 -13 -14 -12 -13 -10
-7 -7 -6 -5 -5 -4 -4 -3 -3 -3 -4 -3 -3 -4 -3 -4 -5 -6 -8 -12 -12 -15 -17 -18 -19 -19 -19 -16 -13 -12 -12 -12 -12 -15 -14 -12 -14 -9
-8 -7 -6 -6 -5 -5 -5 -4 -4 -4 -4 -4 -4 -4 -4 -4 -5 -6 -11 -10 -13 -13 -17 -18 -18 -18 -17 -17 -15 -14 -14 -15 -16 -16 -12 -11 -11 -8
-8 -7 -7 -6 -6 -5 -5 -5 -4 -4 -4 -4 -5 -4 -4 -5 -5 -6 -9 -12 -13 -13 -16 -17 -18 -18 -17 -17 -16 -16 -16 -18 -18 -16 -12 -11 -10 -10

GFSNE_850_dewp_114.txt.gz
Dewpoint
9 9 9 9 9 10 9 9 10 9 8 8 8 8 7 7 8 6 4 3 2 2 2 1 1 1 2 2 3 3 2 1 1 0 -0 -1 -8 -16
9 9 9 9 9 10 10 10 10 9 9 8 8 8 8 8 7 5 5 3 3 3 3 1 1 1 2 2 2 2 1 0 0 -0 -1 -10 -23 -10
10 10 10 9 9 10 9 10 9 9 9 9 8 8 7 7 5 5 4 5 4 4 3 2 1 2 1 1 1 1 0 -0 -0 -1 -6 -22 -18 -2
9 9 9 9 9 9 9 9 9 9 9 9 8 7 7 5 5 4 4 5 4 3 2 2 1 1 2 1 0 -0 -0 -0 -1 -6 -23 -25 -8 -0
7 8 8 8 8 8 8 9 9 8 8 9 8 7 6 5 4 4 4 4 4 2 2 1 1 1 0 0 -0 -0 -1 -1 -4 -21 -25 -15 -0 3
5 6 7 7 7 7 7 8 8 8 8 8 6 6 5 4 4 4 4 4 4 2 2 1 1 1 0 0 -0 -1 -1 -3 -17 -25 -27 -2 3 4
2 3 4 5 6 6 7 7 7 7 7 6 6 5 5 4 4 3 3 3 3 2 2 1 1 1 1 -0 -0 -1 -2 -10 -26 -28 -28 -2 3 4
-1 0 2 3 3 5 5 6 6 6 5 6 5 5 5 4 4 4 4 3 2 2 1 1 0 0 0 -0 -0 -1 -6 -24 -27 -29 -28 -0 2 3
-0 0 1 2 3 3 4 4 4 4 4 4 5 5 5 5 4 4 4 3 3 1 1 -0 -0 -0 0 -0 -1 -7 -22 -24 -25 -29 -29 -2 2 3
-2 -1 0 1 2 2 3 3 3 3 3 3 4 4 4 4 3 4 3 3 2 1 1 0 -0 -0 -1 -1 -7 -19 -23 -24 -22 -26 -30 -12 1 3
-5 -2 -1 -1 -0 1 2 2 2 2 3 3 3 3 3 3 2 3 2 1 0 0 0 -1 -0 -0 -1 -2 -8 -19 -23 -25 -21 -21 -29 -28 -5 1
-5 -4 -2 -1 -1 -1 1 1 2 2 2 2 2 2 2 2 2 2 1 -0 0 -0 -1 -1 -1 -1 -2 -7 -15 -20 -23 -23 -20 -20 -21 -30 -26 -6
-3 -3 -2 -2 -2 -1 -0 0 1 1 1 1 1 1 1 0 0 0 0 -0 -0 -0 -1 -1 -1 -1 -3 -21 -20 -21 -21 -21 -19 -19 -20 -21 -27 -27
-9 -4 -3 -3 -3 -2 -1 -0 -0 -0 0 1 0 0 0 0 -0 -1 -1 -1 -1 -1 -1 -2 -2 -2 -3 -8 -19 -21 -20 -18 -16 -16 -17 -19 -20 -24
-7 -10 -8 -5 -5 -4 -3 -1 -1 -1 -0 -0 -0 0 -0 -1 -0 -2 -2 -2 -2 -2 -2 -2 -2 -2 -14 -15 -22 -20 -18 -16 -18 -20 -21 -20 -19 -19
-6 -6 -8 -6 -5 -5 -3 -2 -1 -1 -1 -1 -1 -1 -1 -1 -2 -2 -3 -3 -3 -2 -2 -2 -2 -3 -10 -21 -21 -17 -13 -12 -11 -14 -15 -17 -16 -19
-6 -6 -5 -4 -5 -3 -3 -3 -2 -2 -2 -1 -1 -1 -2 -2 -3 -3 -4 -5 -5 -3 -2 -2 -2 -4 -13 -20 -21 -12 -10 -14 -14 -14 -12 -12 -15 -18
-7 -7 -6 -5 -5 -5 -4 -3 -3 -2 -2 -2 -1 -2 -2 -2 -2 -3 -4 -5 -6 -9 -8 -6 -7 -8 -15 -19 -19 -13 -15 -15 -12 -11 -10 -9 -10 -12
-8 -8 -8 -7 -6 -6 -5 -4 -3 -3 -2 -2 -2 -2 -2 -2 -3 -4 -4 -5 -6 -7 -8 -8 -11 -13 -16 -19 -18 -11 -15 -14 -12 -12 -11 -11 -10 -9
-9 -9 -8 -7 -7 -6 -6 -5 -4 -4 -3 -3 -3 -3 -3 -3 -4 -4 -5 -6 -7 -11 -10 -14 -16 -15 -18 -21 -12 -10 -15 -14 -11 -12 -13 -13 -10 -11
-10 -9 -9 -9 -8 -7 -6 -5 -5 -4 -4 -4 -3 -3 -4 -4 -5 -4 -5 -5 -6 -6 -7 -16 -20 -18 -18 -19 -15 -13 -15 -13 -12 -12 -13 -15 -11 -11
-10 -9 -9 -8 -7 -7 -6 -6 -5 -5 -5 -4 -4 -4 -4 -4 -5 -5 -5 -6 -6 -6 -11 -16 -16 -18 -18 -18 -14 -13 -13 -14 -12 -12 -13 -15 -11 -10
-10 -9 -9 -8 -8 -7 -6 -6 -5 -5 -5 -5 -5 -5 -5 -5 -5 -5 -5 -6 -6 -7 -10 -14 -15 -16 -17 -18 -17 -14 -13 -13 -13 -13 -15 -14 -11 -11

GFSNE_850_dewp_117.txt.gz
Dewpoint
9 8 8 8 8 8 9 10 10 10 10 9 9 9 8 8 9 8 8 8 8 6 4 3 3 2 2 2 2 3 3 3 2 1 0 -0 -1 -3
9 9 9 8 9 10 10 10 10 10 9 9 9 9 8 8 8 8 8 8 7 6 4 3 3 2 2 1 2 2 2 2 1 0 -0 -1 -2 -19
9 9 9 9 9 9 9 9 9 9 9 9 9 9 9 9 8 8 7 7 6 5 5 4 3 3 2 1 2 1 1 1 -0 -0 -1 -2 -18 -22
9 9 9 9 9 9 8 8 8 8 8 8 8 8 8 8 8 7 7 6 5 5 4 4 3 2 2 1 2 1 0 -0 -0 -1 -2 -19 -24 -11
6 6 6 6 5 6 7 7 7 7 7 7 7 8 8 7 7 7 6 5 5 4 3 4 3 1 1 1 1 0 -0 -0 -1 -2 -11 -24 -16 -2
1 2 2 3 4 5 6 6 6 6 7 7 7 7 7 7 7 7 5 4 4 4 3 3 2 2 2 1 1 0 -0 -0 -1 -5 -23 -26 -5 2
-4 -2 -1 1 2 3 3 4 4 4 5 5 6 6 6 6 6 6 5 5 5 3 3 3 3 2 2 1 0 0 -0 -1 -3 -17 -27 -26 -1 3
-7 -6 -5 -3 -2 -1 1 3 3 3 4 4 4 4 5 6 5 6 5 4 4 3 3 3 3 2 1 1 0 0 -1 -1 -7 -26 -28 -25 -1 3
-12 -12 -11 -8 -5 -4 -3 0 2 2 2 3 4 4 4 4 5 5 5 4 4 3 3 3 3 2 1 1 -0 -0 -1 -3 -21 -25 -28 -26 -1 1
-11 -11 -11 -11 -11 -4 -1 -1 -0 1 2 2 2 3 3 4 4 4 4 4 4 4 3 2 2 1 0 0 -0 -0 -1 -17 -24 -23 -27 -28 -5 2
-12 -11 -9 -5 -4 -4 -3 -1 -1 -1 -1 1 2 2 2 3 2 3 2 3 3 3 2 2 1 0 -0 -0 -0 -1 -7 -21 -24 -21 -24 -29 -17 0
-11 -11 -12 -13 -5 -4 -3 -2 -3 -1 -0 -0 0 1 1 2 2 1 2 1 1 2 1 0 -0 -0 -1 -1 -1 -3 -11 -22 -23 -20 -21 -28 -30 -9
-9 -10 -10 -10 -12 -13 -7 -5 -3 -2 -1 -0 -0 0 1 1 1 1 1 0 0 1 0 -0 -0 -1 -1 -6 -2 -6 -14 -21 -21 -19 -20 -21 -28 -26
-7 -9 -9 -9 -9 -11 -11 -7 -5 -3 -3 -2 -1 -0 -0 0 0 0 -0 -0 -0 -1 -1 -0 -1 -1 -2 -4 -18 -11 -18 -20 -19 -18 -18 -18 -20 -27
-9 -9 -8 -7 -7 -7 -6 -4 -3 -3 -2 -2 -1 -1 -1 -1 -1 -1 -1 -1 -1 -1 -1 -2 -2 -2 -2 -1 -3 -19 -20 -19 -17 -16 -16 -17 -18 -20
-8 -8 -9 -7 -7 -7 -5 -5 -4 -3 -3 -2 -2 -1 -1 -1 -1 -1 -2 -2 -2 -2 -2 -2 -2 -2 -5 -5 -8 -19 -20 -17 -16 -17 -18 -18 -18 -19
-7 -8 -9 -8 -7 -7 -7 -6 -5 -4 -3 -3 -2 -2 -2 -2 -2 -2 -3 -3 -3 -3 -3 -2 -2 -3 -3 -7 -19 -19 -18 -14 -15 -15 -17 -17 -16 -17
-8 -9 -9 -8 -8 -8 -7 -6 -6 -5 -4 -3 -3 -2 -2 -2 -2 -2 -3 -4 -4 -4 -3 -3 -3 -3 -3 -11 -18 -18 -15 -15 -14 -15 -16 -15 -16 -17
-10 -9 -9 -9 -9 -9 -8 -8 -7 -6 -5 -4 -4 -3 -3 -3 -3 -3 -4 -5 -5 -5 -4 -4 -4 -4 -4 -10 -17 -17 -14 -16 -14 -12 -12 -11 -11 -12
-10 -10 -9 -9 -9 -9 -9 -8 -7 -6 -6 -5 -4 -4 -4 -3 -4 -4 -4 -5 -5 -6 -6 -6 -6 -6 -6 -11 -18 -17 -16 -17 -13 -12 -11 -10 -10 -10
-10 -10 -10 -10 -9 -9 -9 -8 -8 -7 -6 -6 -5 -4 -4 -4 -4 -4 -5 -5 -5 -6 -6 -6 -6 -7 -8 -14 -17 -16 -13 -17 -15 -12 -13 -13 -11 -10
-10 -10 -11 -10 -9 -9 -8 -8 -7 -7 -6 -6 -5 -5 -5 -5 -5 -4 -5 -6 -6 -6 -6 -7 -7 -7 -12 -16 -17 -12 -13 -16 -14 -13 -12 -13 -13 -11
-11 -10 -10 -10 -9 -9 -8 -8 -7 -7 -6 -6 -6 -5 -5 -5 -5 -5 -5 -6 -6 -6 -7 -7 -8 -15 -15 -17 -17 -14 -15 -15 -13 -12 -12 -13 -13 -11

GFSNE_850_dewp_120.txt.gz
Dewpoint
7 7 9 8 9 9 9 9 8 9 9 9 10 9 9 9 9 8 8 8 9 8 8 8 5 4 2 5 5 2 2 2 2 2 1 1 0 -1
8 9 9 9 10 9 9 9 9 9 9 9 9 9 8 9 9 8 8 8 9 8 8 8 5 5 3 3 2 1 1 2 2 1 1 0 -0 -1
8 8 8 8 8 9 9 9 9 9 9 8 8 8 8 9 8 8 9 8 8 8 8 8 6 5 3 3 2 1 1 1 1 1 0 -0 -1 -1
9 9 9 9 9 9 8 8 8 8 7 7 7 7 7 8 8 8 8 8 8 8 8 7 6 5 4 3 2 1 1 1 1 0 -0 -0 -1 -12
7 7 6 5 5 5 5 5 6 6 6 6 6 6 6 7 7 7 8 7 7 7 7 7 6 5 4 3 1 1 1 1 1 -0 -0 -1 -5 -23
-2 -2 -1 -1 0 1 1 1 2 2 3 4 4 4 5 5 6 6 6 6 7 6 5 6 5 5 4 3 1 1 1 1 0 -0 -1 -2 -16 -25
-9 -9 -8 -8 -7 -5 -3 -2 0 2 3 3 3 2 3 3 3 3 5 6 5 6 5 5 4 4 3 3 2 1 1 1 0 -0 -1 -9 -25 -25
-18 -18 -18 -18 -16 -14 -11 -4 -2 -1 1 2 2 3 4 4 3 3 4 4 4 5 4 4 4 4 3 3 3 2 1 0 0 -1 -2 -20 -27 -22
-17 -16 -16 -15 -14 -11 -9 -11 -7 -4 -1 -0 1 1 1 2 3 3 3 3 3 4 4 4 4 4 3 3 3 2 1 0 0 -1 -5 -24 -27 -20
-15 -15 -14 -13 -11 -12 -10 -5 -5 -3 -6 -2 -1 -1 -0 1 2 2 2 3 2 3 3 3 4 4 3 3 2 1 1 0 0 -2 -19 -23 -28 -19
-11 -11 -11 -8 -7 -9 -8 -8 -9 -10 -7 -5 -2 -2 -1 0 1 1 1 2 2 2 2 1 1 2 2 1 1 0 0 -0 -0 -11 -22 -21 -27 -25
-13 -13 -13 -13 -12 -11 -6 -6 -6 -9 -5 -6 -5 -4 -3 -1 -0 1 1 1 1 1 1 1 0 1 -0 0 0 -0 -0 -0 -2 -19 -22 -20 -27 -28
-16 -17 -16 -14 -13 -12 -10 -6 -4 -4 -3 -3 -3 -3 -4 -3 -1 -0 0 -0 1 1 1 0 -0 -0 -0 -0 -1 -1 -1 -2 -9 -22 -20 -18 -23 -29
-17 -14 -13 -15 -16 -13 -10 -8 -7 -6 -4 -4 -3 -2 -2 -2 -1 -1 -1 -1 -1 -1 -0 -1 -1 -0 -1 -1 -3 -2 -2 -3 -14 -22 -19 -18 -20 -26
-11 -8 -7 -10 -9 -9 -8 -8 -8 -6 -4 -4 -4 -3 -2 -2 -2 -1 -1 -1 -1 -1 -2 -1 -1 -1 -2 -1 -4 -16 -3 -6 -16 -19 -18 -17 -18 -21
-11 -9 -11 -12 -11 -10 -9 -8 -7 -6 -5 -4 -4 -3 -2 -2 -2 -2 -2 -2 -2 -2 -2 -3 -3 -3 -2 -2 -2 -2 -12 -14 -17 -17 -15 -16 -17 -18
-10 -13 -13 -13 -12 -9 -8 -8 -8 -7 -6 -5 -4 -4 -3 -3 -3 -3 -2 -3 -3 -3 -3 -3 -3 -3 -3 -4 -4 -3 -12 -17 -17 -15 -15 -16 -17 -18
-9 -10 -9 -9 -8 -8 -9 -8 -8 -7 -6 -6 -5 -5 -4 -3 -3 -3 -3 -3 -4 -4 -4 -3 -3 -4 -3 -4 -6 -17 -17 -16 -15 -15 -16 -16 -16 -17
-11 -9 -9 -9 -9 -9 -9 -9 -8 -8 -7 -7 -7 -6 -4 -4 -4 -4 -3 -4 -4 -5 -4 -4 -4 -4 -4 -4 -7 -17 -15 -16 -15 -16 -17 -17 -17 -17
-11 -9 -9 -9 -9 -9 -9 -9 -8 -8 -7 -7 -7 -6 -5 -5 -4 -4 -4 -4 -4 -5 -5 -5 -4 -4 -4 -3 -5 -17 -15 -16 -17 -17 -16 -15 -14 -13
-10 -10 -10 -11 -10 -10 -10 -9 -8 -8 -8 -7 -7 -6 -6 -5 -5 -5 -4 -5 -5 -5 -6 -5 -5 -5 -5 -5 -7 -17 -16 -16 -13 -14 -12 -12 -11 -10
-11 -11 -11 -11 -10 -10 -10 -9 -9 -8 -8 -7 -7 -7 -6 -6 -5 -5 -5 -5 -6 -6 -6 -6 -6 -6 -6 -6 -14 -16 -15 -7 -15 -13 -12 -11 -10 -10
-11 -11 -11 -10 -10 -10 -9 -9 -8 -8 -8 -7 -7 -7 -6 -6 -6 -6 -6 -6 -6 -6 -6 -7 -7 -7 -7 -6 -7 -13 -11 -6 -10 -13 -12 -12 -12 -11

GFSNE_850_dewp_123.txt.gz
Dewpoint
8 10 9 8 8 9 9 9 9 9 9 8 9 8 8 9 9 9 9 9 8 9 9 9 9 8 8 8 6 5 5 5 6 2 1 2 1 1
9 8 8 8 8 9 9 9 9 9 9 9 9 9 9 9 9 9 8 9 9 9 9 8 8 8 8 8 6 4 3 5 3 1 1 1 1 1
9 8 8 8 9 9 9 9 9 9 9 9 8 8 7 7 6 7 7 6 7 7 8 8 8 8 8 8 7 5 4 3 2 2 0 0 1 0
9 9 9 9 9 9 9 9 8 8 7 7 7 6 6 6 5 6 6 7 7 7 8 8 8 8 8 8 7 6 4 3 2 1 0 1 0 -1
8 8 8 8 7 5 4 3 2 2 2 2 3 3 3 2 1 2 2 3 4 5 6 6 7 7 7 7 6 6 5 3 2 0 -0 0 -0 -1
-2 -2 -3 -3 -4 -4 -5 -5 -4 -4 -4 0 3 3 3 3 3 3 2 2 3 3 4 5 6 5 5 5 5 5 4 3 2 1 1 -0 -0 -1
-13 -14 -14 -15 -16 -16 -15 -15 -12 -9 -6 -4 0 -0 -1 -0 1 1 2 3 3 3 3 3 4 5 4 4 4 4 4 3 2 2 1 -0 -0 -2
-18 -17 -17 -15 -14 -11 -8 -11 -14 -8 -5 -1 0 1 1 -0 -1 0 1 1 2 2 2 3 3 4 4 4 4 4 4 4 3 2 2 0 -0 -2
-18 -18 -17 -16 -14 -15 -14 -15 -16 -15 -10 -2 -1 -1 -1 -1 -1 -0 0 1 1 1 2 2 2 3 3 3 3 3 3 3 2 2 1 0 -1 -3
-19 -18 -18 -16 -14 -15 -15 -15 -14 -14 -11 -12 -10 -6 -2 -2 -2 -2 -1 -0 0 1 1 2 2 2 2 2 2 1 2 1 1 1 1 0 -1 -12
-17 -16 -17 -14 -14 -14 -6 -5 -6 -9 -9 -9 -10 -11 -10 -6 -4 -3 -2 -1 -1 -0 0 0 1 1 1 1 1 -0 -0 0 0 1 0 -1 -4 -20
-15 -12 -7 -13 -17 -16 -11 -10 -9 -9 -10 -12 -12 -11 -6 -4 -2 -2 -2 -2 -1 -1 -0 0 0 1 -0 0 0 -0 -1 0 -0 -0 -0 -1 -21 -22
-16 -17 -18 -20 -18 -16 -15 -13 -8 -6 -8 -10 -8 -5 -4 -4 -3 -2 -2 -2 -1 -1 -1 -1 -1 -0 -0 -1 -0 -1 -1 -1 -1 -1 -0 -10 -22 -20
-18 -18 -18 -17 -16 -15 -14 -13 -13 -10 -8 -6 -5 -4 -4 -3 -3 -3 -2 -2 -1 -1 -2 -2 -2 -1 -1 -1 -1 -2 -3 -3 -3 -2 -5 -20 -17 -19
-15 -16 -16 -15 -15 -15 -14 -13 -12 -10 -8 -6 -6 -5 -5 -4 -3 -2 -3 -2 -2 -2 -2 -2 -2 -2 -2 -2 -2 -2 -3 -4 -3 -3 -18 -19 -17 -20
-16 -16 -14 -13 -13 -13 -12 -12 -10 -8 -7 -7 -7 -6 -6 -5 -4 -3 -3 -3 -3 -3 -3 -3 -3 -3 -3 -3 -3 -3 -4 -4 -4 -6 -16 -15 -16 -17
-16 -15 -14 -13 -13 -12 -10 -10 -9 -9 -8 -8 -7 -7 -6 -5 -5 -3 -3 -4 -4 -4 -4 -4 -4 -3 -4 -4 -4 -4 -4 -4 -10 -10 -15 -15 -16 -16
-14 -13 -13 -12 -12 -11 -11 -10 -9 -9 -8 -8 -8 -7 -7 -6 -5 -4 -4 -4 -4 -4 -4 -4 -4 -4 -4 -4 -4 -5 -5 -11 -13 -14 -14 -14 -16 -17
-12 -12 -11 -11 -11 -9 -10 -10 -9 -9 -8 -8 -8 -7 -7 -6 -5 -5 -4 -4 -4 -5 -5 -5 -4 -5 -5 -5 -5 -7 -11 -14 -14 -14 -14 -15 -16 -17
-11 -11 -11 -11 -10 -11 -11 -10 -10 -10 -9 -9 -9 -8 -7 -7 -6 -6 -5 -5 -5 -5 -5 -5 -5 -5 -5 -4 -5 -7 -12 -14 -14 -14 -16 -16 -17 -17
-11 -11 -11 -11 -12 -11 -10 -10 -10 -9 -9 -8 -8 -8 -8 -7 -7 -6 -6 -6 -5 -5 -5 -6 -5 -5 -5 -5 -5 -9 -15 -15 -14 -16 -17 -16 -16 -15
-11 -11 -11 -11 -11 -11 -10 -10 -10 -9 -9 -8 -8 -7 -8 -8 -7 -6 -6 -6 -6 -6 -6 -6 -6 -6 -6 -6 -6 -11 -15 -14 -10 -12 -14 -13 -12 -11
-11 -11 -12 -12 -11 -11 -11 -12 -10 -9 -9 -8 -8 -8 -7 -7 -7 -6 -6 -6 -6 -6 -7 -7 -6 -7 -6 -6 -6 -11 -14 -7 -6 -10 -12 -10 -10 -10

GFSNE_850_dewp_126.txt.gz
Dewpoint
10 11 11 10 10 9 9 8 8 9 9 8 9 7 8 8 9 9 9 9 9 8 8 8 8 8 8 8 8 9 8 8 8 6 5 5 6 2
10 10 9 9 9 8 8 8 9 9 9 9 9 9 9 9 9 8 8 7 7 7 7 6 7 7 8 8 8 8 8 8 7 6 4 4 5 1
10 9 9 9 8 8 9 9 9 9 9 9 8 8 8 8 7 5 3 2 1 2 5 6 6 6 7 8 8 8 8 8 8 6 5 5 3 1
10 9 9 9 8 8 9 8 8 7 7 6 6 4 2 0 -1 -2 -4 -3 -2 -3 -1 0 3 5 6 6 7 7 7 7 7 6 5 4 3 1
9 8 8 7 7 7 6 5 2 0 -1 -2 -4 -6 -6 -8 -10 -12 -12 -11 -7 -3 -1 1 3 3 5 5 6 6 6 6 6 5 5 4 2 1
1 -1 -3 -5 -6 -7 -9 -11 -13 -15 -16 -16 -15 -13 -8 -5 -1 -0 -1 -3 -2 -3 -3 -2 1 2 2 3 4 5 5 5 5 5 5 4 2 1
-15 -17 -18 -19 -18 -19 -19 -19 -19 -19 -19 -16 -11 -4 -2 -2 -2 -1 -0 -1 -1 1 -1 -2 -3 -1 -1 1 3 4 4 4 4 4 4 3 3 2
-19 -19 -18 -19 -19 -19 -20 -20 -17 -15 -14 -12 -9 -7 -5 -2 -2 -2 -3 -3 -2 -2 -1 -1 -1 -1 -1 -1 -0 2 2 3 4 4 3 2 2 2
-20 -20 -19 -18 -20 -20 -19 -21 -21 -18 -16 -14 -10 -11 -8 -8 -5 -4 -5 -4 -3 -3 -3 -2 -2 -1 -1 1 1 2 2 2 3 3 2 1 2 2
-19 -20 -20 -20 -21 -20 -21 -23 -23 -23 -20 -18 -13 -11 -10 -9 -7 -5 -3 -2 -2 -2 -4 -2 -1 -3 -1 -1 0 1 1 1 2 2 1 0 -0 0
-22 -21 -20 -19 -19 -21 -19 -17 -19 -20 -20 -18 -13 -9 -7 -4 -4 -4 -4 -3 -3 -3 -2 -2 -1 -1 -0 -1 0 0 1 0 0 1 -0 -0 -0 -0
-18 -17 -16 -18 -15 -15 -15 -15 -14 -12 -13 -16 -15 -12 -9 -6 -5 -4 -4 -3 -3 -3 -2 -2 -2 -1 -1 -1 -1 -1 -0 -1 -1 -1 -1 -1 -1 -0
-17 -14 -13 -14 -16 -16 -15 -13 -10 -9 -11 -11 -11 -11 -10 -5 -5 -4 -4 -3 -3 -3 -3 -2 -3 -2 -2 -1 -1 -1 -1 -2 -2 -2 -2 -2 -1 -2
-15 -15 -15 -16 -15 -15 -14 -14 -11 -10 -9 -9 -8 -7 -7 -7 -6 -5 -4 -3 -3 -2 -3 -2 -3 -2 -2 -2 -2 -2 -2 -2 -3 -3 -3 -3 -2 -16
-13 -15 -15 -15 -15 -15 -14 -13 -12 -11 -10 -9 -7 -7 -7 -6 -5 -5 -5 -4 -4 -3 -3 -3 -3 -3 -3 -3 -3 -3 -3 -3 -4 -4 -4 -3 -13 -16
-13 -13 -14 -14 -14 -14 -13 -13 -12 -12 -10 -8 -8 -8 -7 -7 -5 -5 -4 -4 -4 -4 -4 -4 -4 -4 -4 -4 -4 -4 -4 -4 -5 -4 -4 -13 -16 -15
-15 -15 -13 -13 -13 -13 -13 -13 -12 -12 -9 -8 -8 -8 -8 -7 -7 -5 -5 -4 -4 -4 -4 -4 -4 -4 -4 -5 -4 -4 -4 -4 -5 -6 -7 -13 -14 -14
-12 -12 -13 -12 -12 -12 -12 -12 -11 -10 -9 -9 -9 -9 -8 -8 -7 -7 -5 -5 -4 -5 -5 -5 -5 -5 -5 -5 -5 -5 -5 -5 -5 -6 -11 -12 -15 -14
-10 -11 -12 -12 -12 -12 -12 -12 -11 -10 -10 -9 -9 -9 -8 -8 -7 -7 -6 -5 -5 -5 -5 -5 -5 -5 -6 -5 -6 -5 -5 -7 -9 -8 -11 -13 -15 -16
-10 -11 -11 -11 -12 -12 -12 -11 -11 -10 -10 -10 -9 -8 -8 -8 -8 -8 -7 -7 -6 -6 -6 -5 -5 -5 -6 -6 -5 -6 -10 -12 -9 -10 -13 -14 -16 -16
-11 -12 -12 -12 -12 -12 -11 -11 -11 -11 -10 -9 -9 -9 -8 -8 -8 -8 -7 -6 -6 -6 -6 -6 -6 -5 -6 -6 -6 -6 -12 -12 -10 -13 -10 -15 -16 -17
-11 -11 -11 -11 -12 -12 -11 -11 -12 -12 -10 -9 -9 -8 -8 -8 -8 -8 -7 -7 -6 -6 -6 -7 -7 -6 -6 -6 -6 -7 -11 -11 -12 -11 -15 -16 -15 -15
-9 -11 -11 -11 -12 -12 -11 -11 -12 -13 -12 -9 -9 -9 -8 -8 -8 -8 -8 -7 -6 -7 -7 -7 -7 -7 -7 -6 -6 -7 -9 -8 -8 -10 -9 -11 -9 -11

GFSNE_850_dewp_129.txt.gz
Dewpoint
9 9 10 10 9 10 10 10 10 9 8 7 8 9 9 9 9 9 9 9 9 8 8 7 7 7 6 6 7 8 8 8 7 8 8 8 8 7
9 10 10 10 10 10 9 9 9 9 9 9 9 9 9 9 9 8 8 8 8 7 5 3 1 2 3 4 6 7 8 8 8 8 8 7 7 7
9 9 10 10 9 9 9 9 9 9 9 9 8 9 9 8 8 8 6 2 -2 -5 -5 -5 -5 -5 -4 0 5 5 6 7 8 8 8 8 8 7
9 9 9 9 9 9 9 9 8 8 8 7 7 7 4 0 -5 -10 -15 -18 -17 -18 -19 -18 -13 -6 -1 -0 2 2 5 6 6 7 7 7 7 6
8 9 8 8 8 8 7 7 6 3 -0 -3 -8 -13 -17 -19 -19 -17 -16 -17 -15 -12 -13 -16 -14 -11 -7 -2 1 2 3 4 5 6 6 6 6 6
6 5 3 2 -1 -5 -8 -11 -14 -17 -18 -18 -19 -20 -21 -23 -20 -17 -18 -15 -11 -15 -19 -16 -12 -5 -2 -2 -2 -1 1 2 2 5 5 5 5 6
-11 -14 -15 -17 -19 -20 -20 -20 -21 -22 -22 -22 -21 -19 -19 -19 -13 -13 -10 -13 -14 -14 -13 -10 -12 -8 -9 -5 -4 -2 -1 -1 1 3 4 4 4 5
-17 -19 -19 -19 -19 -22 -22 -23 -23 -23 -23 -21 -21 -19 -19 -15 -13 -11 -10 -9 -4 -7 -3 -3 -3 -6 -9 -5 -5 -1 -1 -0 1 3 3 3 3 4
-18 -18 -20 -21 -22 -22 -22 -22 -23 -22 -22 -20 -19 -15 -15 -14 -9 -8 -6 -4 -4 -5 -4 -3 -2 -4 -4 -3 -4 -2 -1 -1 0 1 2 2 2 2
-19 -19 -20 -21 -22 -22 -24 -24 -23 -21 -20 -19 -16 -16 -13 -8 -5 -4 -4 -4 -4 -4 -3 -3 -4 -4 -2 -2 -2 -1 -1 -0 0 1 1 2 2 2
-20 -20 -21 -21 -20 -21 -21 -20 -19 -17 -17 -16 -15 -13 -11 -10 -6 -5 -5 -4 -4 -4 -5 -4 -3 -2 -4 -2 -2 -1 -1 -1 -1 -1 1 1 1 1
-20 -18 -18 -19 -19 -18 -16 -15 -15 -13 -14 -14 -13 -12 -11 -9 -6 -5 -5 -5 -4 -4 -4 -3 -3 -3 -3 -2 -3 -2 -2 -2 -1 -1 0 -0 -1 -1
-19 -18 -17 -15 -15 -15 -14 -13 -10 -7 -12 -12 -13 -13 -11 -9 -9 -7 -5 -5 -4 -4 -4 -4 -3 -3 -3 -3 -3 -3 -3 -3 -2 -1 -1 -2 -2 -2
-17 -16 -15 -14 -12 -12 -12 -12 -8 -11 -12 -12 -12 -11 -10 -10 -9 -7 -6 -6 -5 -4 -4 -3 -4 -3 -3 -4 -4 -3 -4 -4 -3 -3 -3 -3 -3 -3
-16 -14 -14 -13 -12 -13 -12 -12 -12 -12 -12 -12 -9 -8 -8 -8 -8 -6 -6 -6 -5 -5 -4 -3 -4 -4 -4 -4 -4 -4 -4 -4 -4 -4 -4 -4 -4 -4
-14 -13 -13 -13 -12 -12 -12 -12 -12 -12 -12 -10 -9 -9 -9 -9 -8 -8 -6 -5 -5 -5 -4 -4 -4 -5 -5 -5 -5 -4 -4 -5 -4 -5 -5 -5 -4 -13
-16 -15 -13 -12 -12 -12 -12 -13 -13 -13 -12 -10 -10 -10 -9 -9 -8 -8 -7 -7 -6 -5 -5 -5 -5 -5 -5 -5 -5 -5 -5 -5 -5 -5 -5 -7 -14 -14
-12 -13 -13 -11 -12 -13 -13 -13 -13 -12 -11 -10 -10 -9 -9 -9 -8 -8 -8 -7 -6 -6 -5 -5 -5 -6 -6 -6 -6 -5 -5 -6 -6 -6 -6 -11 -13 -12
-8 -9 -10 -10 -11 -12 -12 -12 -12 -11 -11 -10 -9 -9 -9 -8 -8 -8 -8 -8 -7 -6 -6 -6 -6 -6 -6 -7 -6 -6 -6 -6 -6 -6 -7 -13 -13 -13
-9 -9 -9 -9 -10 -11 -12 -12 -11 -11 -11 -11 -9 -9 -9 -9 -9 -8 -8 -8 -7 -7 -6 -6 -6 -6 -6 -7 -6 -6 -7 -9 -9 -8 -10 -14 -14 -15
-8 -8 -9 -10 -11 -11 -11 -12 -11 -11 -12 -13 -10 -9 -9 -9 -8 -8 -8 -8 -7 -7 -7 -7 -6 -6 -6 -7 -7 -7 -9 -9 -8 -10 -12 -9 -13 -16
-9 -8 -9 -9 -10 -11 -12 -13 -12 -11 -13 -14 -12 -9 -9 -9 -8 -8 -8 -8 -8 -7 -7 -7 -7 -7 -7 -7 -7 -7 -10 -9 -11 -10 -7 -9 -10 -13
-9 -8 -9 -10 -10 -10 -12 -14 -13 -12 -13 -14 -14 -9 -9 -9 -9 -8 -8 -8 -8 -7 -7 -7 -7 -7 -7 -7 -7 -8 -9 -11 -10 -8 -8 -8 -10 -15

GFSNE_850_dewp_132.txt.gz
Dewpoint
9 10 10 10 9 9 10 10 10 10 9 10 9 8 8 9 9 9 9 8 9 9 9 9 8 7 7 5 3 1 2 3 6 7 8 8 6 7
9 8 8 8 9 9 10 10 9 9 9 9 9 9 9 9 9 9 9 8 8 8 8 7 5 2 -3 -5 -6 -6 -5 0 5 7 7 7 7 8
9 8 7 8 8 9 9 9 9 9 9 9 9 9 8 8 8 8 8 7 6 1 -4 -11 -16 -19 -20 -19 -15 -9 -5 -4 -1 3 5 7 7 8
8 8 8 8 8 9 9 8 9 8 8 8 8 8 7 5 1 -9 -15 -19 -20 -20 -20 -21 -21 -18 -15 -12 -12 -8 -4 -0 0 1 3 4 6 7
8 8 7 7 7 6 7 7 8 7 6 5 1 -7 -17 -20 -22 -23 -25 -27 -25 -25 -25 -24 -23 -22 -20 -17 -9 -5 -4 -4 -1 1 2 2 5 6
6 6 5 3 5 4 -2 -6 -12 -15 -17 -17 -19 -22 -22 -22 -21 -20 -25 -23 -25 -24 -21 -20 -19 -20 -19 -15 -10 -8 -7 -5 -3 -1 -0 1 1 5
2 -2 -9 -10 -15 -16 -17 -18 -19 -20 -20 -21 -20 -20 -19 -20 -18 -17 -15 -17 -19 -19 -17 -17 -17 -17 -17 -11 -9 -8 -4 -3 -2 -2 -1 -1 0 4
-18 -15 -15 -14 -15 -18 -20 -21 -22 -22 -23 -23 -23 -22 -20 -18 -18 -16 -14 -11 -5 -17 -9 -8 -8 -11 -9 -5 -4 -3 -3 -4 -4 -2 -2 0 2 2
-18 -18 -18 -18 -19 -19 -19 -21 -22 -22 -21 -20 -18 -17 -19 -17 -15 -13 -7 -4 -4 -8 -5 -4 -7 -6 -5 -6 -5 -3 -3 -2 -2 -1 -1 -0 0 2
-17 -18 -18 -18 -18 -21 -21 -20 -18 -18 -18 -17 -17 -15 -14 -14 -10 -6 -5 -4 -4 -6 -5 -4 -5 -3 -5 -5 -4 -2 -2 -2 -2 -1 -1 -1 0 1
-19 -18 -18 -18 -18 -19 -20 -20 -19 -18 -17 -17 -16 -15 -14 -13 -10 -6 -5 -5 -5 -5 -5 -5 -4 -4 -5 -6 -3 -3 -3 -3 -2 -3 -2 -2 -1 1
-18 -17 -18 -19 -20 -20 -20 -20 -19 -18 -18 -17 -16 -15 -14 -13 -10 -7 -7 -6 -5 -6 -5 -5 -5 -5 -5 -5 -4 -3 -3 -3 -3 -3 -1 -1 0 1
-20 -19 -18 -17 -18 -18 -17 -17 -15 -16 -16 -15 -15 -15 -13 -12 -10 -9 -7 -7 -6 -6 -5 -5 -5 -5 -5 -5 -5 -4 -4 -4 -4 -4 -2 -2 -1 -1
-20 -19 -17 -17 -17 -17 -16 -15 -15 -14 -13 -14 -14 -14 -14 -12 -10 -9 -8 -6 -6 -6 -5 -4 -5 -5 -5 -5 -5 -5 -5 -4 -4 -4 -3 -3 -3 -3
-19 -18 -19 -17 -16 -14 -13 -13 -13 -13 -13 -13 -14 -13 -12 -11 -10 -10 -9 -7 -6 -5 -5 -5 -5 -5 -5 -5 -5 -5 -5 -5 -5 -5 -4 -4 -4 -4
-15 -14 -15 -15 -14 -13 -13 -12 -13 -13 -13 -13 -13 -12 -11 -11 -10 -9 -9 -8 -7 -6 -6 -5 -5 -5 -5 -5 -5 -5 -5 -5 -5 -6 -5 -5 -5 -5
-15 -15 -15 -15 -13 -12 -12 -12 -12 -13 -13 -13 -12 -11 -11 -10 -10 -9 -8 -8 -8 -7 -7 -7 -6 -6 -6 -6 -6 -6 -5 -5 -6 -6 -6 -6 -10 -13
-13 -10 -9 -10 -11 -10 -11 -12 -12 -13 -13 -12 -11 -11 -10 -10 -9 -9 -8 -8 -8 -8 -7 -7 -7 -7 -7 -7 -6 -6 -6 -6 -6 -6 -7 -6 -13 -13
-15 -11 -9 -9 -10 -10 -11 -12 -13 -13 -13 -12 -12 -11 -10 -9 -9 -9 -9 -8 -8 -8 -7 -7 -7 -7 -7 -7 -7 -6 -6 -6 -7 -7 -6 -12 -14 -13
-14 -13 -10 -10 -10 -10 -11 -12 -13 -13 -12 -11 -13 -12 -10 -9 -9 -9 -9 -9 -8 -8 -8 -7 -7 -7 -7 -7 -7 -7 -7 -7 -8 -7 -7 -14 -13 -10
-9 -9 -9 -9 -9 -10 -10 -11 -12 -13 -12 -12 -13 -14 -12 -9 -9 -9 -9 -9 -8 -8 -8 -7 -7 -7 -7 -7 -7 -7 -7 -11 -10 -9 -11 -9 -9 -11
-10 -9 -9 -9 -9 -9 -10 -11 -13 -13 -13 -13 -14 -15 -14 -10 -9 -9 -9 -9 -9 -8 -8 -8 -7 -7 -7 -7 -7 -7 -7 -9 -10 -10 -7 -6 -6 -6
-10 -9 -9 -9 -9 -10 -10 -10 -12 -13 -13 -12 -12 -13 -14 -11 -9 -9 -9 -9 -9 -9 -8 -8 -7 -7 -7 -8 -7 -7 -8 -11 -10 -7 -7 -7 -9 -13

GFSNE_850_dewp_135.txt.gz
Dewpoint
9 9 9 9 9 9 9 8 9 9 9 9 9 9 9 9 9 9 8 9 9 9 8 8 8 9 8 8 7 6 2 -2 -5 -6 -6 -1 4 7
8 8 8 8 8 8 8 8 8 8 9 8 9 9 9 9 9 9 8 9 8 8 8 8 8 7 3 -3 -9 -15 -19 -20 -19 -18 -12 -8 -1 6
7 8 8 8 9 9 7 8 8 7 8 9 9 8 7 8 7 8 8 7 7 6 4 -1 -11 -18 -21 -23 -23 -21 -19 -17 -14 -16 -13 -9 -4 1
7 8 8 8 8 8 8 7 8 8 8 8 7 7 6 6 6 6 0 -14 -18 -20 -23 -25 -26 -27 -26 -25 -25 -24 -21 -12 -8 -8 -8 -6 -4 -2
7 7 7 7 7 7 6 6 6 6 6 6 6 6 4 1 -11 -20 -22 -24 -24 -24 -25 -25 -24 -23 -23 -20 -17 -14 -12 -12 -11 -10 -9 -5 -5 -3
6 5 6 5 5 5 3 -1 -4 -4 -14 -18 -18 -19 -20 -21 -23 -24 -26 -26 -28 -26 -24 -22 -21 -21 -19 -15 -13 -10 -8 -8 -8 -6 -5 -3 -3 -3
3 1 -2 -5 -6 -10 -16 -16 -18 -21 -22 -23 -23 -22 -21 -22 -20 -20 -21 -22 -24 -22 -20 -22 -22 -23 -17 -14 -11 -8 -5 -6 -6 -6 -6 -5 -4 -5
-13 -12 -13 -13 -14 -18 -20 -22 -23 -23 -24 -23 -22 -20 -17 -16 -16 -15 -14 -11 -12 -17 -13 -20 -16 -16 -11 -9 -7 -6 -5 -3 -2 -2 -2 -3 -5 -3
-14 -13 -13 -16 -18 -18 -19 -21 -21 -21 -21 -19 -17 -15 -14 -12 -13 -12 -10 -6 -5 -11 -7 -7 -13 -11 -10 -9 -6 -5 -2 -2 -3 -3 -3 -2 -2 -1
-16 -16 -16 -17 -18 -21 -21 -20 -19 -18 -17 -16 -15 -15 -16 -15 -13 -11 -9 -8 -8 -10 -7 -6 -7 -7 -8 -7 -6 -4 -3 -4 -3 -3 -3 -4 -3 -3
-18 -19 -19 -19 -19 -21 -20 -18 -18 -17 -16 -16 -17 -16 -16 -16 -15 -12 -10 -10 -8 -8 -10 -5 -5 -6 -6 -7 -5 -4 -5 -5 -4 -4 -4 -3 -2 -1
-19 -19 -19 -19 -18 -19 -18 -18 -17 -17 -18 -18 -17 -17 -16 -15 -13 -12 -9 -8 -8 -7 -6 -6 -6 -6 -6 -6 -5 -6 -5 -5 -5 -4 -4 -3 -1 -1
-19 -18 -17 -17 -18 -18 -18 -18 -18 -18 -17 -17 -17 -16 -16 -16 -14 -12 -10 -8 -8 -8 -7 -6 -6 -6 -6 -6 -6 -6 -5 -5 -5 -5 -4 -4 -3 -2
-17 -17 -17 -18 -19 -19 -18 -18 -18 -17 -16 -16 -16 -16 -15 -14 -13 -12 -10 -10 -8 -8 -8 -7 -7 -6 -6 -6 -6 -6 -5 -6 -5 -5 -5 -5 -4 -3
-15 -15 -16 -17 -17 -17 -16 -15 -16 -15 -15 -15 -16 -15 -14 -13 -12 -11 -10 -9 -9 -8 -7 -7 -7 -6 -6 -6 -6 -6 -6 -6 -5 -5 -6 -6 -6 -6
-15 -15 -15 -17 -16 -15 -14 -13 -13 -13 -13 -14 -15 -14 -13 -12 -12 -11 -10 -9 -9 -9 -8 -7 -7 -7 -6 -6 -6 -6 -6 -6 -6 -6 -6 -6 -6 -7
-15 -15 -16 -17 -15 -13 -12 -11 -12 -13 -13 -14 -14 -14 -13 -11 -11 -10 -9 -9 -9 -8 -8 -8 -7 -7 -7 -7 -7 -6 -6 -6 -6 -6 -7 -7 -6 -13
-13 -13 -13 -11 -10 -12 -11 -11 -11 -12 -13 -14 -13 -12 -12 -11 -10 -10 -9 -9 -9 -9 -8 -8 -7 -7 -8 -8 -7 -7 -7 -6 -6 -7 -7 -7 -12 -13
-13 -13 -13 -13 -12 -11 -11 -11 -12 -12 -13 -13 -12 -12 -13 -12 -10 -9 -9 -9 -9 -9 -9 -8 -8 -7 -7 -7 -7 -7 -7 -7 -7 -7 -6 -10 -14 -11
-14 -14 -14 -14 -15 -13 -12 -12 -12 -12 -13 -13 -12 -12 -14 -14 -12 -9 -9 -9 -9 -9 -9 -8 -8 -7 -7 -7 -7 -7 -7 -7 -9 -8 -8 -13 -10 -5
-14 -14 -13 -11 -13 -12 -11 -10 -11 -11 -13 -13 -13 -13 -14 -14 -14 -10 -9 -9 -9 -9 -9 -9 -8 -7 -7 -7 -7 -7 -7 -8 -8 -8 -10 -8 -5 -5
-12 -12 -11 -11 -11 -11 -11 -10 -11 -11 -13 -13 -12 -12 -11 -12 -14 -11 -9 -9 -9 -9 -9 -8 -8 -8 -8 -7 -8 -8 -8 -8 -9 -10 -6 -6 -6 -5
-10 -9 -9 -10 -10 -11 -11 -10 -10 -10 -10 -12 -11 -10 -9 -10 -13 -12 -9 -9 -9 -9 -9 -8 -8 -8 -8 -8 -8 -8 -8 -9 -9 -7 -7 -7 -7 -6